[[{"header":{"parameterUnit":"m.s-1","parameterCategory":1,"la1":30.6,"la2":29.2853,"lo1":-89.7004,"lo2":-87.6739,"dy":0.0162,"dx":0.0183,"nx":112,"ny":82,"refTime":"2023-09-10T18:00:00:Z","depth":0,"parameterNumber":2,"parameterNumberName":"U-component_of_WINDS"},"data":[0.0,0.0,0.0,0.0,0.0,0.0,0.0,0.0,0.0,0.0,0.0,0.0,0.0,0.0,0.0,0.0,0.0,0.0,0.0,0.0,0.0,0.0,0.0,0.0,0.0,0.0,0.0,0.0,0.0,0.0,0.0,0.0,0.0,0.0,0.0,0.0,0.0,0.0,0.0,0.0,0.0,0.0,0.0,0.0,0.0,0.0,0.0,0.0,0.0,0.0,0.0,0.0,0.0,0.0,0.0,0.0,0.0,0.0,0.0,0.0,0.0,0.0,0.0,0.0,0.0,0.0,0.0,0.0,0.0,0.0,0.0,0.0,0.0,0.0,0.0,0.0,0.0,0.0,0.0,0.0,0.0,0.0,0.0,0.0,0.0,0.0,0.0,0.0,0.0,0.0,1.5866,1.7199,1.9678,2.1229,2.1375,2.1452,2.0831,1.9292,0.0,0.0,0.0,0.0,0.0,0.0,0.0,0.0,0.0,0.0,0.0,0.0,0.0,0.0,0.0,0.0,0.0,0.0,0.0,0.0,0.0,0.0,0.0,0.0,0.0,0.0,0.0,0.0,0.0,0.0,0.0,0.0,0.0,0.0,0.0,0.0,0.0,0.0,0.0,0.0,0.0,0.0,0.0,0.0,0.0,0.0,0.0,0.0,0.0,0.0,0.0,0.0,0.0,0.0,0.0,0.0,0.0,0.0,0.0,0.0,0.0,0.0,0.0,0.0,0.0,0.0,0.0,0.0,0.0,0.0,0.0,0.0,0.0,0.0,0.0,0.0,0.0,0.0,0.0,0.0,0.0,0.0,0.0,0.0,0.0,0.0,0.0,0.0,0.0,0.0,0.0,0.0,0.0,0.0,0.0,0.0,0.0,0.0,0.0,0.0,0.0,0.0,0.0,0.0,1.6289,1.8179,2.0072,2.1229,2.1229,2.0395,1.9782,1.9622,0.0,0.0,0.0,0.0,0.0,0.0,0.0,0.0,0.0,0.0,0.0,0.0,0.0,0.0,0.0,0.0,0.0,0.0,0.0,0.0,0.0,0.0,0.0,0.0,0.0,0.0,0.0,0.0,0.0,0.0,0.0,0.0,0.0,0.0,0.0,0.0,0.0,0.0,0.0,0.0,0.0,0.0,0.0,0.0,0.0,0.0,0.0,0.0,0.0,0.0,0.0,0.0,0.0,0.0,0.0,0.0,0.0,0.0,0.0,0.0,0.0,0.0,0.0,0.0,0.0,0.0,0.0,0.0,0.0,0.0,0.0,0.0,0.0,0.0,0.0,0.0,0.0,0.0,0.0,0.0,0.0,0.0,0.0,0.0,0.0,0.0,0.0,0.0,0.0,0.0,0.0,0.0,0.0,0.0,0.0,0.0,0.0,0.0,0.0,0.0,0.0,0.0,0.0,1.6423,1.7429,1.9062,2.0415,2.1229,2.1277,2.0259,1.9748,2.0041,1.9135,0.0,0.0,0.0,0.0,0.0,0.0,0.0,0.0,0.0,0.0,0.0,0.0,0.0,0.0,0.0,0.0,0.0,0.0,0.0,0.0,0.0,0.0,0.0,0.0,0.0,0.0,0.0,0.0,0.0,0.0,0.0,0.0,0.0,0.0,0.0,0.0,0.0,0.0,0.0,0.0,0.0,0.0,0.0,0.0,0.0,0.0,0.0,0.0,0.0,0.0,0.0,0.0,0.0,0.0,0.0,0.0,0.0,0.0,0.0,0.0,0.0,0.0,0.0,0.0,0.0,0.0,0.0,0.0,0.0,0.0,0.0,0.0,0.0,0.0,0.0,0.0,0.0,0.0,0.0,0.0,0.0,0.0,0.0,0.0,0.0,0.0,0.0,0.0,0.0,0.0,0.0,0.0,0.0,0.0,0.0,0.0,0.0,0.0,0.0,0.0,0.0,0.0,1.7411,1.8248,1.9464,2.0332,2.0907,2.1016,2.0066,1.9674,2.0006,1.8769,0.0,0.0,0.0,0.0,0.0,0.0,0.0,0.0,0.0,0.0,0.0,0.0,0.0,0.0,0.0,0.0,0.0,0.0,0.0,0.0,0.0,0.0,0.0,0.0,0.0,0.0,0.0,0.0,0.0,0.0,0.0,0.0,0.0,0.0,0.0,0.0,0.0,0.0,0.0,0.0,0.0,0.0,0.0,0.0,0.0,0.0,0.0,0.0,0.0,0.0,0.0,0.0,0.0,0.0,0.0,0.0,0.0,0.0,0.0,0.0,0.0,0.0,0.0,0.0,0.0,0.0,0.0,0.0,0.0,0.0,0.0,0.0,0.0,0.0,0.0,0.0,0.0,0.0,0.0,0.0,0.0,0.0,0.0,0.0,0.0,0.0,0.0,0.0,0.0,0.0,0.0,0.0,0.0,0.0,0.0,0.0,0.0,0.0,0.0,0.0,0.0,0.0,1.7685,1.8003,1.8806,1.9489,1.9871,1.9822,1.9298,1.8959,1.8987,1.8683,0.0,0.0,0.0,0.0,0.0,0.0,0.0,0.0,0.0,0.0,0.0,0.0,0.0,0.0,0.0,0.0,0.0,0.0,0.0,0.0,0.0,0.0,0.0,0.0,0.0,0.0,0.0,0.0,0.0,0.0,0.0,0.0,0.0,0.0,0.0,0.0,0.0,0.0,0.0,0.0,0.0,0.0,0.0,0.0,0.0,0.0,0.0,0.0,0.0,0.0,0.0,0.0,0.0,0.0,0.0,0.0,0.0,0.0,0.0,0.0,0.0,0.0,0.0,0.0,0.0,0.0,0.0,0.0,0.0,0.0,0.0,0.0,0.0,0.0,0.0,0.0,0.0,0.0,0.0,0.0,0.0,0.0,0.0,0.0,0.0,0.0,0.0,0.0,0.0,0.0,0.0,0.0,0.0,0.0,0.0,0.0,0.0,0.0,0.0,0.0,0.0,0.0,1.7383,1.7585,0.0,1.9337,1.9704,1.9762,1.9331,1.91,1.9183,0.0,0.0,0.0,0.0,0.0,0.0,0.0,0.0,0.0,0.0,0.0,0.0,0.0,0.0,0.0,0.0,0.0,0.0,0.0,0.0,0.0,0.0,0.0,0.0,0.0,0.0,0.0,0.0,0.0,0.0,0.0,0.0,0.0,0.0,0.0,0.0,0.0,0.0,0.0,0.0,0.0,0.0,0.0,0.0,0.0,0.0,0.0,0.0,0.0,0.0,0.0,0.0,0.0,0.0,0.0,0.0,0.0,0.0,0.0,0.0,0.0,0.0,0.0,0.0,0.0,0.0,0.0,0.0,0.0,0.0,0.0,0.0,0.0,0.0,0.0,0.0,0.0,0.0,0.0,0.0,0.0,0.0,0.0,0.0,0.0,0.0,0.0,0.0,0.0,0.0,0.0,0.0,0.0,0.0,0.0,0.0,0.0,0.0,0.0,0.0,0.0,0.0,1.7871,1.7504,1.7544,0.0,1.893,1.9176,1.9248,1.8906,1.8837,1.9109,0.0,0.0,0.0,0.0,0.0,0.0,0.0,0.0,0.0,0.0,0.0,0.0,0.0,0.0,0.0,0.0,0.0,0.0,0.0,0.0,0.0,0.0,0.0,0.0,0.0,0.0,0.0,0.0,0.0,0.0,0.0,0.0,0.0,0.0,0.0,0.0,0.0,0.0,0.0,0.0,0.0,0.0,0.0,0.0,0.0,0.0,0.0,0.0,0.0,0.0,0.0,0.0,0.0,0.0,0.0,0.0,0.0,0.0,0.0,0.0,0.0,0.0,0.0,0.0,0.0,0.0,0.0,0.0,0.0,0.0,0.0,0.0,0.0,0.0,0.0,0.0,0.0,0.0,0.0,0.0,0.0,0.0,0.0,0.0,0.0,0.0,0.0,0.0,0.0,0.0,0.0,0.0,0.0,0.0,0.0,0.0,0.0,0.0,0.0,0.0,0.0,0.0,1.8592,1.8175,1.7909,1.7988,1.8095,1.8149,1.7988,1.7988,1.8121,0.0,0.0,0.0,0.0,0.0,0.0,0.0,0.0,0.0,0.0,0.0,0.0,0.0,0.0,0.0,0.0,0.0,0.0,0.0,0.0,0.0,0.0,0.0,0.0,0.0,0.0,0.0,0.0,0.0,0.0,0.0,0.0,0.0,0.0,0.0,0.0,0.0,0.0,0.0,0.0,0.0,0.0,0.0,0.0,0.0,0.0,0.0,0.0,0.0,0.0,0.0,0.0,0.0,0.0,0.0,0.0,0.0,0.0,0.0,0.0,0.0,0.0,0.0,0.0,0.0,0.0,0.0,0.0,0.0,0.0,0.0,0.0,0.0,0.0,0.0,0.0,0.0,0.0,0.0,0.0,0.0,0.0,0.0,0.0,0.0,0.0,0.0,0.0,0.0,0.0,0.0,0.0,0.0,0.0,0.0,0.0,0.0,0.0,0.0,0.0,0.0,0.0,0.0,1.8574,1.7816,1.7499,1.8054,1.8095,1.8095,1.8149,1.8149,1.8189,1.8282,0.0,0.0,0.0,0.0,0.0,0.0,0.0,0.0,0.0,0.0,0.0,0.0,0.0,0.0,0.0,0.0,0.0,0.0,0.0,0.0,0.0,0.0,0.0,0.0,0.0,0.0,0.0,0.0,0.0,0.0,0.0,0.0,0.0,0.0,0.0,0.0,0.0,0.0,0.0,0.0,0.0,0.0,0.0,0.0,0.0,0.0,0.0,0.0,0.0,0.0,0.0,0.0,0.0,0.0,0.0,0.0,0.0,0.0,0.0,0.0,0.0,0.0,0.0,0.0,0.0,0.0,0.0,0.0,0.0,0.0,0.0,0.0,0.0,0.0,0.0,0.0,0.0,0.0,0.0,0.0,0.0,0.0,0.0,0.0,0.0,0.0,0.0,0.0,0.0,0.0,0.0,0.0,0.0,0.0,0.0,0.0,0.0,0.0,0.0,0.0,0.0,0.0,1.8664,1.7988,1.7632,1.8054,1.8042,1.8042,1.8202,1.8149,1.8189,1.8321,0.0,0.0,0.0,0.0,0.0,0.0,0.0,0.0,0.0,0.0,0.0,0.0,0.0,0.0,0.0,0.0,0.0,0.0,0.0,0.0,0.0,0.0,0.0,0.0,0.0,0.0,0.0,0.0,0.0,0.0,0.0,0.0,0.0,0.0,0.0,0.0,0.0,0.0,0.0,0.0,0.0,0.0,0.0,0.0,0.0,0.0,0.0,0.0,0.0,0.0,0.0,0.0,0.0,0.0,0.0,0.0,0.0,0.0,0.0,0.0,0.0,0.0,0.0,0.0,0.0,0.0,0.0,0.0,0.0,0.0,0.0,0.0,0.0,0.0,0.0,0.0,0.0,0.0,0.0,0.0,0.0,0.0,0.0,0.0,0.0,0.0,0.0,0.0,0.0,0.0,0.0,0.0,0.0,0.0,0.0,0.0,0.0,0.0,0.0,0.0,0.0,0.0,1.8822,1.8464,1.8135,1.7988,1.7988,1.8055,1.8202,1.8095,1.8161,1.8478,0.0,0.0,0.0,0.0,0.0,0.0,0.0,0.0,0.0,0.0,0.0,0.0,0.0,0.0,0.0,0.0,0.0,0.0,0.0,0.0,0.0,0.0,0.0,0.0,0.0,0.0,0.0,0.0,0.0,0.0,0.0,0.0,0.0,0.0,0.0,0.0,0.0,0.0,0.0,0.0,0.0,0.0,0.0,0.0,0.0,0.0,0.0,0.0,0.0,0.0,0.0,0.0,0.0,0.0,0.0,0.0,0.0,0.0,0.0,0.0,1.9706,0.0,0.0,0.0,0.0,0.0,0.0,0.0,0.0,0.0,0.0,0.0,0.0,0.0,0.0,0.0,0.0,0.0,0.0,0.0,0.0,0.0,0.0,0.0,0.0,0.0,0.0,0.0,0.0,0.0,0.0,0.0,0.0,0.0,0.0,0.0,0.0,0.0,0.0,0.0,0.0,0.0,1.8784,1.8358,1.8042,1.7988,1.8095,1.8149,1.8202,1.8149,1.8214,1.8319,1.8254,0.0,0.0,0.0,0.0,0.0,0.0,0.0,0.0,0.0,0.0,0.0,0.0,0.0,0.0,0.0,0.0,0.0,0.0,0.0,0.0,0.0,0.0,0.0,0.0,0.0,0.0,0.0,0.0,0.0,0.0,0.0,0.0,0.0,0.0,0.0,0.0,0.0,0.0,0.0,0.0,0.0,0.0,0.0,0.0,0.0,0.0,0.0,0.0,0.0,0.0,0.0,0.0,0.0,0.0,0.0,0.0,0.0,0.0,0.0,0.0,2.055,0.0,0.0,0.0,0.0,0.0,0.0,0.0,0.0,0.0,0.0,0.0,0.0,0.0,0.0,0.0,0.0,0.0,0.0,0.0,0.0,0.0,0.0,0.0,0.0,0.0,0.0,0.0,0.0,0.0,0.0,0.0,0.0,0.0,0.0,0.0,0.0,0.0,0.0,0.0,0.0,1.8683,1.8333,1.8095,1.8095,1.8149,1.8228,1.8254,1.8254,1.824,1.8305,1.8293,0.0,0.0,0.0,0.0,0.0,0.0,0.0,0.0,0.0,0.0,0.0,0.0,0.0,0.0,0.0,0.0,0.0,0.0,0.0,0.0,0.0,0.0,0.0,0.0,0.0,0.0,0.0,0.0,0.0,0.0,0.0,0.0,0.0,0.0,0.0,0.0,0.0,0.0,0.0,0.0,0.0,0.0,0.0,0.0,0.0,0.0,0.0,0.0,0.0,0.0,0.0,0.0,0.0,2.2965,2.3502,2.3871,2.4676,2.5254,2.5512,2.3116,2.1828,2.1367,2.1318,0.0,0.0,0.0,0.0,0.0,0.0,0.0,0.0,0.0,0.0,0.0,0.0,0.0,0.0,0.0,0.0,0.0,0.0,0.0,0.0,0.0,0.0,0.0,0.0,2.0118,2.0257,1.9684,0.0,0.0,0.0,0.0,0.0,0.0,0.0,0.0,0.0,0.0,0.0,1.8658,1.8474,1.8354,1.8314,1.8354,1.8339,1.8319,1.8319,1.8319,1.8319,1.8305,1.8305,0.0,0.0,0.0,0.0,0.0,0.0,0.0,0.0,0.0,0.0,0.0,0.0,0.0,0.0,0.0,0.0,0.0,0.0,0.0,0.0,0.0,0.0,0.0,0.0,0.0,0.0,0.0,0.0,0.0,0.0,0.0,0.0,2.0162,2.0289,0.0,0.0,0.0,0.0,0.0,0.0,0.0,0.0,0.0,0.0,0.0,0.0,0.0,2.2493,2.3034,2.3745,2.3946,2.3695,2.4696,2.5216,2.5259,2.6008,2.6623,2.702,2.6604,0.0,2.4425,2.2971,0.0,0.0,0.0,0.0,0.0,0.0,0.0,0.0,0.0,0.0,0.0,0.0,0.0,0.0,0.0,0.0,0.0,0.0,0.0,0.0,0.0,0.0,2.0837,2.0747,2.1172,2.1558,0.0,2.1067,2.0676,2.0497,2.0676,0.0,0.0,0.0,0.0,0.0,0.0,0.0,1.9207,1.9114,1.8948,1.881,1.8976,1.8877,1.8361,1.8411,1.8464,1.8464,1.8358,1.8358,1.8478,1.8489,0.0,0.0,0.0,0.0,0.0,0.0,0.0,0.0,0.0,0.0,0.0,0.0,0.0,0.0,0.0,0.0,0.0,0.0,0.0,0.0,0.0,0.0,0.0,0.0,0.0,0.0,0.0,0.0,0.0,2.0558,2.065,2.035,2.0558,2.0635,0.0,0.0,0.0,0.0,0.0,0.0,0.0,0.0,0.0,2.3443,2.3923,2.4533,2.5254,2.5602,2.5981,2.6426,2.7273,2.7825,2.8138,2.8844,2.9442,2.9803,2.96,2.9195,2.8512,2.5322,2.3531,2.2717,0.0,0.0,0.0,0.0,2.23,2.2653,2.279,2.279,2.2753,2.2774,0.0,0.0,0.0,0.0,0.0,0.0,0.0,2.1662,0.0,0.0,2.2491,2.2273,2.2831,2.3363,2.3024,2.2775,2.2207,0.0,2.0923,2.0855,2.0328,0.0,0.0,0.0,0.0,1.9041,1.9183,1.9142,1.91,1.9058,1.8919,1.8679,1.8439,1.8478,1.8517,1.8517,1.8358,1.8358,1.8478,1.845,1.8592,0.0,0.0,0.0,0.0,0.0,0.0,0.0,0.0,0.0,0.0,0.0,0.0,0.0,0.0,0.0,0.0,0.0,0.0,0.0,0.0,0.0,0.0,0.0,0.0,0.0,0.0,0.0,0.0,2.0921,2.11,2.0362,2.1054,2.1292,0.0,0.0,0.0,0.0,0.0,0.0,2.2995,2.3803,2.4757,2.592,2.6236,2.6708,2.7468,2.7621,2.8102,2.8955,2.9756,3.0299,3.0654,3.1372,3.1887,3.2069,3.1763,3.1688,3.1453,2.7654,2.5497,2.4519,2.4038,2.3673,2.3588,2.4046,2.4382,2.4646,2.4881,2.4891,2.4732,2.4235,2.3973,2.3658,2.2673,0.0,0.0,0.0,0.0,2.3407,2.3601,2.397,2.4254,2.396,2.4595,2.5185,2.4741,2.4404,2.3717,0.0,2.1539,2.1172,2.0831,0.0,0.0,0.0,0.0,1.9517,1.9499,1.9513,1.9513,1.9556,1.928,1.8972,1.8691,1.8677,1.8647,1.8531,1.8411,1.8411,1.8517,1.8411,1.8411,1.8581,0.0,0.0,0.0,0.0,0.0,0.0,0.0,0.0,0.0,0.0,0.0,0.0,0.0,0.0,0.0,0.0,0.0,0.0,0.0,0.0,0.0,0.0,0.0,0.0,0.0,0.0,0.0,0.0,0.0,2.0424,2.1782,0.0,0.0,0.0,0.0,2.3212,2.4306,2.5077,2.525,2.6081,2.682,2.7376,2.8441,2.9309,2.9924,3.0397,3.0701,3.077,3.1582,3.1957,3.2013,3.2863,3.3087,3.2946,3.2904,3.2584,3.1887,2.9794,2.854,2.791,2.6798,2.6218,2.6044,2.6073,2.6432,2.6917,2.6945,2.6953,2.713,2.8065,2.7933,2.73,2.6609,2.6057,0.0,0.0,2.4933,2.5183,2.4431,2.4995,2.5809,2.5751,2.6253,2.6668,2.664,2.5778,2.4761,0.0,2.2906,2.1984,2.1868,0.0,2.0329,2.0271,2.0,1.9987,2.0548,2.063,2.063,2.063,2.0603,2.0213,1.9239,1.9169,1.8974,1.852,1.8478,1.8478,1.8517,1.8478,1.8581,1.8784,1.8784,0.0,0.0,0.0,0.0,0.0,0.0,0.0,0.0,0.0,0.0,0.0,0.0,0.0,0.0,0.0,0.0,0.0,0.0,0.0,0.0,0.0,0.0,0.0,0.0,0.0,0.0,0.0,0.0,2.2945,2.4356,0.0,2.5455,2.4967,2.5014,2.5901,2.6111,2.6679,2.7782,2.8469,2.9405,3.062,3.1044,3.1576,3.2123,3.2332,3.2444,3.2444,3.2737,3.2681,3.2315,3.2621,3.2489,3.2028,3.2028,3.1906,3.1663,3.0936,3.0033,2.8955,2.8396,2.7908,2.7585,2.8154,2.8691,2.919,2.9331,2.9364,2.9315,2.8584,2.7422,2.6308,2.646,2.6176,2.5816,2.5844,2.6018,2.6218,2.6462,2.7087,2.7528,2.7149,2.7813,2.8315,2.7556,2.7054,2.6565,2.5968,2.4204,2.2782,2.2654,2.2138,2.1738,2.1712,2.1623,2.1609,2.1827,2.15,2.1287,2.1287,2.0649,2.0106,1.9765,1.9723,1.9516,1.8974,1.8946,1.8819,1.8492,1.8517,1.8517,1.862,1.8976,1.9223,0.0,0.0,0.0,0.0,0.0,0.0,0.0,0.0,0.0,0.0,0.0,0.0,0.0,0.0,0.0,0.0,0.0,0.0,0.0,0.0,0.0,0.0,0.0,0.0,0.0,0.0,2.4447,2.4964,2.6519,2.7649,2.7771,2.7565,2.7607,2.805,2.8494,2.9129,3.0015,3.0685,3.1545,3.2665,3.2707,3.2918,3.3326,3.31,3.31,3.3326,3.3086,3.2803,3.2417,3.2417,3.2042,3.1516,3.1516,3.1516,3.1516,3.1516,3.0823,2.98,2.9849,2.9578,2.9305,2.9829,3.024,3.0528,3.0623,3.0569,3.0328,2.924,2.8038,2.7088,2.7351,2.7318,2.723,2.733,2.7461,2.7618,2.7996,2.8425,2.8612,2.8356,2.8771,2.9053,2.8414,2.799,2.7596,2.7203,2.5287,2.3663,2.338,2.2972,2.2682,2.2746,2.276,2.276,2.276,2.2392,2.2051,2.1847,2.1205,2.0607,2.0254,2.0257,2.0009,1.9488,1.9488,1.935,1.9028,1.9014,1.9014,1.9014,1.9041,1.9565,2.0683,0.0,0.0,0.0,0.0,0.0,0.0,0.0,0.0,0.0,0.0,0.0,0.0,0.0,0.0,0.0,0.0,0.0,0.0,0.0,0.0,0.0,0.0,0.0,2.3056,2.4222,2.5345,2.6288,2.818,2.902,2.794,2.9879,3.0768,2.9707,3.1526,3.2434,3.1917,3.267,3.3157,3.3297,3.3241,3.3241,3.3255,3.2717,3.2717,3.3255,3.2646,3.2359,3.2372,3.2372,3.2082,3.1495,3.1495,3.1495,3.1495,3.1468,3.1084,3.0633,3.1009,3.1097,3.0986,3.0986,3.0973,3.093,3.0756,3.0472,3.019,3.0171,3.0119,2.9915,2.9603,2.97,2.9847,2.9268,2.9318,2.9465,2.9022,2.8905,2.9048,2.9421,2.9069,2.8822,2.9416,2.8573,2.7759,2.7746,2.6188,2.4727,2.4231,2.3582,2.3137,2.3243,2.3256,0.0,2.3243,2.3229,2.2972,2.24,2.2319,2.1879,2.0803,2.074,2.0539,2.0067,2.0025,2.0025,1.9998,1.9998,2.0012,2.0025,1.8975,1.9404,2.1421,0.0,0.0,0.0,0.0,0.0,0.0,0.0,0.0,0.0,0.0,0.0,0.0,0.0,0.0,0.0,0.0,0.0,0.0,0.0,0.0,0.0,0.0,2.3815,2.3351,2.5807,2.7972,2.8915,3.0524,3.1948,3.3022,3.2062,3.2174,3.409,3.2883,3.2472,3.3493,3.3044,3.2821,3.2846,3.2431,3.2431,3.286,3.2273,3.2128,3.2431,3.2114,3.1978,3.1968,3.179,3.1629,3.1401,3.1401,3.1322,3.1217,3.0915,3.0658,3.0347,3.094,3.0996,3.0709,3.0898,3.0712,3.0315,2.9998,2.9786,2.9689,2.9714,2.9605,2.9508,2.9254,2.918,2.9073,2.8776,2.8699,2.8743,2.8626,2.9104,2.9437,2.9082,2.9872,3.0486,2.9792,2.9591,2.9348,2.8488,2.7596,2.6573,2.5472,2.5383,2.5275,2.4485,2.4714,2.4835,2.4515,2.4137,2.3648,2.3051,2.2576,2.1993,2.1295,2.1227,2.1015,2.0553,2.0525,2.0364,2.0012,1.9998,2.0205,2.0633,2.0595,2.108,0.0,0.0,0.0,0.0,0.0,0.0,0.0,0.0,0.0,0.0,0.0,0.0,0.0,0.0,0.0,0.0,0.0,0.0,0.0,0.0,0.0,0.0,2.5171,2.6292,2.6244,2.7897,2.9628,3.1033,3.2105,3.3172,3.4275,3.3465,3.3255,3.4213,3.317,3.2668,3.2997,3.2681,3.254,3.27,3.2347,3.2287,3.2568,3.1977,3.1708,3.1823,3.1502,3.1316,3.1291,3.1215,3.1009,3.0721,3.0721,3.0641,3.0548,3.0315,3.0177,0.0,0.0,0.0,0.0,0.0,3.0226,2.9792,2.9606,2.943,2.9356,2.9356,2.9282,2.9244,2.8988,2.8944,2.8861,2.8695,2.8931,2.9206,2.8842,2.9314,2.9757,2.9164,2.9663,3.005,2.948,2.9336,2.9106,2.8304,2.7851,0.0,2.606,2.6302,2.6385,2.5756,2.5886,2.5945,2.5453,2.5073,2.4488,2.3541,2.2894,2.2237,2.1496,2.1327,0.0,0.0,0.0,2.0792,2.0452,2.0286,0.0,0.0,0.0,2.1266,2.1636,2.1846,0.0,0.0,2.3054,2.3342,0.0,0.0,0.0,0.0,0.0,0.0,0.0,0.0,0.0,0.0,0.0,0.0,0.0,0.0,0.0,0.0,2.7555,2.942,3.0429,3.0336,3.0876,3.2723,3.3182,3.3309,3.3367,3.4068,3.3824,3.2209,3.2806,3.2758,3.154,0.0,0.0,0.0,0.0,3.2471,3.2253,3.1707,3.1433,3.1368,3.0898,3.0674,3.0738,3.0738,3.0522,3.0234,3.0171,3.0068,3.0055,2.993,2.9842,2.9792,2.9792,2.9792,2.9779,2.9716,2.9512,2.9319,2.9257,0.0,0.0,2.9123,2.9081,2.911,2.8771,2.8892,2.911,2.8936,2.9505,2.9986,2.9303,2.9525,2.9757,2.9423,2.9052,2.8779,2.8944,2.8627,2.8166,2.7756,2.76,2.7298,2.6398,2.6601,2.6789,2.6593,2.6627,2.6412,2.5851,2.5716,2.5158,2.3723,2.3043,0.0,2.1459,2.1139,2.0822,2.061,2.1068,2.118,2.0983,2.0723,2.0649,2.0714,2.0714,2.074,2.0806,2.1143,2.1291,2.1278,2.2356,2.2875,0.0,0.0,0.0,0.0,0.0,0.0,0.0,0.0,0.0,0.0,0.0,0.0,0.0,0.0,0.0,2.7754,2.954,3.1179,3.2704,3.3256,3.3522,3.3456,3.3652,3.3936,3.4264,3.3254,3.2961,3.3799,3.2671,3.2098,3.2235,3.2186,3.2027,3.1803,3.1421,3.1293,3.1519,3.1357,3.1061,3.0583,0.0,0.0,3.1819,3.1647,3.2051,3.288,3.2282,3.1915,3.1675,3.0809,3.0193,2.9792,2.9792,2.9792,2.9729,2.9264,2.9013,2.8938,2.8499,2.8637,2.8937,2.8937,2.9148,2.9328,2.9294,2.9188,0.0,2.9086,2.9123,2.9081,2.8905,2.8946,2.8978,2.8913,2.9565,3.0041,2.9615,2.9725,2.9607,2.8776,2.8226,2.7747,2.7324,2.7063,2.6608,2.5422,2.5484,2.5402,2.4892,2.4649,2.3971,2.2771,2.2535,2.2036,2.0871,2.0725,2.0673,2.061,2.0709,2.0709,2.0673,2.061,2.0882,2.1483,2.138,2.1616,2.2128,2.1874,2.1766,2.1753,2.1888,2.2211,0.0,0.0,0.0,0.0,0.0,0.0,0.0,0.0,0.0,0.0,0.0,2.4403,0.0,0.0,2.8234,3.0285,3.1723,3.3087,3.4149,3.4617,3.4502,3.3834,3.3846,3.3842,3.3634,3.2853,3.2448,3.2744,3.2011,3.1557,3.1632,3.1557,3.1557,3.1557,3.1306,3.1383,3.1694,3.137,3.1201,3.1279,3.1201,3.1509,3.206,3.1979,3.2273,3.2854,3.2434,3.199,3.1498,3.0532,3.0043,2.9792,2.9792,2.9792,2.9754,2.9465,2.9365,2.9315,2.9051,2.9126,2.9365,2.9365,2.9464,2.9599,2.9599,2.9534,2.9456,2.9456,2.9586,2.9564,2.9096,2.9238,2.929,2.8737,2.9089,2.9353,2.8747,2.8768,2.866,2.7844,2.7462,2.7169,2.6914,2.6726,2.6455,2.6138,2.5948,2.564,2.5135,2.4749,2.4132,2.3088,2.2752,2.2282,2.154,2.1232,2.1055,2.1029,2.1069,2.1131,2.1237,2.1171,2.13,2.1703,2.1729,2.1872,2.2076,2.1869,2.1827,2.1814,2.1721,2.2005,0.0,0.0,0.0,0.0,0.0,0.0,0.0,0.0,2.4124,2.4955,2.5894,2.7038,2.8713,2.9722,3.0825,3.2489,3.3629,3.4558,3.5002,3.5103,3.4767,3.3856,3.3829,3.3528,3.2763,3.2566,3.2147,3.1485,3.1513,3.1345,3.0955,3.1213,3.1447,3.1539,3.1681,3.1885,3.2166,3.1793,3.178,3.2114,3.178,3.1845,3.2362,3.2362,3.2426,3.2529,3.2184,3.1601,3.0808,3.0209,2.9892,2.9792,2.9792,2.9792,2.9792,2.9792,2.9792,2.9792,2.9792,2.9792,2.9792,2.9792,2.9792,2.9792,2.9792,2.9792,2.9792,2.9792,3.005,3.0215,2.9429,2.9514,2.9638,2.8836,2.862,2.8496,2.7926,2.7753,2.7619,2.6989,2.6784,2.6614,2.6445,2.6275,2.6396,2.6905,2.6383,2.5858,2.5345,2.4903,2.427,2.3467,2.2936,2.256,2.2159,2.1744,2.1513,2.1496,2.1517,2.1605,2.1839,2.1759,2.1754,2.1868,2.2048,2.2099,2.2076,2.2033,2.2033,2.2076,2.2076,2.2236,1.965,1.9615,0.0,2.1712,2.2134,2.2847,0.0,0.0,2.6315,2.7516,2.8363,2.9192,3.0209,3.1475,3.2701,3.3827,3.453,3.5015,3.5062,3.5114,3.4669,3.3454,3.3571,3.3591,3.3183,3.2504,3.2102,3.2303,3.198,3.1733,3.168,3.2473,3.2603,3.1798,3.2417,3.2658,3.2393,3.282,3.2726,3.2127,3.2739,3.3079,3.3131,3.3131,3.3485,3.4092,3.3173,3.1958,3.0608,3.0545,3.0231,2.9792,2.9792,2.9792,2.9792,2.9792,2.9792,2.9792,2.9792,2.9792,2.9792,2.9792,2.9792,2.9792,2.9792,2.9792,2.9792,2.9792,2.9677,2.9471,2.9422,2.9266,2.9188,2.9032,2.9045,2.902,2.8971,2.879,2.8594,2.8374,2.7804,2.7335,2.721,2.6664,2.6131,2.6037,2.5294,2.4676,2.4613,2.3879,2.3072,2.2518,2.2405,2.2178,2.1619,2.1518,2.1524,2.1516,2.1511,2.1493,2.1549,2.1648,2.1944,2.2464,2.2534,2.2834,2.3377,2.3272,2.3272,2.3377,2.3377,2.3167,2.0028,0.0,0.0,0.0,2.4303,2.596,2.683,2.8134,2.9434,3.029,3.1277,3.2263,3.3252,3.3602,3.4077,0.0,3.4861,3.4779,3.5046,3.4452,3.3705,3.2807,3.2692,3.2615,3.2223,3.2249,3.2158,3.2071,3.2215,3.2333,3.2333,3.271,3.275,3.2346,3.2631,3.2849,3.306,3.3023,3.3099,3.3433,3.345,3.3662,3.3962,3.3962,3.4009,3.4204,3.3467,3.2705,3.1907,3.1099,3.0628,3.0388,2.9995,2.9792,2.9792,2.9792,2.9792,2.9792,2.9792,2.9792,2.9792,2.9792,2.9792,2.9792,2.9792,2.9792,2.9792,2.9792,2.9702,2.9599,2.9419,2.9341,2.9275,2.9131,2.9131,2.9045,2.8867,2.8716,2.8632,2.84,2.8039,2.7815,2.7795,2.7235,2.6801,2.6731,2.5716,2.483,2.4508,2.3991,2.3427,2.2849,2.2786,2.2573,2.202,2.2259,2.2309,2.1995,2.2272,2.2447,2.2447,2.2576,2.2807,2.3048,2.3237,2.3469,2.3628,2.3641,2.37,2.376,2.376,2.369,2.0388,0.0,0.0,2.3912,2.6461,2.8671,2.8677,3.0457,3.2235,3.2747,3.3546,3.4341,3.4899,3.4749,3.4606,3.5035,3.4713,3.4439,3.4457,3.3718,3.2963,3.2251,3.1988,3.177,3.1358,3.1824,3.2123,3.2019,3.245,3.2764,3.2934,3.3077,3.3091,3.2947,3.3091,3.3378,3.3809,3.3378,3.3574,3.4397,3.4005,3.4018,3.4397,3.4397,3.4314,3.405,3.3731,3.3282,3.2816,3.1847,3.1258,3.0874,3.0325,2.9995,2.9792,2.9792,2.9792,2.9792,2.9792,2.9792,2.9792,2.9792,2.9792,2.9792,2.9792,2.9792,2.9792,2.9792,2.9792,2.9792,2.9599,2.9509,2.9431,2.93,2.93,2.9266,2.9011,2.8835,2.8786,2.8562,2.8362,2.8262,2.8335,2.7871,2.7457,2.7306,2.6534,2.569,2.4912,2.4355,2.3841,2.3414,2.3226,2.2915,2.2573,2.2912,2.2902,2.2573,2.2912,2.3078,2.3078,2.3271,2.3403,2.333,2.3582,2.37,2.3569,2.37,2.3832,2.3891,2.3949,2.4008,0.0,0.0,2.3265,2.6021,2.8101,2.9969,3.1714,3.3149,3.42,3.463,3.4746,3.463,3.4046,3.4206,3.4258,3.3552,3.4018,3.4113,3.2909,3.306,3.282,3.1629,3.1487,3.1422,0.0,3.1305,3.1863,3.262,3.2685,3.2947,3.3535,3.4058,3.411,3.3587,3.4071,3.4358,3.4371,3.4358,3.4358,3.4397,3.4384,3.4384,3.4397,3.4397,3.4314,3.4076,3.4063,3.3643,3.288,3.2841,3.2026,3.0912,3.0887,3.0413,2.9792,2.9792,2.9792,2.9792,2.9792,2.9792,2.9792,2.9792,2.9792,2.9792,2.9792,2.9792,2.9792,2.9792,2.9792,2.9792,2.9792,2.9792,2.9792,2.9792,2.9792,2.9792,2.9767,2.9574,2.9471,2.9741,2.9124,2.8662,2.8825,2.8448,2.7896,2.7369,2.741,2.705,2.5711,2.4657,2.3991,2.3966,2.3477,2.3065,2.3053,2.3065,2.3065,2.3053,2.3065,2.3078,2.3078,2.3271,2.333,2.3138,2.333,2.3403,2.3403,2.3509,2.37,2.3891,2.4008,2.4112,2.2773,0.0,2.6424,2.8996,3.1003,3.2614,3.3926,3.4926,3.556,3.4995,3.4299,3.3403,3.2374,3.1787,3.151,3.1783,3.2117,3.2411,3.2659,3.2212,3.1654,3.0971,3.097,0.0,0.0,0.0,0.0,3.2646,3.3064,3.3535,3.4097,3.4293,3.4319,3.4136,3.4306,3.4397,3.4397,3.4397,3.4397,3.4397,3.4397,3.4397,3.4397,3.4243,3.4243,3.4314,3.416,3.4043,3.3796,3.2787,3.2316,3.2171,3.1124,3.0788,3.0809,3.047,3.0331,3.0281,2.9917,2.9792,2.9792,2.9792,2.9792,2.9792,2.9792,2.9792,2.9792,2.9792,2.9792,2.9792,2.9792,2.9792,2.9792,2.9792,2.9792,2.9792,2.9792,2.9702,2.9689,2.9792,2.9705,2.9631,2.9707,2.9239,2.8556,2.7645,2.6942,2.632,2.5861,2.5165,2.452,2.4029,2.4155,2.3891,2.314,2.3766,2.4104,2.3728,2.4054,2.4092,2.3715,2.3777,2.3601,2.3078,2.3271,2.3463,2.3509,2.37,2.3891,2.4008,2.4054,2.4112,2.4869,2.6642,2.8344,3.1113,3.3008,3.4275,3.4946,3.5575,3.5526,3.3975,3.2856,3.166,2.998,2.928,2.9013,2.924,2.9705,3.028,3.0838,3.0803,3.0611,3.0444,3.0777,3.0927,0.0,0.0,0.0,3.2385,3.2854,3.344,3.3905,3.4321,3.4523,3.4327,3.4607,3.462,3.4397,3.4397,3.4397,3.4397,3.4397,3.4397,3.4397,3.4243,3.4314,3.4397,3.4243,3.4314,3.4332,3.3355,3.2985,3.298,3.1949,3.1597,3.1567,3.0956,3.0687,3.0612,2.998,2.9792,2.9792,2.9792,2.9792,2.9792,2.9792,2.9792,2.9792,2.9792,2.9792,2.9792,2.9792,2.9792,2.9792,2.9792,2.9792,2.9792,2.9792,2.9792,2.9792,2.9792,2.9856,3.0011,3.0075,2.9593,2.8971,2.8359,2.7278,2.6477,2.6206,2.5699,2.5152,2.4607,2.472,2.4531,2.3803,2.4406,2.4669,2.4318,2.4619,2.4669,2.4305,2.4293,2.4017,2.3452,2.3573,2.3533,2.3437,2.37,2.3922,2.4116,2.4099,2.4171,2.6739,2.7965,2.9089,3.2315,3.3929,3.4844,3.4744,3.4918,3.4258,3.1459,3.0585,2.9473,0.0,0.0,2.6814,2.6211,2.7152,2.7906,2.7787,2.8941,2.9841,0.0,0.0,0.0,0.0,0.0,0.0,3.1889,0.0,3.2691,3.3299,3.4322,3.4645,3.414,3.4888,3.4972,3.441,3.4397,3.4397,3.4397,3.4397,3.4397,3.4397,3.4288,3.4371,3.4397,3.4249,3.4236,3.4262,3.4236,3.3827,3.3183,3.3183,3.2684,3.197,3.1194,3.0912,3.0823,3.0058,2.9792,2.9792,2.9792,2.9792,2.9792,2.9792,2.9792,2.9792,2.9792,2.9792,2.9792,2.9792,2.9792,2.9792,2.9792,2.9792,2.9792,2.9792,2.9792,2.9792,2.9792,2.9792,2.9869,3.0075,2.9618,2.9312,2.9461,2.8574,2.7582,2.6828,2.627,2.5848,2.5598,2.5184,2.4883,2.4833,2.487,2.4895,2.4858,2.4895,2.4883,2.482,2.4845,2.4594,2.4004,2.4004,2.374,2.3226,2.3501,2.3841,2.4253,2.4188,2.4359,2.8079,2.9882,3.148,3.281,3.3406,3.3506,3.3239,3.245,3.1129,2.905,2.6981,2.4963,0.0,0.0,0.0,2.4451,2.6095,0.0,2.8825,2.9123,0.0,3.0044,0.0,3.083,3.1439,3.188,0.0,0.0,3.3206,3.3632,3.4438,3.436,3.4523,3.4979,3.4621,3.4386,3.4397,3.4397,3.4397,3.4397,3.4397,3.4314,3.4147,3.329,3.3328,3.4108,3.2319,3.2097,3.3034,3.2459,3.1795,3.1257,3.1574,3.1512,3.1254,3.0487,3.0515,3.0823,3.0058,2.9792,2.9792,2.9792,2.9792,2.9792,2.9792,2.9792,2.9792,2.9792,2.9792,2.9792,2.9792,2.9792,2.9792,2.9792,2.9792,2.9792,2.9792,2.9792,2.9792,2.9792,2.9934,3.0075,3.0292,3.0101,2.9796,2.9525,2.8908,2.8183,2.7437,2.7016,2.6426,2.5715,2.5862,2.5711,2.4895,2.5573,2.585,2.5423,2.5799,2.5674,2.4858,2.5197,2.4958,2.4017,2.4004,2.4192,2.4507,2.4215,2.4366,2.5013,2.4709,2.4761,2.953,3.077,3.1786,3.2702,3.2901,3.2484,3.1272,3.0253,2.8657,2.5615,2.3742,0.0,2.05,0.0,0.0,0.0,0.0,0.0,2.7521,2.8174,2.8786,0.0,3.0195,0.0,3.1185,3.173,3.221,0.0,3.281,3.3277,3.4075,3.3792,3.3705,3.4028,3.3734,3.3411,3.3173,3.316,3.316,3.316,3.316,3.3091,3.2912,3.2263,3.2275,3.2695,0.0,3.1208,3.1883,3.1499,3.1128,3.0976,3.1153,3.1248,3.1185,3.0325,3.0196,3.0336,2.9497,2.9234,2.9312,2.9714,2.9792,2.9792,2.9792,2.9792,2.9792,2.9792,2.9792,2.9792,2.9792,2.9792,2.9792,2.9792,2.9792,2.9792,2.9792,2.9792,2.9792,2.9792,2.9934,3.0152,3.0216,3.0152,3.005,2.9808,2.9259,2.8702,2.8205,2.7742,2.7152,2.616,2.6683,2.6752,2.581,2.6384,2.6599,2.627,2.6561,2.646,2.5772,2.5946,2.5706,2.4861,2.4771,2.4796,2.4936,2.4684,2.4874,2.5446,2.5102,2.5062,3.076,3.1076,3.1156,3.2022,3.2071,3.1235,2.893,2.7803,2.6126,2.2031,0.0,2.0182,1.8672,1.9393,2.0474,2.1142,0.0,2.4285,2.563,2.6858,2.8032,2.9006,3.0138,3.0741,3.0648,3.1553,3.1981,3.1442,3.1858,3.2311,3.2946,3.2843,3.2665,3.2363,3.2612,3.2336,3.165,3.1574,3.1524,3.1524,3.1543,3.1505,3.1424,3.1348,3.1173,3.1116,3.0815,3.079,3.0934,3.0934,3.1004,3.1048,3.1217,3.1192,3.1066,3.0165,2.9819,2.9757,2.8826,2.851,2.8669,2.939,2.9636,2.9636,2.9636,2.9636,2.9636,2.9636,2.9636,2.9636,2.9714,2.9714,2.9714,2.9792,2.9792,2.9792,2.9792,2.9792,2.9792,2.9792,2.9934,3.0075,3.0075,3.0075,3.0075,3.0075,2.958,2.9138,2.8925,2.8469,2.7811,2.6891,2.7423,2.7626,2.6994,2.6943,2.7024,2.7024,2.7024,2.6985,2.6909,2.6824,2.646,2.5968,2.5744,2.5476,2.5034,2.5088,2.5315,2.5699,2.5485,2.5409,3.1149,3.1452,3.1368,3.0766,2.9801,2.8551,2.6423,2.4143,0.0,0.0,1.8521,1.7542,1.6883,1.7684,1.9033,2.1052,0.0,0.0,0.0,0.0,2.7758,0.0,0.0,0.0,0.0,0.0,0.0,0.0,0.0,3.1922,3.2824,3.2418,3.2174,3.2077,3.2326,3.2315,3.213,3.194,3.1801,3.1801,3.1637,3.1342,3.1153,3.038,3.0417,3.1021,2.9241,0.0,2.9927,2.9927,2.9346,2.8593,2.9594,2.9738,2.923,2.8918,2.9108,2.9465,2.8907,2.8724,2.8724,2.8749,2.8749,2.8749,2.8749,2.8749,2.8749,2.8749,2.8749,2.8828,2.9143,2.9209,2.93,2.9714,2.9792,2.9792,2.9792,2.9792,2.9792,2.9792,2.9869,2.9856,3.0075,2.9934,2.9934,3.0075,2.958,2.9138,2.8925,2.8594,2.8058,2.7276,2.7455,2.743,2.6777,2.6875,2.7024,2.7024,2.7024,2.6806,2.6345,2.67,2.6688,2.6191,2.5955,2.6,2.6367,2.5753,2.5816,2.637,2.5937,2.5803,3.0471,3.0671,3.0496,2.9804,2.8806,2.7298,2.4376,0.0,0.0,0.0,1.6878,1.6438,1.6324,0.0,0.0,0.0,0.0,0.0,0.0,0.0,0.0,0.0,0.0,0.0,0.0,0.0,0.0,0.0,0.0,3.1057,3.2382,3.1596,3.0958,3.0683,3.0725,3.0652,3.0568,3.0297,3.0162,3.0348,3.0082,2.9837,2.9744,2.9246,2.927,2.9557,2.8486,2.8414,2.8883,2.8883,2.8659,2.8307,2.8879,2.8887,2.8657,2.8419,2.8498,2.8724,2.8419,2.8247,2.8087,2.8007,2.8179,2.851,2.851,2.851,2.851,2.851,2.8669,2.8895,2.9052,2.93,2.9546,2.9714,2.9792,2.9792,2.9792,2.9792,2.9792,2.9792,2.9792,2.9869,2.9934,2.9869,2.9869,2.9934,2.9694,2.9517,2.9517,2.9303,2.8823,2.7965,2.8163,2.8075,2.7485,2.7314,2.7268,2.7268,2.7268,2.7152,2.688,2.7072,2.7018,2.6747,2.6455,2.6447,2.6714,2.6244,2.6105,2.6148,2.607,2.5767,2.9869,2.9777,2.9445,2.8935,2.7882,2.61,2.2893,2.1008,0.0,0.0,1.5913,1.6044,1.62,0.0,1.7927,0.0,0.0,0.0,0.0,0.0,0.0,0.0,0.0,0.0,0.0,0.0,0.0,0.0,0.0,0.0,3.143,3.0649,2.9921,2.9523,2.9461,2.9379,2.9211,2.8845,2.8819,2.8964,2.8662,2.851,2.851,2.851,2.8431,2.8259,2.8259,2.8259,2.8259,2.8259,2.8351,2.851,2.851,2.851,2.851,2.8339,2.8259,2.8259,2.803,2.7788,2.7603,2.7522,2.7857,2.8191,2.8191,2.8191,2.8191,2.8191,2.8419,2.8736,2.8816,2.9155,2.9506,2.9786,2.9889,2.9967,2.9967,2.988,2.9792,2.9792,2.9792,2.9792,2.9792,2.9792,2.9792,2.9792,2.9792,2.9869,3.0011,2.9856,2.9542,2.8809,2.8899,2.8795,2.8215,2.7773,2.7572,2.7652,2.7535,2.7469,2.7523,2.7403,2.7335,2.7335,2.6985,2.6794,2.6794,2.6589,2.6299,2.5889,2.6008,2.5653,3.0275,2.976,2.874,2.8425,2.6322,2.3818,2.2174,0.0,0.0,1.6218,1.5988,1.6044,1.62,1.6405,1.7182,0.0,0.0,2.0827,0.0,0.0,0.0,0.0,0.0,0.0,0.0,0.0,0.0,0.0,0.0,0.0,2.9691,2.9799,2.9788,2.9741,2.997,3.0099,3.0099,2.9601,2.9315,2.935,2.8748,2.851,2.851,2.851,2.851,2.851,2.851,2.851,0.0,2.851,2.851,2.851,2.851,2.851,2.851,2.851,2.851,2.8431,2.8259,2.803,2.78,2.7603,2.7452,2.7313,2.7313,2.7313,2.7313,2.7313,2.7313,2.7464,2.7881,2.8042,2.8402,2.9702,3.0226,3.0545,3.0545,3.0143,2.9792,2.9792,2.9792,2.9792,2.9792,2.9792,2.9792,2.9792,2.9792,2.9792,2.9869,2.9792,2.9754,2.9654,2.9378,2.8994,2.8388,2.8004,2.788,2.8045,2.7553,2.7403,2.7456,2.7456,2.7469,2.7469,2.7335,2.7146,2.6943,2.6794,2.6435,2.5889,2.6008,2.5653,2.7726,2.828,2.8153,2.6914,2.5219,2.3341,2.1411,0.0,1.7096,1.6089,1.5869,1.5969,1.6156,1.6231,1.6715,1.8072,0.0,0.0,0.0,0.0,0.0,0.0,0.0,0.0,0.0,0.0,0.0,0.0,0.0,0.0,2.9394,2.9642,2.9811,2.9811,2.9729,2.9695,2.9695,2.9472,2.9444,2.9432,2.8929,2.8736,2.8724,2.8575,2.851,2.851,2.851,2.851,0.0,2.851,2.851,2.851,2.851,2.851,2.851,2.851,2.851,2.851,2.8259,2.8111,2.7881,2.7615,2.7371,2.7231,2.7231,2.7231,2.7231,2.7231,2.7394,2.7638,2.7881,2.8042,2.8411,2.8947,2.9801,3.0269,2.9774,3.0115,3.0337,2.9854,2.9792,2.9792,2.9792,2.9792,2.9792,2.9792,2.9792,2.9869,2.9934,2.9869,2.9869,2.9934,2.9479,2.9124,2.8908,2.8201,2.7818,2.7888,2.7511,2.7335,2.7403,2.7469,2.7523,2.7523,2.7403,2.7268,2.7214,2.7011,2.6537,2.5833,2.596,2.5707,2.5159,2.6543,2.7254,2.5667,2.4173,2.2573,0.0,0.0,1.68,1.5972,1.5792,1.5881,1.6156,1.62,1.6522,1.7468,0.0,1.8324,2.0686,0.0,0.0,0.0,0.0,0.0,0.0,0.0,0.0,0.0,0.0,0.0,2.9507,2.9712,2.9741,2.9689,2.9589,2.95,2.9444,2.928,2.9294,2.9282,2.8905,2.8819,2.8807,2.8599,2.851,2.851,2.851,2.851,0.0,2.851,2.851,2.851,2.851,2.851,2.851,2.8419,2.8431,2.8339,2.8191,2.795,2.7788,2.7522,2.7371,2.7231,2.7231,2.7231,2.7231,2.7231,2.7476,2.7719,2.7719,2.8148,2.8566,2.8566,2.9338,2.9831,2.9279,2.9695,3.0074,2.9543,2.939,2.9468,2.9546,2.9624,2.9624,2.9792,2.9792,2.9869,3.0011,2.9869,2.9869,3.0011,2.9644,2.9391,2.9391,2.8591,2.8099,2.8017,2.7618,2.7369,2.7281,2.7403,2.7523,2.7523,2.7403,2.7335,2.7268,2.7146,2.6723,2.5946,2.6015,2.5805,2.3382,2.4752,2.5767,2.5003,2.3036,2.1093,0.0,0.0,1.6277,1.59,1.5792,1.5881,1.6156,1.62,1.6646,1.7969,1.8191,0.0,2.1081,0.0,0.0,0.0,0.0,0.0,0.0,0.0,0.0,0.0,0.0,0.0,2.9834,2.9811,2.9689,2.9382,2.9654,2.9666,2.9359,2.9071,2.8893,2.8881,2.8602,2.851,2.851,2.851,2.851,2.851,2.851,2.851,0.0,2.851,2.851,2.851,2.851,2.851,2.851,2.8259,2.8179,2.8179,2.7962,2.7708,2.7522,2.7522,2.7371,2.7231,2.7231,2.7231,2.7231,2.7231,2.7231,2.7231,2.7231,2.7905,2.8692,2.8692,2.901,2.9325,2.9325,2.8859,2.8522,2.851,2.851,2.8669,2.9052,2.9131,2.9287,2.9714,2.9792,2.9792,2.9792,2.9792,2.9792,2.9792,2.9792,2.9779,2.9779,2.9252,2.8761,2.8379,2.7997,2.7631,2.7294,2.7403,2.7523,2.7523,2.7523,2.7403,2.7268,2.7268,2.6984,2.6414,2.6149,2.5805,1.9683,2.0897,2.1598,2.0452,1.9635,1.896,1.809,0.0,1.6126,1.5855,1.5792,1.5836,1.6044,1.6044,1.6487,1.7721,1.7918,0.0,0.0,0.0,0.0,0.0,0.0,0.0,0.0,0.0,0.0,0.0,0.0,2.9846,2.9519,2.9724,2.9677,2.9371,2.95,2.9421,2.9059,2.9176,2.9165,2.8881,2.8797,2.8796,2.8796,2.8587,2.851,2.851,2.851,2.851,2.851,2.851,2.851,2.851,2.851,2.8431,2.8259,2.8259,2.8111,2.7962,2.7696,2.7603,2.7522,2.7522,2.7441,2.7452,2.7452,2.7301,2.7231,2.7231,2.7231,2.7231,2.7231,2.7428,2.7696,2.7696,2.8363,2.8939,2.8431,2.8838,2.9185,2.8582,2.851,2.851,2.8669,2.8669,2.8749,2.8907,2.8907,2.8986,2.93,2.93,2.9456,2.9792,2.9792,2.9792,2.9792,2.8913,2.8371,2.8439,2.7666,2.7259,2.7281,2.7403,2.7523,2.7523,2.7523,2.7469,2.7469,2.7469,2.717,2.6725,2.667,2.6337,0.0,1.8269,1.9219,1.8027,1.7627,0.0,0.0,0.0,1.5753,1.5763,1.5792,1.5836,1.6001,1.6044,1.6487,1.7673,1.7894,0.0,0.0,0.0,0.0,0.0,0.0,0.0,0.0,0.0,0.0,0.0,2.9355,2.9495,2.9246,2.9335,2.9362,2.9035,2.9117,2.9047,2.876,2.8929,2.8929,2.876,2.876,2.876,2.8736,2.8587,2.851,2.851,2.851,2.851,0.0,2.851,2.851,2.851,2.851,2.8431,2.8259,2.8111,2.8042,2.7881,2.7545,2.7371,2.7371,2.7371,2.7371,2.7371,2.7522,2.7371,2.7231,2.7231,2.7231,2.7231,2.7231,2.7231,2.7231,2.7231,2.7789,2.8175,2.7708,2.8209,2.8583,2.8089,2.803,2.803,2.8271,2.8271,2.8363,2.851,2.851,2.859,2.8828,2.8895,2.8986,2.9312,2.9114,2.8991,2.8991,2.8862,2.8724,2.8596,2.801,2.7536,2.7524,2.7507,2.7523,2.7523,2.7523,2.7523,2.7523,2.7523,2.7118,2.6424,2.6569,2.6166,0.0,0.0,0.0,0.0,0.0,0.0,0.0,0.0,0.0,0.0,0.0,1.5848,1.6037,1.6113,1.6601,1.7865,1.8039,0.0,0.0,0.0,0.0,0.0,0.0,0.0,0.0,0.0,0.0,2.9207,2.9362,2.9235,2.8858,2.8869,2.8807,2.8534,2.8736,2.876,2.851,2.851,2.851,2.851,2.851,2.851,2.851,2.851,2.851,0.0,2.851,2.851,2.851,2.851,2.851,2.851,2.851,2.851,2.8431,2.8042,2.7881,2.78,2.7394,2.7208,2.7174,2.7128,2.7139,2.7255,2.7395,2.7348,2.7231,2.7231,2.7231,2.7231,2.7231,2.7231,2.7231,2.7231,2.7231,2.7231,2.7231,2.7231,2.7231,2.7231,2.7231,2.7313,2.7812,2.7893,2.7962,2.8351,2.8431,2.8431,2.8431,2.8431,2.8431,2.851,2.8005,2.7758,2.7669,2.879,2.9301,2.8775,2.8492,2.8137,2.7646,2.7475,2.7311,2.7339,2.7339,2.7339,2.7339,2.7339,2.6739,2.5536,2.591,2.5448,1.2795,0.0,1.4386,1.4322,1.4687,1.5018,0.0,0.0,0.0,0.0,0.0,0.0,0.0,0.0,1.6655,1.8446,1.8512,1.8843,0.0,0.0,0.0,0.0,0.0,0.0,0.0,0.0,0.0,2.8245,2.8692,2.8928,2.8647,2.875,2.8807,2.8534,2.8551,2.8551,2.851,2.851,2.8431,2.8259,2.8431,2.8431,2.8259,2.8431,2.851,2.851,2.851,2.851,2.851,2.851,2.851,2.851,2.8339,2.8259,2.8259,2.7777,2.7603,2.7534,2.7301,2.7048,2.6804,2.6734,2.6874,2.7135,2.7214,2.7163,2.7231,2.7231,2.7301,2.7441,2.7441,2.7441,2.7441,2.7441,2.7301,2.7231,2.7231,2.7231,2.7231,2.7231,2.7231,2.7231,2.7313,2.7394,2.7394,2.7476,2.7545,2.7638,2.7962,2.8042,2.8203,2.8431,2.8174,2.7835,2.7669,2.7281,2.698,2.7005,2.6562,2.6218,2.5945,2.5942,2.5744,2.5535,2.5523,2.5523,2.5523,2.5523,2.5383,2.5077,2.514,2.5051,1.2679,1.2916,1.319,1.3372,1.3801,1.4277,0.0,0.0,0.0,0.0,0.0,0.0,0.0,0.0,0.0,0.0,1.8709,0.0,0.0,0.0,0.0,0.0,0.0,0.0,0.0,0.0,2.7788,2.803,2.8302,2.8407,2.8363,2.8383,2.8407,2.8203,2.8203,2.8271,2.8339,2.8431,2.8351,2.803,2.8271,2.8271,2.803,2.8203,2.8271,2.8339,2.8339,2.8431,2.851,2.851,2.851,2.851,2.8339,2.8259,2.8179,2.7777,2.7615,2.7441,2.7301,2.6967,2.6744,2.6945,2.6968,2.6983,2.7217,2.7325,2.7371,2.7371,2.7441,2.7522,2.7522,2.7603,2.7615,2.7371,2.7371,2.7301,2.7231,2.7231,2.7231,2.7231,2.7231,2.7231,2.7231,2.7231,2.7231,2.7231,2.7231,2.7313,2.7557,2.7557,2.7638,2.7869,2.7345,2.6961,2.6949,2.5914,2.567,2.6602,2.6334,2.5926,2.5661,2.5535,2.5294,2.4885,2.4885,2.4885,2.4885,2.4885,2.4682,2.4279,2.4279,2.4027,1.3365,1.3386,1.3494,1.3409,1.3619,1.4041,0.0,0.0,0.0,0.0,0.0,0.0,0.0,0.0,0.0,0.0,0.0,0.0,0.0,0.0,0.0,0.0,0.0,0.0,0.0,2.7429,2.7765,2.8087,2.803,2.8042,2.8179,2.7962,2.7893,2.7893,2.7893,2.7962,2.8099,2.8259,2.8283,2.7893,2.8111,2.803,2.78,2.7881,2.7962,2.8179,2.8179,0.0,2.8431,2.8431,2.8431,2.8419,2.8347,2.8199,2.8099,2.7787,2.7626,2.7429,2.7209,2.6921,2.6709,2.7139,2.6988,2.6732,2.7243,2.7452,2.7522,2.7522,2.7522,2.7522,2.7522,2.7708,2.7719,2.7313,2.7371,2.7452,2.7219,2.7231,2.7231,2.7231,2.7231,2.7231,2.7231,2.7231,2.7231,2.7231,2.7231,2.7231,2.7231,2.7231,2.7231,2.7231,2.6324,2.5793,2.5947,2.4934,2.4923,2.6474,2.6372,2.6054,2.5501,2.5227,2.4878,2.4505,2.4493,2.4493,2.4493,2.4493,2.4052,2.3317,2.3317,2.2908,1.3933,1.4362,1.4641,1.3637,1.4049,1.472,0.0,0.0,0.0,0.0,0.0,0.0,0.0,0.0,0.0,0.0,0.0,0.0,0.0,0.0,0.0,0.0,0.0,0.0,2.6092,2.7261,2.7926,2.7603,2.7938,2.8111,2.7962,2.7881,2.7893,2.7893,2.7893,2.7788,2.7603,2.7869,2.7962,2.7893,2.7962,2.7788,2.7603,2.78,2.7881,2.7962,0.0,2.803,2.8259,2.803,2.8111,2.8211,2.7557,2.7584,2.7822,2.7125,2.715,2.7452,2.6943,2.6613,2.6359,2.6429,2.6405,2.6441,2.672,2.7174,2.7522,2.7788,2.78,2.78,2.78,2.7708,2.7522,2.7441,2.7371,2.7219,2.7231,2.7231,2.7231,2.7231,2.7231,2.7231,2.7231,2.7231,2.7231,2.7231,2.7231,2.7231,2.7231,2.7231,2.7231,2.7231,2.6482,2.587,2.5793,2.4934,2.4487,2.4638,2.4641,2.4307,2.3609,2.3051,2.2698,2.2625,2.2613,2.2613,2.2613,2.2613,2.2515,2.2368,2.2368,2.2332,1.4975,1.5157,1.5085,1.4294,1.4521,1.4963,1.5085,0.0,0.0,0.0,0.0,0.0,0.0,0.0,0.0,0.0,0.0,0.0,0.0,0.0,0.0,0.0,0.0,2.6811,2.6667,2.7335,2.7765,2.7522,2.7615,2.7708,2.7696,2.7545,2.7429,2.7298,2.7287,2.7147,2.7011,2.7023,2.7238,2.7557,2.7626,2.7463,2.7115,2.7487,2.7636,2.7481,0.0,2.8042,2.8155,2.7802,2.7763,2.7873,2.7204,2.7067,2.7191,2.6823,2.6827,2.6989,2.6757,2.6496,2.6294,2.6294,2.6294,2.6323,2.6604,2.7207,2.7708,2.7893,2.7962,2.803,2.7962,2.795,2.7938,2.7603,2.7696,2.7869,2.7777,2.7626,2.7557,2.7557,2.7464,2.729,2.7231,2.7301,2.729,2.7231,2.7231,2.7231,2.7231,2.7231,2.7128,2.6852,2.623,2.5754,2.5617,2.4846,2.4345,2.4345,2.4091,2.3863,2.3649,2.3041,2.2638,2.2492,2.248,2.2411,2.2197,2.2197,2.2197,2.2197,2.2197,2.2197,1.6027,1.5832,1.5513,1.513,0.0,1.5115,1.5545,0.0,0.0,0.0,0.0,0.0,0.0,0.0,0.0,0.0,0.0,0.0,0.0,0.0,2.5402,2.6333,2.6487,2.6722,2.7427,2.7392,2.7322,2.7242,2.7093,2.7105,2.7242,2.7093,2.684,2.6593,2.6581,2.6551,2.6534,2.6382,2.6551,2.7025,2.7174,2.7032,2.6593,2.7067,2.7123,2.6952,2.7352,2.7664,2.7775,2.7293,2.7293,2.7411,2.6872,2.6518,2.6415,2.6551,2.6581,2.6581,2.6581,2.6399,2.6217,2.6259,2.6224,2.6247,2.6569,2.7123,2.7655,2.7822,2.8028,2.8036,2.8007,2.8191,2.8271,2.7765,2.8099,2.8431,2.8259,2.8111,2.8042,2.7962,2.7788,2.7534,2.7301,2.7371,2.7371,2.7231,2.7231,2.7231,2.7231,2.7231,2.7036,2.6519,2.6014,2.5604,2.5265,2.4638,2.4345,2.4502,2.4014,2.3793,2.3921,2.3367,2.2982,2.2721,2.2655,2.2468,2.2197,2.2197,2.2197,2.2197,2.2197,2.2197,1.6765,1.6552,1.6349,1.6144,0.0,0.0,1.593,0.0,0.0,0.0,0.0,0.0,0.0,0.0,0.0,0.0,0.0,0.0,0.0,0.0,2.7198,2.7683,2.7352,2.716,2.7364,2.7102,2.6816,2.6412,2.6576,2.6576,2.6412,2.6335,2.6323,2.6353,2.6353,2.6341,2.6306,2.6306,2.6417,2.6652,2.6488,2.6388,2.6353,2.6388,2.6388,2.6365,2.64,2.6488,2.6728,2.6453,2.6517,2.6621,2.6098,2.5896,2.5882,2.624,2.6353,2.6353,2.6353,2.6099,2.5894,2.6229,2.6052,2.5926,2.6531,2.6698,2.6854,2.769,2.7846,2.7807,2.8128,2.803,2.7962,2.8099,2.8179,2.8259,2.8431,2.8431,2.8431,2.8179,2.803,2.78,2.7522,2.7371,2.7231,2.7231,2.7231,2.7231,2.7231,2.7231,2.7036,2.6519,2.6014,2.539,2.4641,2.4513,2.449,2.449,2.4014,2.3735,2.3735,2.3105,2.2745,2.271,2.2372,2.2234,2.2197,2.2197,2.2197,2.2197,2.2197,2.2197,1.6455,1.6148,1.586,1.563,0.0,0.0,0.0,0.0,0.0,0.0,0.0,0.0,0.0,0.0,0.0,0.0,0.0,0.0,0.0,2.6431,2.6673,2.676,2.6565,2.6561,2.6866,2.6816,2.6621,2.6306,2.6382,2.6382,2.6294,2.6294,2.6229,2.5985,2.5973,2.582,2.5562,2.5562,2.5562,2.5646,2.6075,2.6205,2.5985,2.6316,2.6281,2.5997,2.6316,2.6534,2.6586,2.619,2.6122,2.621,2.5684,2.5469,2.5541,2.5858,2.5973,2.5973,2.5973,2.5929,2.5813,2.567,2.5718,2.5834,2.6075,2.6363,2.6705,2.7032,2.7389,2.7771,2.8116,2.8271,2.8271,2.8179,2.8498,2.8816,2.8895,2.8736,2.8657,2.8419,2.8122,2.78,2.7383,2.7371,2.7371,2.7231,2.7231,2.7231,2.7231,2.6955,2.6565,2.6048,2.5332,2.4773,2.438,2.4418,2.4429,2.4345,2.4089,2.3918,2.3676,2.3432,2.3109,2.2721,2.2583,2.2384,2.2197,2.2197,2.2197,2.2197,2.2197,2.2197,1.6325,1.5914,1.5425,0.0,0.0,0.0,0.0,0.0,0.0,0.0,0.0,0.0,0.0,0.0,0.0,0.0,0.0,2.5461,2.5777,2.598,2.6184,2.6246,2.6029,2.6063,2.6417,2.6077,2.5908,2.6047,2.5894,2.5875,2.611,2.611,2.5944,2.5672,2.5648,2.5481,2.5182,2.5182,2.5182,2.5194,2.5692,2.5846,2.5672,2.6017,2.5993,2.5672,2.6029,2.6184,2.616,2.5803,2.572,2.5817,2.5444,2.5312,2.5348,2.5589,2.5648,2.5648,2.5648,2.5648,2.5588,2.5361,2.5493,2.5683,2.5789,2.5967,2.6256,2.6514,2.6904,2.7292,2.7908,2.8299,2.851,2.8351,2.8524,2.8766,2.8858,2.8748,2.8518,2.8383,2.8122,2.78,2.7383,2.7371,2.7371,2.7231,2.7231,2.7231,2.7231,2.6921,2.645,2.5784,2.4957,2.4418,2.4345,2.4418,2.4418,2.4273,2.4273,2.4184,2.3849,2.3653,2.3358,2.2894,2.2626,2.2504,2.2375,2.2375,2.2375,2.2375,2.2375,2.2279,1.6599,1.5969,0.0,0.0,0.0,0.0,0.0,0.0,0.0,0.0,0.0,0.0,0.0,0.0,0.0,2.285,2.3738,2.4585,2.5904,2.6002,2.6041,2.6576,2.5949,2.5576,2.6153,2.5059,2.4623,2.5335,2.4929,2.4933,2.5535,2.5606,2.5535,2.5312,2.5312,2.5312,2.5312,2.5312,2.5312,2.5312,2.5312,2.5312,2.5312,2.5312,2.5312,2.5312,2.5312,2.5312,2.5312,2.5312,2.5312,2.5312,2.5312,2.5312,2.5312,2.5312,2.5312,2.5312,2.5312,2.5312,2.5312,2.5312,2.5312,2.5337,2.567,2.5589,2.5457,2.63,2.6366,2.6346,2.7428,2.8102,2.8498,2.8498,2.8246,2.807,2.8457,2.8234,2.8016,2.8152,2.803,2.7788,2.7522,2.729,2.7231,2.7231,2.7231,2.7231,2.7219,2.7219,2.6829,2.5819,2.4957,2.449,2.449,2.449,2.449,2.449,2.449,2.4406,2.4177,2.356,2.3203,2.3191,2.2524,2.2387,2.271,2.2698,2.2698,2.271,2.2698,2.2488,1.5104,0.0,0.0,0.0,0.0,0.0,0.0,0.0,0.0,0.0,0.0,0.0,0.0,0.0,0.0,2.2145,2.3379,2.4227,2.3987,2.47,2.503,2.4612,2.4352,2.4284,2.4567,2.4247,2.4113,2.4322,2.4632,2.4909,2.5158,2.5312,2.5465,2.5535,2.5382,2.5241,2.5182,2.4909,2.4909,2.5182,2.4611,2.4611,2.5182,2.5241,2.5182,2.4992,2.5324,2.5394,2.5182,2.5241,2.5312,2.5312,2.5312,2.5312,2.5312,2.5312,2.5312,2.5312,2.5312,2.5312,2.5312,2.5312,2.5312,2.5336,2.5433,2.5373,2.5372,2.5625,2.5865,2.6178,2.649,2.6995,2.7488,2.7861,2.7837,2.7722,2.7581,2.7849,2.8028,2.7668,2.7611,2.7534,2.7301,2.7219,2.7231,2.7231,2.7231,2.7093,2.6737,2.6461,2.6066,2.5385,2.4958,2.4646,2.449,2.449,2.449,2.449,2.4345,2.4022,2.349,2.3651,2.3372,2.2476,2.2512,2.2619,2.271,2.2468,2.248,2.2698,2.2468,2.2279,1.4722,0.0,0.0,0.0,0.0,0.0,0.0,0.0,0.0,0.0,0.0,0.0,0.0,0.0,0.0,2.219,2.2992,2.3519,2.3133,2.3853,2.4064,2.341,2.3619,2.3694,2.3601,2.3297,2.3209,2.3446,2.3464,2.3621,2.3968,2.3945,2.4132,2.4719,2.4061,2.386,2.4371,2.3538,2.3436,2.407,2.3436,2.353,2.4378,2.4874,2.5052,2.5052,2.5394,2.5465,2.5324,2.5394,2.5382,2.5312,2.5241,2.5241,2.5182,2.5111,2.5182,2.5312,2.5312,2.5382,2.5453,2.5535,2.5535,2.5535,2.5453,2.5382,2.5382,2.5312,2.554,2.5829,2.6045,2.619,2.6404,2.7071,2.716,2.7043,2.6848,2.7174,2.7368,2.7172,2.7254,2.7371,2.7231,2.7231,2.7151,2.7025,2.6909,2.6746,2.6433,2.6023,2.5657,2.5331,2.5011,2.4718,2.4502,2.449,2.449,2.4418,2.4345,2.3893,2.3075,2.3618,2.3419,2.2484,2.2628,2.2467,2.2113,2.2291,2.2337,2.2285,2.2046,2.1914,1.4943,0.0,0.0,0.0,0.0,0.0,0.0,0.0,0.0,0.0,0.0,0.0,0.0,2.2383,2.1696,2.2772,2.2688,2.2585,2.2819,2.314,2.3175,2.2595,2.3056,2.3298,2.2787,2.2101,2.1896,2.2339,2.1755,2.1607,2.2286,2.1909,2.2201,2.3258,2.1875,2.1767,2.311,2.1718,2.1501,2.2386,2.1923,2.2176,2.3081,2.4188,2.4838,2.5087,2.518,2.5274,2.538,2.5392,2.5346,2.5312,2.5111,2.5123,2.5123,2.4921,2.5052,2.5312,2.5312,2.5453,2.5676,2.5828,2.591,2.584,2.5676,2.5606,2.5535,2.5382,2.5312,2.542,2.5901,2.5673,2.5481,2.6315,2.6282,2.6079,2.621,2.6235,2.6347,2.6613,2.6932,2.7151,2.7151,2.7196,2.7128,2.6757,2.6516,2.6353,2.6306,2.5847,2.553,2.553,2.5095,2.4718,2.4562,2.449,2.4441,2.4185,2.433,2.3979,2.2878,2.3393,2.3395,2.2726,2.2624,2.2159,2.1296,2.2134,2.2232,2.1606,2.1495,2.13,0.0,1.4185,0.0,0.0,0.0,0.0,0.0,0.0,0.0,0.0,0.0,0.0,2.2865,2.1996,2.1381,2.2158,2.226,2.1942,2.1248,2.1787,2.1819,2.0507,2.0623,2.0579,2.0023,2.0118,2.0186,2.0129,2.0442,2.0818,2.1145,2.1366,2.1559,2.1856,2.149,2.1393,2.1577,2.096,2.0907,2.1355,2.0736,2.102,2.2248,2.3269,2.3557,2.3183,2.2669,2.2935,2.3723,2.3921,2.4449,2.5241,2.4992,2.5052,2.5241,2.5182,2.5324,2.5535,2.5382,2.5535,2.584,2.5688,2.5758,2.591,2.5828,2.5606,2.5382,2.5523,2.5324,2.5206,2.5373,2.5396,2.5372,2.5529,2.5744,2.5815,2.5577,2.5941,2.6212,2.5993,2.6457,2.685,2.685,2.7036,2.7128,2.6757,2.6662,2.652,2.6353,2.5997,2.5763,2.5763,2.5301,2.4921,2.4718,2.4574,2.4434,2.4217,2.4089,2.3807,2.3243,2.349,2.2994,2.1712,2.1925,2.2081,2.208,2.1442,2.1274,2.1595,2.0818,2.039,0.0,0.0,0.0,0.0,0.0,0.0,0.0,0.0,0.0,0.0,0.0,0.0,2.187,2.1712,2.1349,2.0989,2.0903,2.068,1.9932,2.0279,2.0176,1.9135,1.9329,1.9448,1.8995,1.8937,1.8903,1.8893,1.9088,1.9273,1.9481,1.9392,1.9692,2.0327,1.9643,1.9525,2.0083,1.9243,1.9143,1.9757,1.9163,1.9524,2.0626,2.2098,2.259,2.2265,2.209,2.2262,2.2776,2.3248,2.3769,2.4366,2.4331,2.4554,2.4874,2.4755,2.5025,2.5417,2.5023,2.5317,2.5758,2.5758,2.591,2.6062,2.591,2.5758,2.5606,2.5676,2.5548,2.5324,2.5465,2.5453,2.5382,2.5312,2.5457,2.5517,2.5372,2.5731,2.6009,2.5811,2.6288,2.6676,2.6676,2.6711,2.6709,2.6508,2.6271,2.6009,2.5811,2.5683,2.5528,2.5456,2.513,2.4815,2.4545,2.4389,2.4171,2.395,2.3894,2.3581,2.3108,2.2977,2.2467,2.145,2.2031,2.1876,2.0825,2.0762,2.0728,2.0795,2.0288,2.0232,0.0,0.0,0.0,0.0,0.0,0.0,0.0,0.0,0.0,0.0,0.0,2.0846,2.0859,2.109,2.1005,1.9899,1.9633,1.9399,1.8899,1.8889,1.8615,1.7779,1.8165,1.8467,1.826,1.7996,1.7887,1.8085,1.7765,1.7586,1.7716,1.7271,1.7522,1.8547,1.7413,1.7288,1.8452,1.7297,1.706,1.7856,1.758,1.7939,1.8773,2.0286,2.1022,2.1174,2.1428,2.1586,2.1744,2.2455,2.3016,2.3352,2.3607,2.3932,2.4259,2.4073,2.4471,2.4987,2.4501,2.4828,2.542,2.5656,2.5844,2.6008,2.5955,2.5828,2.5828,2.5828,2.5688,2.5465,2.5465,2.5465,2.5419,2.529,2.5242,2.5207,2.5253,2.5529,2.5694,2.5694,2.6235,2.6651,2.6665,2.6485,2.63,2.62,2.5718,2.5373,2.5302,2.5218,2.5195,2.5013,2.4774,2.4498,2.4204,2.4035,2.3828,2.3661,2.3598,2.3234,2.2686,2.232,2.1873,2.1359,2.2093,2.1511,1.9677,2.0198,2.0381,2.0186,1.9906,2.0174,0.0,0.0,0.0,0.0,0.0,0.0,0.0,0.0,0.0,0.0,1.8879,1.9468,2.027,1.9575,1.9236,2.0154,1.9818,1.9222,1.835,1.8223,1.761,1.5969,1.6029,1.6149,1.6138,1.636,1.6615,1.6806,1.6661,1.6526,1.6529,1.6318,1.6151,1.6188,1.6151,1.6114,1.6141,1.5965,1.5937,1.6058,1.6436,1.6757,1.6879,1.712,1.7553,1.8115,1.7878,1.8517,1.9687,2.0382,2.1609,2.3028,2.313,2.3271,2.3452,2.3787,2.405,2.4147,2.3906,2.4074,2.4516,2.4835,2.5061,2.5296,2.5763,2.5676,2.5382,2.5606,2.5277,2.4933,2.5123,2.5064,2.4895,2.4974,2.4929,2.5024,2.5266,2.5372,2.5349,2.5349,2.5905,2.6464,2.6674,2.6697,2.6426,2.5926,2.5825,2.5571,2.5168,2.5008,2.4808,2.4659,2.4368,2.4086,2.4018,2.3833,2.3643,2.3463,2.3125,2.2686,2.205,2.209,2.1638,2.0731,2.0991,2.111,2.1063,2.0185,2.0104,2.0779,1.9645,1.9435,0.0,0.0,0.0,0.0,0.0,0.0,0.0,0.0,0.0,0.0,1.7688,1.8066,1.8981,1.8763,1.8471,1.8491,1.8285,1.8054,1.7733,1.6959,1.6298,1.598,1.5441,1.5204,1.5525,1.5568,1.5734,1.6051,1.6056,1.6095,1.6095,1.6131,1.6102,1.5964,1.5964,1.5891,1.5817,1.5753,1.5689,1.5689,1.5936,1.6064,1.6055,1.5829,1.6163,1.691,1.6941,1.7209,1.7765,1.8495,1.9399,2.0414,2.0687,2.1015,2.1479,2.2209,2.2618,2.2925,2.3117,2.3524,2.3898,2.406,2.426,2.4508,2.5087,2.4874,2.4659,2.5087,2.4814,2.4311,2.4371,2.4445,2.4414,2.4352,2.4457,2.4503,2.465,2.4906,2.5136,2.5283,2.5631,2.5997,2.6291,2.6213,2.5925,2.5599,2.5258,2.494,2.4668,2.4537,2.4393,2.4241,2.4019,2.3771,2.369,2.3514,2.3328,2.3272,2.2874,2.2478,2.2236,2.1826,2.1372,2.0947,2.1248,2.1202,2.0714,2.033,2.0396,2.0886,2.0339,2.0409,0.0,0.0,0.0,0.0,0.0,0.0,0.0,0.0,0.0,0.0,1.7013,1.7123,1.7711,1.7947,1.7912,1.7209,1.7111,1.7084,1.6977,1.5974,1.5414,1.5799,1.4989,1.4675,1.5195,1.5151,1.5267,1.5725,1.5725,1.5733,1.5797,1.5829,1.5845,1.5845,1.5638,1.5512,1.5522,1.5458,1.5386,1.5386,1.5386,1.5386,1.5377,1.5084,1.5349,1.6004,1.6244,1.6418,1.6461,1.7161,1.7721,1.8273,1.8742,1.9219,1.9743,2.0748,2.1301,2.1631,2.2077,2.2499,2.2887,2.3145,2.3345,2.3595,2.4207,2.4143,2.3936,2.4515,2.4215,2.3717,2.3717,2.3843,2.393,2.3776,2.3932,2.4153,2.4183,2.4467,2.4847,2.5124,2.5327,2.5521,2.5835,2.5586,2.5318,2.5171,2.4735,2.436,2.4201,2.4106,2.3998,2.3893,2.3711,2.3497,2.3328,2.3209,2.3135,2.3135,2.2744,2.2461,2.2353,2.1631,2.1191,2.1154,2.1444,2.1253,2.0456,2.0601,2.0836,2.1097,2.0974,2.1234,0.0,0.0,0.0,0.0,0.0,0.0,0.0,0.0,0.0,0.0,1.7213,1.7088,1.6747,1.702,1.7367,1.7284,1.7294,1.7039,1.6253,1.5808,1.535,1.4667,1.4243,1.4257,1.4844,1.4925,1.5204,1.5854,1.5403,1.5253,1.5614,1.5046,1.4771,1.4771,1.4653,1.4543,1.457,1.457,1.457,1.457,1.457,1.457,1.457,1.4552,1.4552,1.4657,1.5026,1.5553,1.6235,1.6668,1.7179,1.7729,1.8778,1.8871,1.8664,2.0024,2.0376,2.0205,2.0539,2.0687,2.0884,2.189,2.2192,2.2372,2.3385,2.3666,2.3593,2.3666,2.3519,2.3298,2.3298,2.3351,2.3356,2.3408,2.3637,2.3928,2.418,2.4241,2.4382,2.4697,2.4946,2.5109,2.5142,2.5098,2.4993,2.4656,2.4388,2.4143,2.4052,2.3867,2.3709,2.3557,2.327,2.3105,2.3105,2.3125,2.3135,2.3135,2.2744,2.2334,2.1934,2.1475,2.1124,2.0946,2.1148,2.1195,2.1175,2.0988,2.1213,2.1766,2.1192,2.1234,0.0,0.0,0.0,0.0,0.0,0.0,0.0,0.0,1.7451,1.6655,1.6095,1.5678,1.5517,1.6341,1.688,1.6585,1.6416,1.6237,1.6028,1.4955,1.4248,1.4678,1.4132,1.3956,1.4439,1.4605,1.472,1.4989,1.4911,1.4879,1.4999,1.4918,1.4902,1.4902,1.4715,1.4656,1.4606,1.4606,1.4606,1.4606,1.4606,1.4556,1.4515,1.4515,1.4515,1.4515,1.4662,1.4837,1.4958,1.4976,1.525,1.5707,1.6135,1.6402,1.6798,1.7958,1.8626,1.914,1.9877,2.0278,2.0541,2.0881,2.12,2.1581,2.235,2.2529,2.2553,2.2927,2.2703,2.2327,2.2327,2.2436,2.2577,2.2929,2.3056,2.3207,2.3487,2.3591,2.3811,2.406,2.4273,2.4477,2.4662,2.4487,2.4325,2.4211,2.3906,2.365,2.3443,2.3332,2.3315,2.3212,2.3144,2.3135,2.3135,2.3135,2.3135,2.3135,2.2744,2.2324,2.1904,2.1465,2.1025,2.0741,2.1051,2.1282,2.1359,2.1425,2.1576,2.1797,2.1566,2.1576,0.0,0.0,0.0,0.0,0.0,0.0,0.0,0.0,1.6661,1.6126,1.5436,1.4861,1.4704,1.5381,1.5783,1.5369,1.515,1.5094,1.5226,1.4126,1.3553,1.4201,1.3723,1.3543,1.4015,1.4178,1.4291,1.4547,1.4606,1.4666,1.4775,1.4843,1.4902,1.4843,1.4725,1.4606,1.4547,1.4606,1.4671,1.4731,1.4671,1.4621,1.4578,1.451,1.4515,1.4515,1.4446,1.4396,1.4336,1.4198,1.43,1.4497,1.4684,1.5042,1.5534,1.6541,1.7426,1.8163,1.8934,1.9553,1.9996,2.0151,2.0514,2.098,2.1502,2.1733,2.1873,2.2252,2.2101,2.1807,2.1807,2.1984,2.219,2.2619,2.274,2.2834,2.2948,2.3211,2.3406,2.358,2.3675,2.3895,2.4074,2.3981,2.3794,2.3844,2.3558,2.3232,2.3096,2.3135,2.3135,2.3135,2.3135,2.3135,2.3135,2.3135,2.3135,2.3135,2.2744,2.2324,2.1904,2.1465,2.1025,2.0741,2.1051,2.1282,2.1436,2.1655,2.1807,2.1731,2.1809,2.1963,0.0,0.0,0.0,0.0,0.0,0.0,1.6763,0.0,1.5406,1.5786,1.5299,1.4684,1.4261,1.4135,1.4029,1.3781,1.3746,1.3755,1.3755,1.3476,1.3259,1.3277,1.2986,1.3019,1.3516,1.3627,1.3914,1.4601,1.4547,1.4625,1.498,1.4784,1.4656,1.4469,1.4497,1.4455,1.4327,1.4455,1.4578,1.4826,1.4587,1.4596,1.4817,1.4578,1.4524,1.4506,1.4336,1.4396,1.4515,1.4506,1.4387,1.4363,1.4876,1.5031,1.5023,1.5923,1.678,1.7475,1.78,1.842,1.9214,1.9661,2.0038,2.0493,2.0948,2.1414,2.1787,2.1797,2.1807,2.1807,2.1807,2.1973,2.2178,2.2392,2.2669,2.2735,2.2755,2.2928,2.3135,2.3135,2.3319,2.3503,2.3503,2.3503,2.3503,2.3503,2.3232,2.3135,2.3135,2.3135,2.3135,2.3135,2.3135,2.3135,2.3135,2.3135,2.3135,2.3125,2.2744,2.2314,2.1885,2.1455,2.1115,2.0916,2.1148,2.1215,2.1205,2.1578,2.1741,2.1543,2.1893,2.2261,1.5108,0.0,0.0,0.0,0.0,0.0,0.0,0.0,0.0,1.5101,1.428,1.3559,1.3413,1.3001,1.266,1.2559,1.2964,1.3309,1.3309,1.2805,1.2474,1.2608,1.2679,1.2833,1.3121,1.3586,1.3928,0.0,1.4332,1.4515,1.4625,1.4565,1.4556,1.4497,1.4506,1.4506,1.4597,1.4606,1.475,1.5031,1.4983,1.4869,1.4826,1.4718,1.465,1.4506,1.4336,1.4396,1.4455,1.4258,1.4198,1.4285,1.4445,1.4723,1.5049,1.5346,1.6275,1.7399,1.754,1.8223,1.9085,1.922,1.9572,2.0027,2.0483,2.0938,2.1373,2.1714,2.1807,2.1807,2.1807,2.1747,2.172,2.1929,2.2219,2.2389,2.2526,2.2842,2.3135,2.3135,2.3144,2.3232,2.3503,2.3319,2.3319,2.3503,2.3232,2.3135,2.3135,2.3135,2.3135,2.3135,2.3135,2.3135,2.3135,2.3135,2.3008,2.2705,2.2578,2.2187,2.1445,2.1299,2.1025,2.0664,2.137,2.1459,2.0984,2.1502,2.1742,2.1767,2.2211,2.2402,0.0,0.0,0.0,0.0,0.0,0.0,1.4581,1.4317,1.4051,0.0,1.3572,1.2973,1.2973,1.2641,1.2374,1.2374,1.2531,1.2679,1.2679,1.2373,1.2168,1.2253,1.2373,1.258,1.2877,1.3177,1.3451,1.3626,1.402,1.4332,1.4506,1.4515,1.4515,1.4515,1.4515,1.4565,1.4606,1.4703,1.4854,1.5102,1.4866,1.4744,1.4817,1.4484,1.4303,1.4267,1.4198,1.4198,1.4267,1.407,1.4079,1.4198,1.4267,1.4472,1.4662,1.4732,1.5789,1.7145,1.7145,1.8006,1.9075,1.9075,1.9453,1.981,1.9998,2.0329,2.0792,2.1179,2.1445,2.1578,2.1578,2.1425,2.142,2.1527,2.177,2.1964,2.2325,2.2663,2.293,2.3105,2.3135,2.3144,2.3319,2.3232,2.3135,2.3319,2.3232,2.3135,2.3135,2.3135,2.3135,2.3135,2.3135,2.3135,2.3135,2.3135,2.3037,2.2793,2.2607,2.2285,2.1787,2.1602,2.1387,2.1123,2.177,2.1929,2.1409,2.1865,2.1998,2.1789,2.2339,2.2546,0.0,0.0,0.0,0.0,1.3905,0.0,1.4007,1.3451,1.2899,0.0,1.3034,1.2776,1.2776,1.2725,1.2663,1.2663,1.2333,1.2076,1.2076,1.2076,1.2076,1.2076,1.2076,1.2214,1.2614,1.2687,1.2871,1.3195,1.3598,1.3983,1.4359,1.4414,1.4442,1.4442,1.4488,1.4515,1.4515,1.4617,1.4789,1.5029,1.4421,1.4351,1.4673,1.3992,1.3799,1.4007,1.3992,1.401,1.407,1.407,1.401,1.401,1.4198,1.4139,1.4079,1.4312,1.5416,1.6782,1.6894,1.79,1.9075,1.9075,1.9344,1.9696,1.954,1.9777,2.0134,2.0495,2.0833,2.1145,2.1195,2.1205,2.1205,2.1205,2.1312,2.1589,2.2106,2.2384,2.2637,2.3057,2.3135,2.3135,2.3135,2.3135,2.3135,2.3135,2.3135,2.3125,2.3076,2.3066,2.3057,2.2998,2.3047,2.3066,2.3066,2.3105,2.3125,2.3076,2.2715,2.249,2.2441,2.209,2.1865,2.1816,2.2168,2.2312,2.2257,2.2336,2.2227,2.1789,2.2383,2.2601,0.0,0.0,0.0,0.0,1.3266,0.0,1.338,1.3181,1.3002,0.0,1.2923,1.2776,1.2776,1.2627,1.2473,1.2473,1.2241,1.2076,1.2076,1.2076,1.2076,1.2076,1.2076,1.2104,1.2236,1.2531,1.2752,1.2834,1.3176,1.3442,1.3525,1.3837,1.4002,1.4002,1.4332,1.4515,1.4515,1.4249,1.4227,1.4547,1.4225,1.4055,1.4179,1.4143,1.4054,1.3829,1.3868,1.4121,1.4538,1.424,1.413,1.401,1.401,1.4139,1.4303,1.4976,1.5899,1.6884,1.7486,1.8283,1.9075,1.9075,1.907,1.908,1.9379,1.9413,1.9586,2.033,2.0612,2.0752,2.1115,2.1061,2.0984,2.0984,2.1076,2.1348,2.1869,2.2217,2.2637,2.3057,2.3135,2.3135,2.3135,2.3135,2.3135,2.3135,2.3135,2.3018,2.2676,2.2637,2.251,2.2168,2.2432,2.2637,2.2637,2.2939,2.2998,2.2656,2.2559,2.2353,2.2021,2.1934,2.1719,2.1367,2.1253,2.162,2.2483,2.2168,2.1897,2.156,2.1922,2.2085,0.0,0.0,0.0,1.3372,1.3132,0.0,0.0,1.2905,1.2797,1.2832,1.3019,1.3124,1.2998,1.2926,1.2903,1.2903,1.2681,1.2516,1.2464,1.2231,1.2149,1.2259,1.2145,1.2076,1.2076,1.23,1.2503,1.2696,1.2908,1.3075,1.3286,1.3479,1.3589,1.3589,1.3983,1.4194,1.4194,1.4068,1.4127,1.4359,1.3859,1.3716,1.3867,1.363,1.3546,1.3477,1.3549,1.3893,1.4369,1.4287,1.4309,1.4419,1.43,1.4419,1.4743,1.4948,1.5908,1.7116,1.7463,1.8236,1.9075,1.9075,1.9008,1.8983,1.9015,1.8963,1.9023,1.9469,1.9895,2.0272,2.05,2.0641,2.0741,2.0741,2.082,2.1025,2.1465,2.1894,2.2324,2.2744,2.2998,2.3135,2.3135,2.3135,2.3135,2.3135,2.2959,2.2754,2.2539,2.2324,2.2119,2.1904,2.2266,2.251,2.251,2.29,2.3047,2.2832,2.2822,2.2637,2.2217,2.2197,2.2183,2.205,2.1824,2.1905,2.2369,2.205,2.1634,2.1243,2.1663,2.1768,0.0,0.0,0.0,0.0,1.3008,1.2764,0.0,0.0,0.0,1.2779,1.3143,0.0,0.0,0.0,0.0,0.0,0.0,0.0,0.0,1.2447,0.0,1.2393,1.2244,1.2159,1.2085,1.2076,1.2204,1.2577,1.2604,1.2752,1.3039,1.3131,1.3176,1.3176,1.3561,1.3772,1.3772,1.3896,1.3974,1.4044,1.3368,1.3229,1.3484,1.3094,1.2982,1.3176,1.3447,1.3825,1.4308,1.4431,1.4775,1.5177,1.4765,1.4824,1.5177,1.5037,1.5926,1.7101,1.7306,1.794,1.874,1.874,1.8802,1.8742,1.8419,1.8389,1.8535,1.8613,1.9141,1.9707,1.9873,2.0176,2.0459,2.0547,2.0566,2.0684,2.1143,2.1514,2.1885,2.2305,2.2734,2.3047,2.3125,2.3076,2.3018,2.3018,2.2656,2.2363,2.2275,2.1973,2.1768,2.1768,2.206,2.2295,2.2383,2.2705,2.29,2.29,2.2969,2.2861,2.2519,2.251,2.2605,2.2774,2.2522,2.2257,2.2076,2.1833,2.144,2.0926,2.1389,2.1445,0.0,0.0,1.2725,1.2372,1.2635,1.2875,1.2509,0.0,1.3516,1.3194,0.0,1.3206,0.0,0.0,0.0,0.0,0.0,0.0,1.2665,1.2696,1.2645,1.2404,1.2384,1.2317,1.2113,1.2076,1.2144,1.214,1.219,1.2208,1.2214,1.2544,1.2788,1.2788,1.314,1.336,1.336,1.3039,1.2952,1.3072,1.2764,1.2716,1.28,1.306,1.3136,1.3077,1.3857,1.4476,1.4952,1.5292,1.5816,1.6285,1.5235,1.5001,1.5274,1.5909,1.6236,1.6506,1.7215,1.748,1.7488,1.7488,1.7634,1.775,1.7583,1.7744,1.8154,1.8535,1.863,1.8955,1.9717,1.9951,2.0088,2.0469,2.0566,2.0684,2.1143,2.1279,2.1435,2.1875,2.2473,2.2972,2.3076,2.2832,2.2578,2.2578,2.2227,2.1816,2.1426,2.1338,2.1309,2.1309,2.1348,2.1533,2.1924,2.2002,2.2031,2.2031,2.2373,2.2568,2.251,2.251,2.251,2.251,2.1922,2.1589,2.162,2.139,2.1151,2.0916,2.084,2.0771,0.0,1.2949,1.2676,1.248,1.2445,1.248,1.2418,1.2672,1.2968,1.2979,0.0,0.0,0.0,0.0,0.0,0.0,1.3094,0.0,0.0,0.0,1.3133,1.2879,0.0,0.0,1.2419,1.2264,1.2234,1.2332,1.2175,1.2126,1.2224,1.2282,1.2374,1.2374,1.2718,1.3048,1.3296,1.2874,1.2896,1.3243,1.2716,1.2491,1.2588,1.2789,1.3132,1.3464,1.3907,1.4641,1.5516,1.5682,1.6171,1.6694,1.6171,1.5941,1.5914,1.5929,1.6277,1.6768,1.7012,1.7257,1.7449,1.7577,1.7725,1.7805,1.7866,1.7929,1.8047,1.8223,1.8447,1.865,1.9082,1.9393,1.981,2.0146,2.0304,2.0469,2.081,2.1055,2.1289,2.1475,2.1938,2.2375,2.2383,2.2556,2.2611,2.2187,2.1787,2.1445,2.126,2.1006,2.084,2.084,2.1074,2.1309,2.1494,2.1738,2.1885,2.1885,2.2051,2.2256,2.25,2.2031,2.1885,2.2139,2.1624,2.1311,2.1311,2.1214,2.1076,2.0906,2.0819,2.0741,1.3025,1.2803,1.2529,1.2529,1.2367,1.2213,1.2357,1.2448,1.2547,1.2777,1.2879,0.0,0.0,0.0,0.0,0.0,0.0,1.356,0.0,1.3299,0.0,0.0,0.0,0.0,0.0,1.2364,1.2245,1.2283,1.2126,1.2076,1.2175,1.2126,1.2076,1.2076,1.2402,1.2709,1.3112,1.2871,1.2924,1.3273,1.2782,1.2485,1.2431,1.2578,1.2938,1.345,1.3939,1.4673,1.5677,1.5982,1.6327,1.657,1.6652,1.6461,1.6151,1.5979,1.628,1.6732,1.6663,1.6849,1.7215,1.7403,1.7556,1.7694,1.7925,1.7978,1.794,1.794,1.8154,1.8496,1.8533,1.8957,1.9406,1.9713,1.9937,2.0198,2.0469,2.0742,2.0975,2.1055,2.1487,2.1742,2.1543,2.205,2.2237,2.1748,2.1338,2.1055,2.1055,2.0762,2.0605,2.0732,2.0928,2.1103,2.1221,2.1416,2.1572,2.1699,2.1781,2.1977,2.2324,2.1748,2.1585,2.1709,2.1396,2.1262,2.1134,2.1134,2.1135,2.0906,2.0829,2.0741,1.2627,1.2431,1.2126,1.2126,1.2268,1.2411,1.242,1.26,1.2767,1.2776,1.26,1.252,1.2768,0.0,0.0,0.0,0.0,0.0,0.0,0.0,0.0,0.0,0.0,0.0,0.0,1.2307,1.2086,1.1755,1.1828,1.1927,1.1927,1.2026,1.2076,1.2076,1.2085,1.2337,1.2733,1.2724,1.2724,1.2733,1.2974,1.2808,1.2323,1.2431,1.2539,1.2635,1.4061,1.4756,1.5017,1.6258,1.643,1.5941,1.6311,1.6048,1.5587,1.63,1.6353,1.6134,1.6134,1.6195,1.6336,1.6356,1.667,1.7156,1.711,1.7389,1.7706,1.7706,1.7872,1.8125,1.8525,1.8592,1.8815,1.9428,1.963,1.9755,2.0178,2.0352,2.0362,2.0586,2.1174,2.1412,2.0752,2.0977,2.1269,2.126,2.0869,2.0586,2.0586,2.0576,2.0732,2.1172,2.084,2.0762,2.1201,2.085,2.0791,2.123,2.141,2.1607,2.1885,2.204,2.1833,2.126,2.1391,2.1263,2.0926,2.1081,2.1071,2.0906,2.0731,2.0731,1.1728,1.1669,1.1619,1.1769,1.1876,1.1974,1.2177,1.2286,1.2346,1.2511,1.2457,1.2351,1.2272,0.0,0.0,0.0,0.0,0.0,0.0,0.0,1.3157,1.2793,0.0,0.0,0.0,0.0,1.1594,1.1918,1.1678,1.1628,1.1877,1.1927,1.1977,1.1977,1.2076,1.231,1.2715,1.2457,1.2457,1.2715,1.2499,1.2354,1.2175,1.2224,1.2622,1.3241,1.3718,1.454,1.5614,1.6037,1.6314,1.6528,1.6641,1.644,1.61,1.6368,1.6431,1.629,1.6343,1.6295,1.6206,1.6616,1.6815,1.6976,1.7307,1.7517,1.7684,1.7852,1.794,1.8047,1.8184,1.8288,1.8508,1.886,1.9142,1.944,1.9736,2.0062,2.0342,2.042,2.0684,2.0889,2.0673,2.0693,2.0791,2.0791,2.0664,2.0566,2.0566,2.0566,2.0625,2.0781,2.0654,2.0625,2.0781,2.0654,2.084,2.1361,2.1311,2.1507,2.2113,2.1765,2.1467,2.123,2.1017,2.0879,2.0731,2.0809,2.0809,2.0731,2.0644,2.0644,1.1326,1.1326,1.1326,1.1519,1.1578,1.1628,1.1877,1.1977,1.2,1.21,1.2214,1.2207,1.1868,0.0,0.0,0.0,0.0,0.0,0.0,1.3032,1.2779,1.2494,1.2573,0.0,0.0,1.163,1.1463,1.1669,1.1477,1.1477,1.1728,1.1828,1.1877,1.1877,1.2026,1.231,1.2715,1.2562,1.2614,1.2715,1.2562,1.2351,1.2026,1.2026,1.2488,1.3394,1.3633,1.4383,1.5475,1.575,1.5962,1.6108,1.6332,1.6227,1.6033,1.6368,1.642,1.629,1.6412,1.6353,1.6333,1.6799,1.6938,1.7069,1.7372,1.7527,1.7609,1.7978,1.7978,1.7901,1.8056,1.8122,1.8247,1.8463,1.8711,1.9041,1.9411,1.9765,2.0014,2.0157,2.0333,2.0489,2.0489,2.0566,2.0566,2.0566,2.0566,2.0566,2.0566,2.0566,2.0566,2.0566,2.0566,2.0566,2.0566,2.0566,2.0762,2.1135,2.1164,2.1292,2.1639,2.1312,2.1154,2.123,2.0791,2.0644,2.0801,2.0644,2.0566,2.0566,2.0566,2.0566]},{"header":{"parameterUnit":"m.s-1","parameterCategory":1,"la1":30.6,"la2":29.2853,"lo1":-89.7004,"lo2":-87.6739,"dy":0.0162,"dx":0.0183,"nx":112,"ny":82,"refTime":"2023-09-10T18:00:00:Z","depth":0,"parameterNumber":3,"parameterNumberName":"V-component_of_WINDS"},"data":[0.0,0.0,0.0,0.0,0.0,0.0,0.0,0.0,0.0,0.0,0.0,0.0,0.0,0.0,0.0,0.0,0.0,0.0,0.0,0.0,0.0,0.0,0.0,0.0,0.0,0.0,0.0,0.0,0.0,0.0,0.0,0.0,0.0,0.0,0.0,0.0,0.0,0.0,0.0,0.0,0.0,0.0,0.0,0.0,0.0,0.0,0.0,0.0,0.0,0.0,0.0,0.0,0.0,0.0,0.0,0.0,0.0,0.0,0.0,0.0,0.0,0.0,0.0,0.0,0.0,0.0,0.0,0.0,0.0,0.0,0.0,0.0,0.0,0.0,0.0,0.0,0.0,0.0,0.0,0.0,0.0,0.0,0.0,0.0,0.0,0.0,0.0,0.0,0.0,0.0,-1.6146,-1.7656,-2.0556,-2.237,-2.2231,-2.2804,-2.2048,-1.9461,0.0,0.0,0.0,0.0,0.0,0.0,0.0,0.0,0.0,0.0,0.0,0.0,0.0,0.0,0.0,0.0,0.0,0.0,0.0,0.0,0.0,0.0,0.0,0.0,0.0,0.0,0.0,0.0,0.0,0.0,0.0,0.0,0.0,0.0,0.0,0.0,0.0,0.0,0.0,0.0,0.0,0.0,0.0,0.0,0.0,0.0,0.0,0.0,0.0,0.0,0.0,0.0,0.0,0.0,0.0,0.0,0.0,0.0,0.0,0.0,0.0,0.0,0.0,0.0,0.0,0.0,0.0,0.0,0.0,0.0,0.0,0.0,0.0,0.0,0.0,0.0,0.0,0.0,0.0,0.0,0.0,0.0,0.0,0.0,0.0,0.0,0.0,0.0,0.0,0.0,0.0,0.0,0.0,0.0,0.0,0.0,0.0,0.0,0.0,0.0,0.0,0.0,0.0,0.0,-1.636,-1.899,-2.1152,-2.237,-2.237,-2.1492,-2.0755,-2.0231,0.0,0.0,0.0,0.0,0.0,0.0,0.0,0.0,0.0,0.0,0.0,0.0,0.0,0.0,0.0,0.0,0.0,0.0,0.0,0.0,0.0,0.0,0.0,0.0,0.0,0.0,0.0,0.0,0.0,0.0,0.0,0.0,0.0,0.0,0.0,0.0,0.0,0.0,0.0,0.0,0.0,0.0,0.0,0.0,0.0,0.0,0.0,0.0,0.0,0.0,0.0,0.0,0.0,0.0,0.0,0.0,0.0,0.0,0.0,0.0,0.0,0.0,0.0,0.0,0.0,0.0,0.0,0.0,0.0,0.0,0.0,0.0,0.0,0.0,0.0,0.0,0.0,0.0,0.0,0.0,0.0,0.0,0.0,0.0,0.0,0.0,0.0,0.0,0.0,0.0,0.0,0.0,0.0,0.0,0.0,0.0,0.0,0.0,0.0,0.0,0.0,0.0,0.0,-1.628,-1.7814,-1.974,-2.1419,-2.237,-2.2324,-2.1163,-2.0272,-1.9954,-1.9642,0.0,0.0,0.0,0.0,0.0,0.0,0.0,0.0,0.0,0.0,0.0,0.0,0.0,0.0,0.0,0.0,0.0,0.0,0.0,0.0,0.0,0.0,0.0,0.0,0.0,0.0,0.0,0.0,0.0,0.0,0.0,0.0,0.0,0.0,0.0,0.0,0.0,0.0,0.0,0.0,0.0,0.0,0.0,0.0,0.0,0.0,0.0,0.0,0.0,0.0,0.0,0.0,0.0,0.0,0.0,0.0,0.0,0.0,0.0,0.0,0.0,0.0,0.0,0.0,0.0,0.0,0.0,0.0,0.0,0.0,0.0,0.0,0.0,0.0,0.0,0.0,0.0,0.0,0.0,0.0,0.0,0.0,0.0,0.0,0.0,0.0,0.0,0.0,0.0,0.0,0.0,0.0,0.0,0.0,0.0,0.0,0.0,0.0,0.0,0.0,0.0,0.0,-1.764,-1.8979,-1.9894,-2.1147,-2.184,-2.1763,-2.0779,-1.9934,-1.9489,-1.8769,0.0,0.0,0.0,0.0,0.0,0.0,0.0,0.0,0.0,0.0,0.0,0.0,0.0,0.0,0.0,0.0,0.0,0.0,0.0,0.0,0.0,0.0,0.0,0.0,0.0,0.0,0.0,0.0,0.0,0.0,0.0,0.0,0.0,0.0,0.0,0.0,0.0,0.0,0.0,0.0,0.0,0.0,0.0,0.0,0.0,0.0,0.0,0.0,0.0,0.0,0.0,0.0,0.0,0.0,0.0,0.0,0.0,0.0,0.0,0.0,0.0,0.0,0.0,0.0,0.0,0.0,0.0,0.0,0.0,0.0,0.0,0.0,0.0,0.0,0.0,0.0,0.0,0.0,0.0,0.0,0.0,0.0,0.0,0.0,0.0,0.0,0.0,0.0,0.0,0.0,0.0,0.0,0.0,0.0,0.0,0.0,0.0,0.0,0.0,0.0,0.0,0.0,-1.7918,-1.8888,-1.939,-2.0006,-2.0398,-2.0526,-1.981,-1.9377,-1.9322,-1.844,0.0,0.0,0.0,0.0,0.0,0.0,0.0,0.0,0.0,0.0,0.0,0.0,0.0,0.0,0.0,0.0,0.0,0.0,0.0,0.0,0.0,0.0,0.0,0.0,0.0,0.0,0.0,0.0,0.0,0.0,0.0,0.0,0.0,0.0,0.0,0.0,0.0,0.0,0.0,0.0,0.0,0.0,0.0,0.0,0.0,0.0,0.0,0.0,0.0,0.0,0.0,0.0,0.0,0.0,0.0,0.0,0.0,0.0,0.0,0.0,0.0,0.0,0.0,0.0,0.0,0.0,0.0,0.0,0.0,0.0,0.0,0.0,0.0,0.0,0.0,0.0,0.0,0.0,0.0,0.0,0.0,0.0,0.0,0.0,0.0,0.0,0.0,0.0,0.0,0.0,0.0,0.0,0.0,0.0,0.0,0.0,0.0,0.0,0.0,0.0,0.0,0.0,-1.7612,-1.845,0.0,-1.9936,-2.0315,-2.0286,-1.9586,-1.91,-1.9017,0.0,0.0,0.0,0.0,0.0,0.0,0.0,0.0,0.0,0.0,0.0,0.0,0.0,0.0,0.0,0.0,0.0,0.0,0.0,0.0,0.0,0.0,0.0,0.0,0.0,0.0,0.0,0.0,0.0,0.0,0.0,0.0,0.0,0.0,0.0,0.0,0.0,0.0,0.0,0.0,0.0,0.0,0.0,0.0,0.0,0.0,0.0,0.0,0.0,0.0,0.0,0.0,0.0,0.0,0.0,0.0,0.0,0.0,0.0,0.0,0.0,0.0,0.0,0.0,0.0,0.0,0.0,0.0,0.0,0.0,0.0,0.0,0.0,0.0,0.0,0.0,0.0,0.0,0.0,0.0,0.0,0.0,0.0,0.0,0.0,0.0,0.0,0.0,0.0,0.0,0.0,0.0,0.0,0.0,0.0,0.0,0.0,0.0,0.0,0.0,0.0,0.0,-1.7033,-1.7657,-1.8247,0.0,-1.9432,-1.9684,-1.9586,-1.9155,-1.8755,-1.8534,0.0,0.0,0.0,0.0,0.0,0.0,0.0,0.0,0.0,0.0,0.0,0.0,0.0,0.0,0.0,0.0,0.0,0.0,0.0,0.0,0.0,0.0,0.0,0.0,0.0,0.0,0.0,0.0,0.0,0.0,0.0,0.0,0.0,0.0,0.0,0.0,0.0,0.0,0.0,0.0,0.0,0.0,0.0,0.0,0.0,0.0,0.0,0.0,0.0,0.0,0.0,0.0,0.0,0.0,0.0,0.0,0.0,0.0,0.0,0.0,0.0,0.0,0.0,0.0,0.0,0.0,0.0,0.0,0.0,0.0,0.0,0.0,0.0,0.0,0.0,0.0,0.0,0.0,0.0,0.0,0.0,0.0,0.0,0.0,0.0,0.0,0.0,0.0,0.0,0.0,0.0,0.0,0.0,0.0,0.0,0.0,0.0,0.0,0.0,0.0,0.0,0.0,-1.772,-1.8175,-1.8464,-1.8305,-1.8254,-1.8228,-1.8305,-1.8305,-1.8201,0.0,0.0,0.0,0.0,0.0,0.0,0.0,0.0,0.0,0.0,0.0,0.0,0.0,0.0,0.0,0.0,0.0,0.0,0.0,0.0,0.0,0.0,0.0,0.0,0.0,0.0,0.0,0.0,0.0,0.0,0.0,0.0,0.0,0.0,0.0,0.0,0.0,0.0,0.0,0.0,0.0,0.0,0.0,0.0,0.0,0.0,0.0,0.0,0.0,0.0,0.0,0.0,0.0,0.0,0.0,0.0,0.0,0.0,0.0,0.0,0.0,0.0,0.0,0.0,0.0,0.0,0.0,0.0,0.0,0.0,0.0,0.0,0.0,0.0,0.0,0.0,0.0,0.0,0.0,0.0,0.0,0.0,0.0,0.0,0.0,0.0,0.0,0.0,0.0,0.0,0.0,0.0,0.0,0.0,0.0,0.0,0.0,0.0,0.0,0.0,0.0,0.0,0.0,-1.7626,-1.7816,-1.7963,-1.8212,-1.8254,-1.8254,-1.8228,-1.8228,-1.8189,-1.8123,0.0,0.0,0.0,0.0,0.0,0.0,0.0,0.0,0.0,0.0,0.0,0.0,0.0,0.0,0.0,0.0,0.0,0.0,0.0,0.0,0.0,0.0,0.0,0.0,0.0,0.0,0.0,0.0,0.0,0.0,0.0,0.0,0.0,0.0,0.0,0.0,0.0,0.0,0.0,0.0,0.0,0.0,0.0,0.0,0.0,0.0,0.0,0.0,0.0,0.0,0.0,0.0,0.0,0.0,0.0,0.0,0.0,0.0,0.0,0.0,0.0,0.0,0.0,0.0,0.0,0.0,0.0,0.0,0.0,0.0,0.0,0.0,0.0,0.0,0.0,0.0,0.0,0.0,0.0,0.0,0.0,0.0,0.0,0.0,0.0,0.0,0.0,0.0,0.0,0.0,0.0,0.0,0.0,0.0,0.0,0.0,0.0,0.0,0.0,0.0,0.0,0.0,-1.7558,-1.7754,-1.7943,-1.8212,-1.8279,-1.8279,-1.8202,-1.8228,-1.8189,-1.8083,0.0,0.0,0.0,0.0,0.0,0.0,0.0,0.0,0.0,0.0,0.0,0.0,0.0,0.0,0.0,0.0,0.0,0.0,0.0,0.0,0.0,0.0,0.0,0.0,0.0,0.0,0.0,0.0,0.0,0.0,0.0,0.0,0.0,0.0,0.0,0.0,0.0,0.0,0.0,0.0,0.0,0.0,0.0,0.0,0.0,0.0,0.0,0.0,0.0,0.0,0.0,0.0,0.0,0.0,0.0,0.0,0.0,0.0,0.0,0.0,0.0,0.0,0.0,0.0,0.0,0.0,0.0,0.0,0.0,0.0,0.0,0.0,0.0,0.0,0.0,0.0,0.0,0.0,0.0,0.0,0.0,0.0,0.0,0.0,0.0,0.0,0.0,0.0,0.0,0.0,0.0,0.0,0.0,0.0,0.0,0.0,0.0,0.0,0.0,0.0,0.0,0.0,-1.7475,-1.7909,-1.8214,-1.8305,-1.8305,-1.8293,-1.8202,-1.8254,-1.8161,-1.7922,0.0,0.0,0.0,0.0,0.0,0.0,0.0,0.0,0.0,0.0,0.0,0.0,0.0,0.0,0.0,0.0,0.0,0.0,0.0,0.0,0.0,0.0,0.0,0.0,0.0,0.0,0.0,0.0,0.0,0.0,0.0,0.0,0.0,0.0,0.0,0.0,0.0,0.0,0.0,0.0,0.0,0.0,0.0,0.0,0.0,0.0,0.0,0.0,0.0,0.0,0.0,0.0,0.0,0.0,0.0,0.0,0.0,0.0,0.0,0.0,-1.5605,0.0,0.0,0.0,0.0,0.0,0.0,0.0,0.0,0.0,0.0,0.0,0.0,0.0,0.0,0.0,0.0,0.0,0.0,0.0,0.0,0.0,0.0,0.0,0.0,0.0,0.0,0.0,0.0,0.0,0.0,0.0,0.0,0.0,0.0,0.0,0.0,0.0,0.0,0.0,0.0,0.0,-1.7516,-1.7962,-1.8279,-1.8305,-1.8254,-1.8228,-1.8202,-1.8228,-1.8135,-1.8002,-1.8095,0.0,0.0,0.0,0.0,0.0,0.0,0.0,0.0,0.0,0.0,0.0,0.0,0.0,0.0,0.0,0.0,0.0,0.0,0.0,0.0,0.0,0.0,0.0,0.0,0.0,0.0,0.0,0.0,0.0,0.0,0.0,0.0,0.0,0.0,0.0,0.0,0.0,0.0,0.0,0.0,0.0,0.0,0.0,0.0,0.0,0.0,0.0,0.0,0.0,0.0,0.0,0.0,0.0,0.0,0.0,0.0,0.0,0.0,0.0,0.0,-1.7015,0.0,0.0,0.0,0.0,0.0,0.0,0.0,0.0,0.0,0.0,0.0,0.0,0.0,0.0,0.0,0.0,0.0,0.0,0.0,0.0,0.0,0.0,0.0,0.0,0.0,0.0,0.0,0.0,0.0,0.0,0.0,0.0,0.0,0.0,0.0,0.0,0.0,0.0,0.0,0.0,-1.7652,-1.8016,-1.8254,-1.8254,-1.8228,-1.8149,-1.8095,-1.8095,-1.8082,-1.7988,-1.8055,0.0,0.0,0.0,0.0,0.0,0.0,0.0,0.0,0.0,0.0,0.0,0.0,0.0,0.0,0.0,0.0,0.0,0.0,0.0,0.0,0.0,0.0,0.0,0.0,0.0,0.0,0.0,0.0,0.0,0.0,0.0,0.0,0.0,0.0,0.0,0.0,0.0,0.0,0.0,0.0,0.0,0.0,0.0,0.0,0.0,0.0,0.0,0.0,0.0,0.0,0.0,0.0,0.0,-2.1136,-2.1821,-2.2456,-2.291,-2.355,-2.4104,-2.1462,-1.9482,-1.8168,-1.7495,0.0,0.0,0.0,0.0,0.0,0.0,0.0,0.0,0.0,0.0,0.0,0.0,0.0,0.0,0.0,0.0,0.0,0.0,0.0,0.0,0.0,0.0,0.0,0.0,-1.9598,-1.9819,-1.8355,0.0,0.0,0.0,0.0,0.0,0.0,0.0,0.0,0.0,0.0,0.0,-1.8018,-1.8234,-1.8354,-1.8394,-1.8354,-1.8259,-1.8002,-1.8002,-1.8002,-1.8002,-1.7988,-1.7988,0.0,0.0,0.0,0.0,0.0,0.0,0.0,0.0,0.0,0.0,0.0,0.0,0.0,0.0,0.0,0.0,0.0,0.0,0.0,0.0,0.0,0.0,0.0,0.0,0.0,0.0,0.0,0.0,0.0,0.0,0.0,0.0,-1.5752,-1.578,0.0,0.0,0.0,0.0,0.0,0.0,0.0,0.0,0.0,0.0,0.0,0.0,0.0,-2.0611,-2.1292,-2.2731,-2.3226,-2.2782,-2.4163,-2.4888,-2.5039,-2.5447,-2.6048,-2.6785,-2.6373,0.0,-2.1232,-1.9447,0.0,0.0,0.0,0.0,0.0,0.0,0.0,0.0,0.0,0.0,0.0,0.0,0.0,0.0,0.0,0.0,0.0,0.0,0.0,0.0,0.0,0.0,-2.0566,-2.0657,-2.1172,-2.1558,0.0,-1.9992,-1.8864,-1.903,-1.8864,0.0,0.0,0.0,0.0,0.0,0.0,0.0,-1.8629,-1.8865,-1.9031,-1.9141,-1.8976,-1.8632,-1.8043,-1.7935,-1.7909,-1.7909,-1.7962,-1.7962,-1.7922,-1.7855,0.0,0.0,0.0,0.0,0.0,0.0,0.0,0.0,0.0,0.0,0.0,0.0,0.0,0.0,0.0,0.0,0.0,0.0,0.0,0.0,0.0,0.0,0.0,0.0,0.0,0.0,0.0,0.0,0.0,-1.6134,-1.6206,-1.5828,-1.6134,-1.6194,0.0,0.0,0.0,0.0,0.0,0.0,0.0,0.0,0.0,-2.1482,-2.2114,-2.2978,-2.4176,-2.494,-2.5531,-2.5969,-2.6919,-2.7583,-2.8016,-2.8469,-2.9059,-2.9803,-2.9343,-2.8193,-2.6357,-2.3102,-2.1094,-2.001,0.0,0.0,0.0,0.0,-1.93,-1.9519,-2.0075,-1.9898,-1.9433,-1.9797,0.0,0.0,0.0,0.0,0.0,0.0,0.0,-1.8665,0.0,0.0,-2.2393,-2.2665,-2.3539,-2.4193,-2.3842,-2.3075,-2.2014,0.0,-2.003,-1.9704,-1.9039,0.0,0.0,0.0,0.0,-1.8549,-1.8934,-1.9058,-1.91,-1.9142,-1.8673,-1.8276,-1.7963,-1.7922,-1.7882,-1.7882,-1.7962,-1.7962,-1.7922,-1.7895,-1.772,0.0,0.0,0.0,0.0,0.0,0.0,0.0,0.0,0.0,0.0,0.0,0.0,0.0,0.0,0.0,0.0,0.0,0.0,0.0,0.0,0.0,0.0,0.0,0.0,0.0,0.0,0.0,0.0,-1.6493,-1.6708,-1.5909,-1.6672,-1.6937,0.0,0.0,0.0,0.0,0.0,0.0,-2.0434,-2.0875,-2.2096,-2.4383,-2.4788,-2.5679,-2.7111,-2.7262,-2.7858,-2.8829,-2.9241,-2.9775,-3.0388,-3.0829,-3.1335,-3.1929,-3.135,-3.0869,-3.0241,-2.6358,-2.4091,-2.2964,-2.1931,-2.1693,-2.19,-2.2326,-2.2538,-2.2683,-2.3406,-2.2908,-2.1977,-2.2207,-2.1303,-2.0117,-1.9883,0.0,0.0,0.0,0.0,-2.0527,-2.2201,-2.3453,-2.436,-2.4703,-2.5692,-2.6424,-2.5957,-2.5604,-2.4667,0.0,-2.1633,-2.1172,-2.0293,0.0,0.0,0.0,0.0,-1.9263,-1.9585,-1.9598,-1.9598,-1.9556,-1.903,-1.8563,-1.8208,-1.8194,-1.8086,-1.7896,-1.7935,-1.7935,-1.7882,-1.7935,-1.7935,-1.7788,0.0,0.0,0.0,0.0,0.0,0.0,0.0,0.0,0.0,0.0,0.0,0.0,0.0,0.0,0.0,0.0,0.0,0.0,0.0,0.0,0.0,0.0,0.0,0.0,0.0,0.0,0.0,0.0,0.0,-1.5957,-1.7482,0.0,0.0,0.0,0.0,-1.9737,-1.9858,-2.0857,-2.3239,-2.369,-2.4792,-2.6786,-2.8071,-2.9054,-2.9793,-3.0397,-3.0701,-3.077,-3.1172,-3.1404,-3.1459,-3.1874,-3.2232,-3.2376,-3.2335,-3.202,-3.1335,-2.8274,-2.6614,-2.58,-2.4556,-2.4235,-2.4393,-2.442,-2.4865,-2.5432,-2.5459,-2.459,-2.3688,-2.5049,-2.4282,-2.2705,-2.2131,-2.148,0.0,0.0,-2.2747,-2.3484,-2.4431,-2.5658,-2.661,-2.6666,-2.7186,-2.7736,-2.7708,-2.6694,-2.564,0.0,-2.3928,-2.2865,-2.1773,0.0,-2.096,-1.9833,-1.9913,-2.0339,-2.091,-2.0993,-2.0993,-2.0993,-2.0966,-2.039,-1.9072,-1.892,-1.8645,-1.7963,-1.7922,-1.7922,-1.7882,-1.7922,-1.7788,-1.7516,-1.7516,0.0,0.0,0.0,0.0,0.0,0.0,0.0,0.0,0.0,0.0,0.0,0.0,0.0,0.0,0.0,0.0,0.0,0.0,0.0,0.0,0.0,0.0,0.0,0.0,0.0,0.0,0.0,0.0,-1.9083,-2.0167,0.0,-2.0705,-2.123,-2.1745,-2.2122,-2.3101,-2.434,-2.5794,-2.6432,-2.7662,-2.9698,-3.0242,-3.076,-3.143,-3.1635,-3.1744,-3.1744,-3.1891,-3.2116,-3.2457,-3.2621,-3.2917,-3.3311,-3.3311,-3.3185,-3.2931,-3.1895,-3.0429,-2.8829,-2.7783,-2.7666,-2.807,-2.8277,-2.8318,-2.8311,-2.8949,-2.8356,-2.7099,-2.6307,-2.5349,-2.4425,-2.3825,-2.3673,-2.3864,-2.4633,-2.5016,-2.554,-2.6928,-2.7928,-2.8507,-2.8113,-2.8802,-2.9321,-2.8535,-2.8015,-2.7509,-2.6891,-2.5173,-2.3695,-2.3357,-2.2824,-2.2314,-2.1902,-2.1908,-2.2085,-2.2309,-2.1974,-2.1662,-2.1662,-2.0921,-2.0194,-1.9679,-1.9637,-1.9347,-1.8645,-1.8618,-1.8413,-1.7936,-1.7882,-1.7882,-1.7747,-1.8166,-1.7847,0.0,0.0,0.0,0.0,0.0,0.0,0.0,0.0,0.0,0.0,0.0,0.0,0.0,0.0,0.0,0.0,0.0,0.0,0.0,0.0,0.0,0.0,0.0,0.0,0.0,0.0,-2.0696,-2.1415,-2.245,-2.3201,-2.351,-2.3752,-2.421,-2.5036,-2.5769,-2.6927,-2.8608,-2.8866,-2.9805,-3.1544,-3.1585,-3.1789,-3.2182,-3.2386,-3.2386,-3.2182,-3.2372,-3.266,-3.2988,-3.2988,-3.3325,-3.3796,-3.3796,-3.3796,-3.3796,-3.3796,-3.3054,-3.1817,-3.1044,-3.1033,-3.1425,-3.171,-3.1589,-3.1338,-3.1573,-3.1244,-3.0328,-2.8484,-2.7673,-2.7325,-2.6644,-2.6845,-2.7349,-2.769,-2.7945,-2.8474,-2.9761,-3.0349,-3.0549,-3.0012,-3.0318,-3.0482,-2.9552,-2.8984,-2.8577,-2.8169,-2.63,-2.4718,-2.453,-2.3892,-2.3385,-2.335,-2.3364,-2.3364,-2.3364,-2.2986,-2.2636,-2.2426,-2.1579,-2.0879,-2.0432,-2.0346,-2.0097,-1.9403,-1.9319,-1.9098,-1.8617,-1.8604,-1.8604,-1.8604,-1.8549,-1.8567,-1.8623,0.0,0.0,0.0,0.0,0.0,0.0,0.0,0.0,0.0,0.0,0.0,0.0,0.0,0.0,0.0,0.0,0.0,0.0,0.0,0.0,0.0,0.0,0.0,-1.8671,-2.0779,-2.2522,-2.2751,-2.4175,-2.5116,-2.5158,-2.5071,-2.6047,-2.8563,-2.7769,-2.8569,-3.1639,-3.1003,-3.1055,-3.2155,-3.2241,-3.2241,-3.2255,-3.2717,-3.2717,-3.2255,-3.2789,-3.3072,-3.3086,-3.3086,-3.3368,-3.3922,-3.3922,-3.3922,-3.3922,-3.3894,-3.4221,-3.4624,-3.4288,-3.4235,-3.4414,-3.4414,-3.4399,-3.4201,-3.2982,-3.282,-3.2947,-3.1655,-3.1326,-3.1387,-3.0521,-3.089,-3.1452,-3.0977,-3.144,-3.2155,-3.266,-3.2815,-3.2689,-3.2248,-3.1723,-3.118,-3.0594,-2.9588,-2.8745,-2.8731,-2.7357,-2.5943,-2.5202,-2.4634,-2.4275,-2.4174,-2.4188,0.0,-2.4174,-2.416,-2.3892,-2.3196,-2.3112,-2.2558,-2.1262,-2.1105,-2.0809,-2.0067,-2.0025,-2.0025,-1.9998,-1.9998,-2.0012,-2.0025,-1.8728,-1.882,-2.0328,0.0,0.0,0.0,0.0,0.0,0.0,0.0,0.0,0.0,0.0,0.0,0.0,0.0,0.0,0.0,0.0,0.0,0.0,0.0,0.0,0.0,0.0,-2.1537,-2.1118,-2.3237,-2.5297,-2.6496,-2.7484,-2.8265,-2.8579,-2.9508,-3.0134,-3.0293,-3.1204,-3.205,-3.2627,-3.2331,-3.2253,-3.2561,-3.3002,-3.3002,-3.2574,-3.3129,-3.3269,-3.3002,-3.3255,-3.3845,-3.4735,-3.4845,-3.5438,-3.6443,-3.6443,-3.6511,-3.655,-3.6037,-3.5896,-3.6007,-3.4665,-3.4274,-3.4558,-3.4467,-3.4109,-3.3521,-3.2594,-3.2364,-3.24,-3.2004,-3.2026,-3.2062,-3.1925,-3.2124,-3.2431,-3.2382,-3.2581,-3.2775,-3.293,-3.3187,-3.3127,-3.1737,-3.1616,-3.1569,-3.0583,-2.985,-2.9348,-2.9372,-2.8577,-2.7637,-2.6609,-2.6748,-2.6635,-2.5689,-2.5929,-2.6056,-2.5497,-2.4994,-2.4488,-2.387,-2.3378,-2.2774,-2.1955,-2.1885,-2.1573,-2.0823,-2.0796,-2.0543,-2.0012,-1.9998,-2.0205,-2.0633,-1.9976,-2.0092,0.0,0.0,0.0,0.0,0.0,0.0,0.0,0.0,0.0,0.0,0.0,0.0,0.0,0.0,0.0,0.0,0.0,0.0,0.0,0.0,0.0,0.0,-2.3065,-2.4842,-2.5233,-2.6243,-2.7508,-2.9066,-2.9548,-3.0263,-3.1545,-3.1896,-3.2255,-3.2752,-3.3315,-3.3535,-3.3431,-3.3112,-3.3113,-3.3421,-3.379,-3.3875,-3.3578,-3.4141,-3.4151,-3.3534,-3.3782,-3.4326,-3.5059,-3.5127,-3.5672,-3.6611,-3.6611,-3.6678,-3.673,-3.6289,-3.6124,0.0,0.0,0.0,0.0,0.0,-3.4618,-3.4271,-3.3759,-3.3706,-3.377,-3.377,-3.3834,-3.379,-3.3495,-3.3739,-3.4092,-3.3746,-3.3724,-3.3746,-3.3621,-3.3574,-3.3339,-3.2533,-3.2371,-3.2225,-3.1475,-3.0913,-3.0404,-3.0088,-2.9736,0.0,-2.844,-2.8083,-2.7682,-2.6905,-2.7159,-2.7103,-2.6357,-2.5964,-2.5469,-2.4699,-2.4021,-2.3433,-2.2951,-2.2573,0.0,0.0,0.0,-2.1436,-2.1086,-2.1191,0.0,0.0,0.0,-2.1546,-2.1921,-2.1657,0.0,0.0,-2.0041,-1.9674,0.0,0.0,0.0,0.0,0.0,0.0,0.0,0.0,0.0,0.0,0.0,0.0,0.0,0.0,0.0,0.0,-2.6263,-2.841,-3.0033,-2.9681,-2.9686,-3.0918,-3.0943,-3.1748,-3.3807,-3.3043,-3.3238,-3.515,-3.427,-3.3774,-3.412,0.0,0.0,0.0,0.0,-3.4668,-3.4738,-3.5369,-3.5063,-3.3934,-3.4467,-3.4823,-3.4896,-3.4896,-3.5267,-3.5872,-3.5798,-3.5833,-3.5818,-3.5669,-3.5564,-3.5504,-3.5504,-3.5504,-3.5489,-3.5415,-3.5484,-3.5567,-3.5492,0.0,0.0,-3.5804,-3.5913,-3.5788,-3.5057,-3.5362,-3.5788,-3.4946,-3.4852,-3.4955,-3.4614,-3.4115,-3.3783,-3.3997,-3.3568,-3.3107,-3.2859,-3.2357,-3.1696,-3.0962,-3.0788,-3.0585,-3.0234,-2.903,-2.8106,-2.8023,-2.7937,-2.7711,-2.7004,-2.6863,-2.6396,-2.544,-2.4819,0.0,-2.3833,-2.3069,-2.2723,-2.2889,-2.2495,-2.2417,-2.2601,-2.2814,-2.2933,-2.3006,-2.3006,-2.3035,-2.3107,-2.2772,-2.2634,-2.2619,-2.1215,-2.0597,0.0,0.0,0.0,0.0,0.0,0.0,0.0,0.0,0.0,0.0,0.0,0.0,0.0,0.0,0.0,-2.6338,-2.8651,-3.0774,-3.2704,-3.3256,-3.3376,-3.3166,-3.3799,-3.4233,-3.4264,-3.4436,-3.4582,-3.4696,-3.4129,-3.3973,-3.4568,-3.4667,-3.4495,-3.3956,-3.5205,-3.5371,-3.4246,-3.5288,-3.5419,-3.4721,0.0,0.0,-3.6443,-3.6566,-3.7198,-3.8159,-3.7797,-3.7699,-3.7749,-3.6716,-3.5983,-3.5504,-3.5504,-3.5504,-3.5429,-3.4876,-3.473,-3.464,-3.4115,-3.428,-3.4793,-3.4793,-3.5202,-3.5737,-3.5537,-3.5725,0.0,-3.5758,-3.5804,-3.5913,-3.5854,-3.5746,-3.5468,-3.461,-3.4312,-3.4105,-3.3621,-3.3158,-3.2738,-3.2382,-3.1904,-3.1362,-3.0615,-3.0455,-3.0075,-2.9245,-2.8931,-2.8586,-2.789,-2.7136,-2.6275,-2.5069,-2.4809,-2.4259,-2.318,-2.2917,-2.2859,-2.2889,-2.2799,-2.2799,-2.2859,-2.2889,-2.3091,-2.3548,-2.3641,-2.3902,-2.4361,-2.4615,-2.471,-2.4696,-2.2468,-2.1732,0.0,0.0,0.0,0.0,0.0,0.0,0.0,0.0,0.0,0.0,0.0,-2.1876,0.0,0.0,-2.691,-2.9761,-3.1723,-3.3232,-3.4599,-3.5535,-3.5728,-3.458,-3.4896,-3.5198,-3.5289,-3.554,-3.5567,-3.5268,-3.4934,-3.4741,-3.4672,-3.4741,-3.4741,-3.4741,-3.5541,-3.5786,-3.5511,-3.5771,-3.5893,-3.5825,-3.5893,-3.6247,-3.688,-3.695,-3.729,-3.7794,-3.7641,-3.7456,-3.7207,-3.6387,-3.5804,-3.5504,-3.5504,-3.5504,-3.5459,-3.5115,-3.4996,-3.4936,-3.4622,-3.4711,-3.4996,-3.4996,-3.5269,-3.5589,-3.5589,-3.5668,-3.5733,-3.5733,-3.5574,-3.5389,-3.5296,-3.5,-3.4752,-3.4706,-3.4666,-3.452,-3.3958,-3.3684,-3.3262,-3.2315,-3.1871,-3.1531,-3.1235,-3.1292,-3.1113,-3.0201,-2.9719,-2.9237,-2.8536,-2.7729,-2.6919,-2.6096,-2.5716,-2.5297,-2.4779,-2.4425,-2.4009,-2.3458,-2.3919,-2.4202,-2.4109,-2.4141,-2.4288,-2.4531,-2.456,-2.4721,-2.5062,-2.5269,-2.5331,-2.5316,-2.4123,-2.3598,0.0,0.0,0.0,0.0,0.0,0.0,0.0,0.0,-2.125,-2.2079,-2.3315,-2.5103,-2.7849,-2.8828,-3.0159,-3.2917,-3.4371,-3.532,-3.6087,-3.6991,-3.712,-3.5833,-3.5804,-3.6112,-3.6547,-3.6487,-3.6336,-3.606,-3.5776,-3.5429,-3.4835,-3.4971,-3.5234,-3.5648,-3.5966,-3.6358,-3.684,-3.6413,-3.6398,-3.6781,-3.6398,-3.6472,-3.6902,-3.6902,-3.6975,-3.7093,-3.7187,-3.6837,-3.6231,-3.5842,-3.5624,-3.5504,-3.5504,-3.5504,-3.5504,-3.5504,-3.5504,-3.5504,-3.5504,-3.5504,-3.5504,-3.5504,-3.5504,-3.5504,-3.5504,-3.5504,-3.5504,-3.5504,-3.5184,-3.4758,-3.4609,-3.4253,-3.4095,-3.4826,-3.5029,-3.4878,-3.4486,-3.4425,-3.3955,-3.245,-3.2062,-3.2,-3.1938,-3.1875,-3.1597,-3.1087,-3.035,-2.9616,-2.9156,-2.8272,-2.7554,-2.7115,-2.6618,-2.6298,-2.6408,-2.5914,-2.5188,-2.4297,-2.5082,-2.5521,-2.5346,-2.5364,-2.5471,-2.5604,-2.5475,-2.5534,-2.5734,-2.5797,-2.5797,-2.5734,-2.5734,-2.5467,-1.8647,-1.8372,0.0,-2.0247,-2.0105,-2.0481,0.0,0.0,-2.4647,-2.6922,-2.7872,-2.8812,-3.0474,-3.1612,-3.2844,-3.4423,-3.5292,-3.6101,-3.7272,-3.7491,-3.7505,-3.7317,-3.7945,-3.8135,-3.7506,-3.7063,-3.6766,-3.6512,-3.5831,-3.5398,-3.5339,-3.6543,-3.6689,-3.547,-3.6802,-3.7239,-3.6614,-3.7097,-3.7153,-3.6796,-3.7168,-3.7389,-3.7448,-3.7448,-3.7682,-3.803,-3.7827,-3.7253,-3.6477,-3.6402,-3.6028,-3.5504,-3.5504,-3.5504,-3.5504,-3.5504,-3.5504,-3.5504,-3.5504,-3.5504,-3.5504,-3.5504,-3.5504,-3.5504,-3.5504,-3.5504,-3.5504,-3.5504,-3.5524,-3.5593,-3.5533,-3.5661,-3.5725,-3.5852,-3.5867,-3.5837,-3.5776,-3.5872,-3.5628,-3.4574,-3.4031,-3.3456,-3.2571,-3.206,-3.1841,-3.1868,-3.0684,-2.9801,-2.9726,-2.8457,-2.7375,-2.6718,-2.6583,-2.6314,-2.5764,-2.5644,-2.5538,-2.5416,-2.5523,-2.5615,-2.5568,-2.5458,-2.5693,-2.6302,-2.6268,-2.65,-2.7011,-2.7128,-2.7128,-2.7011,-2.7011,-2.6651,-2.0381,0.0,0.0,0.0,-2.3164,-2.4851,-2.6366,-2.7407,-2.8424,-2.9896,-3.087,-3.1983,-3.3398,-3.4343,-3.5134,0.0,-3.6736,-3.7296,-3.7582,-3.7598,-3.7433,-3.7082,-3.7443,-3.7355,-3.6582,-3.6611,-3.6509,-3.5933,-3.5936,-3.5909,-3.5909,-3.6488,-3.6532,-3.5923,-3.656,-3.6967,-3.704,-3.6837,-3.7084,-3.7624,-3.7478,-3.755,-3.7884,-3.7884,-3.8104,-3.8323,-3.7828,-3.7458,-3.7193,-3.6573,-3.6179,-3.5896,-3.5589,-3.5504,-3.5504,-3.5504,-3.5504,-3.5504,-3.5504,-3.5504,-3.5504,-3.5504,-3.5504,-3.5504,-3.5504,-3.5504,-3.5504,-3.5504,-3.5554,-3.5589,-3.5688,-3.5752,-3.5831,-3.5973,-3.5973,-3.5867,-3.5332,-3.5304,-3.5044,-3.4147,-3.3863,-3.3592,-3.3125,-3.2601,-3.2225,-3.2284,-3.1196,-3.0256,-2.9863,-2.8847,-2.7919,-2.723,-2.7156,-2.6901,-2.6243,-2.6527,-2.6587,-2.6213,-2.6542,-2.6752,-2.6752,-2.6668,-2.6703,-2.6985,-2.6849,-2.688,-2.7181,-2.7196,-2.7144,-2.7093,-2.7093,-2.6894,-2.1768,0.0,0.0,-2.4121,-2.6461,-2.8671,-2.8803,-3.006,-3.1539,-3.2605,-3.3546,-3.4491,-3.5669,-3.6141,-3.6467,-3.6598,-3.7225,-3.7584,-3.7275,-3.7447,-3.7258,-3.6453,-3.6476,-3.6226,-3.5444,-3.597,-3.6149,-3.5718,-3.604,-3.6388,-3.6577,-3.6736,-3.6751,-3.6591,-3.6751,-3.707,-3.7549,-3.707,-3.7288,-3.8202,-3.7767,-3.7781,-3.8202,-3.8202,-3.8277,-3.8486,-3.7959,-3.7784,-3.775,-3.6961,-3.6437,-3.6149,-3.5821,-3.5589,-3.5504,-3.5504,-3.5504,-3.5504,-3.5504,-3.5504,-3.5504,-3.5504,-3.5504,-3.5504,-3.5504,-3.5504,-3.5504,-3.5504,-3.5504,-3.5504,-3.5589,-3.5638,-3.5703,-3.5861,-3.5861,-3.5661,-3.5037,-3.4979,-3.4766,-3.419,-3.395,-3.383,-3.3769,-3.3215,-3.2721,-3.2542,-3.1762,-3.0889,-3.0087,-2.9154,-2.8412,-2.7904,-2.7679,-2.743,-2.6901,-2.7305,-2.7415,-2.6901,-2.7305,-2.7625,-2.7625,-2.7488,-2.7401,-2.7437,-2.7248,-2.7144,-2.7233,-2.7144,-2.7055,-2.7003,-2.6951,-2.6899,0.0,0.0,-2.5279,-2.8397,-2.9742,-3.0765,-3.2555,-3.3004,-3.3608,-3.5549,-3.5981,-3.6175,-3.6831,-3.6682,-3.6258,-3.5823,-3.6162,-3.6422,-3.6389,-3.704,-3.7097,-3.5908,-3.5746,-3.5361,0.0,-3.5229,-3.5857,-3.6228,-3.6301,-3.6591,-3.7244,-3.7825,-3.7883,-3.7302,-3.7839,-3.8159,-3.8173,-3.8159,-3.8159,-3.8202,-3.8188,-3.8188,-3.8202,-3.8202,-3.8277,-3.8516,-3.8501,-3.8194,-3.7824,-3.778,-3.7168,-3.6193,-3.6164,-3.5926,-3.5504,-3.5504,-3.5504,-3.5504,-3.5504,-3.5504,-3.5504,-3.5504,-3.5504,-3.5504,-3.5504,-3.5504,-3.5504,-3.5504,-3.5504,-3.5504,-3.5504,-3.5504,-3.5504,-3.5504,-3.5504,-3.5504,-3.5474,-3.5559,-3.5593,-3.5444,-3.5018,-3.4615,-3.4505,-3.3903,-3.3245,-3.2617,-3.2378,-3.1812,-3.0642,-2.9385,-2.8592,-2.8562,-2.7979,-2.761,-2.7595,-2.761,-2.761,-2.7595,-2.761,-2.7625,-2.7625,-2.7488,-2.7437,-2.7575,-2.7437,-2.7401,-2.7401,-2.7284,-2.7144,-2.7003,-2.6899,-2.6779,-2.5515,0.0,-2.9218,-3.1922,-3.3686,-3.5282,-3.6862,-3.7453,-3.7473,-3.7201,-3.6461,-3.5508,-3.4115,-3.4237,-3.4387,-3.3787,-3.5049,-3.6154,-3.6272,-3.6409,-3.6094,-3.516,-3.5005,0.0,0.0,0.0,0.0,-3.6257,-3.6722,-3.7244,-3.7868,-3.8086,-3.8115,-3.7912,-3.8101,-3.8202,-3.8202,-3.8202,-3.8202,-3.8202,-3.8202,-3.8202,-3.8202,-3.8366,-3.8366,-3.8277,-3.8441,-3.831,-3.8032,-3.7386,-3.7175,-3.7172,-3.6603,-3.6529,-3.6716,-3.6312,-3.6148,-3.6088,-3.5654,-3.5504,-3.5504,-3.5504,-3.5504,-3.5504,-3.5504,-3.5504,-3.5504,-3.5504,-3.5504,-3.5504,-3.5504,-3.5504,-3.5504,-3.5504,-3.5504,-3.5504,-3.5504,-3.5554,-3.5539,-3.5504,-3.5245,-3.5001,-3.4937,-3.4386,-3.3583,-3.2511,-3.1545,-3.0817,-3.0413,-2.9595,-2.8964,-2.8637,-2.8786,-2.8599,-2.77,-2.8449,-2.8727,-2.8278,-2.8667,-2.8712,-2.8263,-2.8211,-2.8002,-2.7625,-2.7488,-2.735,-2.7284,-2.7144,-2.7003,-2.6899,-2.6832,-2.6779,-2.8483,-3.0514,-3.232,-3.5321,-3.6982,-3.8234,-3.9153,-3.9165,-3.8601,-3.724,-3.5856,-3.4249,-3.2291,-3.1953,-3.1801,-3.1219,-3.2703,-3.4076,-3.4704,-3.497,-3.506,-3.4868,-3.494,-3.4651,0.0,0.0,0.0,-3.5967,-3.6648,-3.7303,-3.7988,-3.8454,-3.851,-3.8292,-3.8434,-3.8449,-3.8202,-3.8202,-3.8202,-3.8202,-3.8202,-3.8202,-3.8202,-3.8366,-3.8277,-3.8202,-3.8366,-3.8277,-3.813,-3.7536,-3.7447,-3.7607,-3.7079,-3.6995,-3.7124,-3.6567,-3.641,-3.632,-3.5729,-3.5504,-3.5504,-3.5504,-3.5504,-3.5504,-3.5504,-3.5504,-3.5504,-3.5504,-3.5504,-3.5504,-3.5504,-3.5504,-3.5504,-3.5504,-3.5504,-3.5504,-3.5504,-3.5504,-3.5504,-3.5504,-3.5424,-3.5294,-3.5213,-3.4649,-3.3921,-3.3057,-3.1797,-3.0863,-3.0683,-3.0089,-2.958,-2.9325,-2.946,-2.9235,-2.8368,-2.9086,-2.94,-2.8981,-2.934,-2.94,-2.8966,-2.8951,-2.8622,-2.7949,-2.7846,-2.7675,-2.7321,-2.7144,-2.7158,-2.7378,-2.7001,-2.6963,-3.1307,-3.3034,-3.4666,-3.8512,-3.955,-3.9557,-3.9618,-3.8442,-3.706,-3.6031,-3.4118,-3.2306,0.0,0.0,-2.8754,-2.8355,-2.9373,-3.0722,-3.2106,-3.3147,-3.4177,0.0,0.0,0.0,0.0,0.0,0.0,-3.5572,0.0,-3.695,-3.7638,-3.8793,-3.9159,-3.8589,-3.8917,-3.8841,-3.8217,-3.8202,-3.8202,-3.8202,-3.8202,-3.8202,-3.8202,-3.8248,-3.8173,-3.8202,-3.8204,-3.819,-3.8219,-3.819,-3.79,-3.7506,-3.7506,-3.7269,-3.6777,-3.6363,-3.6193,-3.6089,-3.5663,-3.5504,-3.5504,-3.5504,-3.5504,-3.5504,-3.5504,-3.5504,-3.5504,-3.5504,-3.5504,-3.5504,-3.5504,-3.5504,-3.5504,-3.5504,-3.5504,-3.5504,-3.5504,-3.5504,-3.5504,-3.5504,-3.5504,-3.5439,-3.5213,-3.4679,-3.4169,-3.4041,-3.2871,-3.187,-3.1411,-3.0758,-3.0398,-3.0507,-3.0013,-2.9654,-2.9594,-2.9639,-2.9669,-2.9624,-2.9669,-2.9654,-2.9579,-2.9609,-2.931,-2.8607,-2.8607,-2.8293,-2.7679,-2.7395,-2.7669,-2.8396,-2.734,-2.7292,-3.3168,-3.5454,-3.7683,-3.9979,-4.0525,-4.0646,-4.0864,-3.9365,-3.7263,-3.4775,-3.1871,-2.8971,0.0,0.0,0.0,-2.8252,-3.0419,0.0,-3.4505,-3.5172,0.0,-3.6285,0.0,-3.6417,-3.6487,-3.6674,0.0,0.0,-3.7041,-3.7682,-3.8925,-3.8837,-3.885,-3.9019,-3.8789,-3.8527,-3.8202,-3.8202,-3.8202,-3.8202,-3.8202,-3.8277,-3.8427,-3.8296,-3.834,-3.8383,-3.8176,-3.8083,-3.8001,-3.7671,-3.7724,-3.7918,-3.7629,-3.7554,-3.7413,-3.6984,-3.6528,-3.6089,-3.5663,-3.5504,-3.5504,-3.5504,-3.5504,-3.5504,-3.5504,-3.5504,-3.5504,-3.5504,-3.5504,-3.5504,-3.5504,-3.5504,-3.5504,-3.5504,-3.5504,-3.5504,-3.5504,-3.5504,-3.5504,-3.5504,-3.5359,-3.5213,-3.5001,-3.4934,-3.4732,-3.4115,-3.3254,-3.2564,-3.2124,-3.1353,-3.0804,-3.0511,-3.0821,-3.0642,-2.9669,-3.0477,-3.0806,-3.0298,-3.0746,-3.0597,-2.9624,-3.0028,-2.9744,-2.8622,-2.8607,-2.8704,-2.8949,-2.8352,-2.8403,-2.8902,-2.8052,-2.8111,-3.5823,-3.7661,-3.9252,-4.0746,-4.0811,-4.0294,-3.9314,-3.7527,-3.5074,-3.1632,-2.8673,0.0,-2.3896,0.0,0.0,0.0,0.0,0.0,-3.3834,-3.4637,-3.5548,0.0,-3.7122,0.0,-3.7496,-3.7982,-3.8217,0.0,-3.791,-3.8281,-3.9372,-3.9565,-3.9638,-3.9491,-3.9151,-3.8604,-3.7827,-3.7812,-3.7812,-3.7812,-3.7812,-3.7899,-3.8028,-3.7942,-3.7957,-3.8112,0.0,-3.7858,-3.7829,-3.7539,-3.7594,-3.7745,-3.7624,-3.7571,-3.7496,-3.7116,-3.6793,-3.6475,-3.6103,-3.594,-3.5876,-3.5569,-3.5504,-3.5504,-3.5504,-3.5504,-3.5504,-3.5504,-3.5504,-3.5504,-3.5504,-3.5504,-3.5504,-3.5504,-3.5504,-3.5504,-3.5504,-3.5504,-3.5504,-3.5504,-3.5359,-3.5148,-3.5067,-3.5148,-3.5029,-3.4593,-3.3957,-3.3458,-3.3317,-3.2196,-3.1235,-3.0902,-3.138,-3.1322,-3.0354,-3.0891,-3.1144,-3.0758,-3.1099,-3.0981,-3.0309,-3.0648,-3.0365,-2.9366,-2.9391,-2.9421,-2.9456,-2.9029,-2.9124,-2.9663,-2.8876,-2.8704,-3.8498,-3.9419,-3.9878,-4.0986,-4.05,-3.9093,-3.6534,-3.4334,-3.1694,-2.7697,0.0,-2.3422,-2.255,-2.2607,-2.3142,-2.4322,0.0,-2.9592,-3.2221,-3.3465,-3.4927,-3.7294,-3.772,-3.7962,-3.8187,-3.9314,-3.9847,-3.9528,-3.8992,-3.9023,-3.9613,-4.0557,-4.07,-3.9965,-3.9737,-3.9053,-3.7719,-3.7629,-3.7569,-3.7569,-3.7425,-3.7381,-3.7449,-3.736,-3.7481,-3.7579,-3.7548,-3.7518,-3.7526,-3.7526,-3.7444,-3.7331,-3.7368,-3.7338,-3.7188,-3.692,-3.6823,-3.6747,-3.6566,-3.6492,-3.6367,-3.5812,-3.5634,-3.5634,-3.5634,-3.5634,-3.5634,-3.5634,-3.5634,-3.5634,-3.5569,-3.5569,-3.5569,-3.5504,-3.5504,-3.5504,-3.5504,-3.5504,-3.5504,-3.5504,-3.5359,-3.5213,-3.5213,-3.5213,-3.5213,-3.5213,-3.4634,-3.4267,-3.4472,-3.304,-3.1852,-3.1485,-3.1827,-3.178,-3.1191,-3.1132,-3.1087,-3.1087,-3.1087,-3.1043,-3.0955,-3.1131,-3.0981,-3.027,-3.041,-3.0227,-2.9834,-2.9635,-2.9903,-3.0627,-2.9707,-2.923,-3.8811,-3.9719,-4.0331,-4.0277,-3.9368,-3.7717,-3.5065,-3.2039,0.0,0.0,-2.3077,-2.128,-2.0481,-2.1263,-2.3088,-2.623,0.0,0.0,0.0,0.0,-3.6012,0.0,0.0,0.0,0.0,0.0,0.0,0.0,0.0,-4.0493,-4.0898,-4.0573,-4.0268,-4.0146,-3.992,-3.9728,-3.9501,-3.8747,-3.8406,-3.8406,-3.7704,-3.7518,-3.7624,-3.7349,-3.7395,-3.7632,-3.7259,0.0,-3.7288,-3.7288,-3.7226,-3.7095,-3.7204,-3.6888,-3.642,-3.6519,-3.6268,-3.5903,-3.6178,-3.6274,-3.6274,-3.6304,-3.6304,-3.6304,-3.6304,-3.6304,-3.6304,-3.6304,-3.6304,-3.6241,-3.5988,-3.591,-3.5861,-3.5569,-3.5504,-3.5504,-3.5504,-3.5504,-3.5504,-3.5504,-3.5439,-3.5424,-3.5213,-3.5359,-3.5359,-3.5213,-3.4634,-3.4267,-3.4472,-3.3627,-3.2852,-3.2363,-3.2288,-3.1975,-3.1352,-3.119,-3.1087,-3.1087,-3.1087,-3.0837,-3.0306,-3.0851,-3.0836,-3.0129,-3.0256,-3.0577,-3.1008,-3.0556,-3.063,-3.1287,-3.0503,-3.0078,-3.8826,-3.9612,-4.0286,-3.9732,-3.8576,-3.6557,-3.2792,0.0,0.0,0.0,-2.1314,-2.039,-1.998,0.0,0.0,0.0,0.0,0.0,0.0,0.0,0.0,0.0,0.0,0.0,0.0,0.0,0.0,0.0,0.0,-4.0842,-4.1447,-4.0624,-3.9982,-3.9627,-3.8974,-3.8708,-3.8775,-3.7918,-3.775,-3.8152,-3.7314,-3.701,-3.706,-3.6932,-3.6963,-3.7159,-3.6956,-3.6863,-3.6969,-3.6969,-3.6847,-3.6724,-3.6798,-3.6643,-3.6352,-3.6538,-3.6476,-3.6274,-3.6538,-3.6646,-3.6769,-3.6831,-3.6723,-3.6492,-3.6492,-3.6492,-3.6492,-3.6492,-3.6367,-3.6163,-3.6037,-3.5861,-3.5683,-3.5569,-3.5504,-3.5504,-3.5504,-3.5504,-3.5504,-3.5504,-3.5504,-3.5439,-3.5359,-3.5439,-3.5439,-3.5359,-3.5076,-3.4867,-3.4867,-3.4614,-3.4047,-3.3034,-3.2685,-3.2296,-3.1618,-3.1145,-3.0821,-3.0821,-3.0821,-3.069,-3.0382,-3.0734,-3.0808,-3.0499,-3.0702,-3.0966,-3.1278,-3.1138,-3.0974,-3.0887,-3.0389,-2.9773,-3.8577,-3.9336,-3.9974,-3.9283,-3.7681,-3.5112,-3.0657,-2.7627,0.0,0.0,-2.0185,-2.008,-2.0005,0.0,-2.1747,0.0,0.0,0.0,0.0,0.0,0.0,0.0,0.0,0.0,0.0,0.0,0.0,0.0,0.0,0.0,-4.1146,-4.0489,-3.9888,-3.9357,-3.8743,-3.8461,-3.8589,-3.7591,-3.7389,-3.809,-3.7017,-3.6492,-3.6492,-3.6492,-3.6554,-3.6662,-3.6662,-3.6662,-3.6662,-3.6662,-3.6616,-3.6492,-3.6492,-3.6492,-3.6492,-3.66,-3.6662,-3.6662,-3.6862,-3.7044,-3.7134,-3.7194,-3.6968,-3.6739,-3.6739,-3.6739,-3.6739,-3.6739,-3.6538,-3.6289,-3.6226,-3.6004,-3.5793,-3.5814,-3.5779,-3.5714,-3.5714,-3.5609,-3.5504,-3.5504,-3.5504,-3.5504,-3.5504,-3.5504,-3.5504,-3.5504,-3.5504,-3.5439,-3.5294,-3.5424,-3.5051,-3.388,-3.3391,-3.2834,-3.2173,-3.1392,-3.0891,-3.0846,-3.0715,-3.0642,-3.0568,-3.0702,-3.0762,-3.0762,-3.1043,-3.1234,-3.1234,-3.1409,-3.1066,-3.0312,-3.0184,-2.9251,-3.806,-3.8784,-3.9377,-3.8591,-3.6064,-3.2934,-2.956,0.0,0.0,-2.0665,-2.01,-2.008,-2.0005,-1.999,-2.0843,0.0,0.0,-2.5834,0.0,0.0,0.0,0.0,0.0,0.0,0.0,0.0,0.0,0.0,0.0,0.0,-3.9401,-3.9906,-4.0256,-4.0193,-4.0873,-4.1238,-4.1238,-3.964,-3.8902,-3.8949,-3.7296,-3.6492,-3.6492,-3.6492,-3.6492,-3.6492,-3.6492,-3.6492,0.0,-3.6492,-3.6492,-3.6492,-3.6492,-3.6492,-3.6492,-3.6492,-3.6492,-3.6554,-3.6662,-3.6862,-3.706,-3.7134,-3.727,-3.7421,-3.7421,-3.7421,-3.7421,-3.7421,-3.7421,-3.7285,-3.6999,-3.6877,-3.6848,-3.6843,-3.6667,-3.6402,-3.6402,-3.5923,-3.5504,-3.5504,-3.5504,-3.5504,-3.5504,-3.5504,-3.5504,-3.5504,-3.5504,-3.5504,-3.5439,-3.5504,-3.5459,-3.534,-3.455,-3.3799,-3.3238,-3.2357,-3.1792,-3.1699,-3.1143,-3.0702,-3.0628,-3.0628,-3.0642,-3.0642,-3.0762,-3.0955,-3.1132,-3.1234,-3.0951,-3.0312,-3.0184,-2.9251,-3.6627,-3.7872,-3.8572,-3.7732,-3.5031,-3.1832,-2.8936,0.0,-2.2381,-2.0593,-2.022,-2.0166,-2.0041,-1.9955,-2.0367,-2.1729,0.0,0.0,0.0,0.0,0.0,0.0,0.0,0.0,0.0,0.0,0.0,0.0,0.0,0.0,-3.9185,-3.9877,-4.0287,-4.0287,-4.0177,-4.013,-4.013,-3.9468,-3.9074,-3.9058,-3.7871,-3.7281,-3.7265,-3.6739,-3.6492,-3.6492,-3.6492,-3.6492,0.0,-3.6492,-3.6492,-3.6492,-3.6492,-3.6492,-3.6492,-3.6492,-3.6492,-3.6492,-3.6662,-3.68,-3.6999,-3.715,-3.7329,-3.748,-3.748,-3.748,-3.748,-3.748,-3.7361,-3.7181,-3.6999,-3.6877,-3.6693,-3.672,-3.6637,-3.6556,-3.628,-3.6049,-3.5836,-3.5579,-3.5504,-3.5504,-3.5504,-3.5504,-3.5504,-3.5504,-3.5504,-3.5439,-3.5359,-3.5439,-3.5439,-3.5359,-3.4669,-3.4099,-3.3847,-3.2729,-3.2001,-3.1941,-3.1232,-3.0762,-3.0702,-3.0642,-3.0568,-3.0568,-3.0702,-3.0821,-3.0895,-3.1073,-3.0527,-2.9327,-2.9214,-2.855,-3.4156,-3.5707,-3.6664,-3.5983,-3.3425,-3.0506,0.0,0.0,-2.1698,-2.0535,-2.0304,-2.0235,-2.0041,-2.0005,-2.0222,-2.091,0.0,-2.2229,-2.5546,0.0,0.0,0.0,0.0,0.0,0.0,0.0,0.0,0.0,0.0,0.0,-3.9515,-3.9971,-4.0193,-3.994,-3.9624,-3.9325,-3.9074,-3.8855,-3.8698,-3.8682,-3.784,-3.7389,-3.7374,-3.677,-3.6492,-3.6492,-3.6492,-3.6492,0.0,-3.6492,-3.6492,-3.6492,-3.6492,-3.6492,-3.6492,-3.6538,-3.6554,-3.66,-3.6739,-3.6923,-3.7044,-3.7194,-3.7329,-3.748,-3.748,-3.748,-3.748,-3.748,-3.7301,-3.7121,-3.7121,-3.7017,-3.6894,-3.6894,-3.6883,-3.6838,-3.6481,-3.6345,-3.616,-3.5838,-3.5812,-3.5748,-3.5683,-3.5619,-3.5619,-3.5504,-3.5504,-3.5439,-3.5294,-3.5439,-3.5439,-3.5294,-3.4862,-3.4565,-3.4565,-3.3476,-3.2611,-3.2372,-3.1632,-3.1071,-3.0836,-3.0702,-3.0568,-3.0568,-3.0702,-3.0762,-3.0821,-3.0955,-3.0338,-2.907,-2.864,-2.8038,-3.0335,-3.1967,-3.3429,-3.303,-3.0989,-2.8636,0.0,0.0,-2.1213,-2.0443,-2.0304,-2.0235,-2.0041,-2.0005,-2.0373,-2.1509,-2.168,0.0,-2.5348,0.0,0.0,0.0,0.0,0.0,0.0,0.0,0.0,0.0,0.0,0.0,-4.0318,-4.0287,-3.994,-3.9169,-3.9893,-3.9908,-3.9138,-3.823,-3.7825,-3.7809,-3.694,-3.6492,-3.6492,-3.6492,-3.6492,-3.6492,-3.6492,-3.6492,0.0,-3.6492,-3.6492,-3.6492,-3.6492,-3.6492,-3.6492,-3.6662,-3.6723,-3.6723,-3.6938,-3.7105,-3.7194,-3.7194,-3.7329,-3.748,-3.748,-3.748,-3.748,-3.748,-3.748,-3.748,-3.748,-3.7712,-3.7904,-3.7904,-3.7636,-3.7367,-3.7367,-3.6938,-3.6507,-3.6492,-3.6492,-3.6367,-3.6037,-3.5973,-3.5846,-3.5569,-3.5504,-3.5504,-3.5504,-3.5504,-3.5504,-3.5504,-3.5504,-3.5489,-3.5489,-3.4861,-3.4125,-3.3374,-3.2492,-3.1646,-3.085,-3.0702,-3.0568,-3.0568,-3.0568,-3.0702,-3.0821,-3.0821,-3.0499,-2.9856,-2.8914,-2.8038,-2.9318,-3.0406,-3.0989,-3.0754,-2.8973,-2.6828,-2.5362,0.0,-2.1303,-2.0478,-2.0304,-2.027,-2.008,-2.008,-2.0451,-2.1689,-2.1931,0.0,0.0,0.0,0.0,0.0,0.0,0.0,0.0,0.0,0.0,0.0,0.0,-4.0334,-3.9531,-3.9987,-3.9924,-3.9154,-3.9325,-3.9043,-3.8214,-3.8542,-3.8354,-3.7809,-3.7529,-3.7358,-3.7358,-3.6754,-3.6492,-3.6492,-3.6492,-3.6492,-3.6492,-3.6492,-3.6492,-3.6492,-3.6492,-3.6554,-3.6662,-3.6662,-3.68,-3.6938,-3.7089,-3.7134,-3.7194,-3.7194,-3.7254,-3.727,-3.727,-3.7405,-3.748,-3.748,-3.748,-3.748,-3.748,-3.7578,-3.76,-3.76,-3.7639,-3.7544,-3.7219,-3.7078,-3.6855,-3.6584,-3.6492,-3.6492,-3.6367,-3.6367,-3.6304,-3.6178,-3.6178,-3.6115,-3.5861,-3.5861,-3.5733,-3.5504,-3.5504,-3.5504,-3.5504,-3.4457,-3.3662,-3.3297,-3.2108,-3.122,-3.0836,-3.0702,-3.0568,-3.0568,-3.0568,-3.0642,-3.0642,-3.0642,-3.0308,-2.9551,-2.9232,-2.8742,0.0,-2.7865,-2.8359,-2.8162,-2.6885,0.0,0.0,0.0,-2.1095,-2.045,-2.0304,-2.027,-2.0115,-2.008,-2.0451,-2.1728,-2.1901,0.0,0.0,0.0,0.0,0.0,0.0,0.0,0.0,0.0,0.0,0.0,-3.9311,-3.9499,-3.8636,-3.9107,-3.8965,-3.8183,-3.8464,-3.8199,-3.7312,-3.7871,-3.7871,-3.7312,-3.7312,-3.7312,-3.7281,-3.6754,-3.6492,-3.6492,-3.6492,-3.6492,0.0,-3.6492,-3.6492,-3.6492,-3.6492,-3.6554,-3.6662,-3.68,-3.6877,-3.6999,-3.7225,-3.7329,-3.7329,-3.7329,-3.7329,-3.7329,-3.7194,-3.7329,-3.748,-3.748,-3.748,-3.748,-3.748,-3.748,-3.748,-3.748,-3.7555,-3.756,-3.7275,-3.7265,-3.725,-3.6939,-3.6862,-3.6862,-3.6677,-3.6677,-3.6631,-3.6492,-3.6492,-3.6429,-3.6241,-3.6163,-3.6115,-3.5876,-3.5634,-3.5483,-3.5483,-3.4703,-3.408,-3.3779,-3.2507,-3.1677,-3.1247,-3.0819,-3.0568,-3.0568,-3.0568,-3.0568,-3.0568,-3.0568,-3.0118,-2.9218,-2.9508,-2.9188,0.0,0.0,0.0,0.0,0.0,0.0,0.0,0.0,0.0,0.0,0.0,-2.0285,-2.0161,-2.0076,-2.0409,-2.1672,-2.1883,0.0,0.0,0.0,0.0,0.0,0.0,0.0,0.0,0.0,0.0,-3.8935,-3.8965,-3.862,-3.7778,-3.7794,-3.7374,-3.6522,-3.7281,-3.7312,-3.6492,-3.6492,-3.6492,-3.6492,-3.6492,-3.6492,-3.6492,-3.6492,-3.6492,0.0,-3.6492,-3.6492,-3.6492,-3.6492,-3.6492,-3.6492,-3.6492,-3.6492,-3.6554,-3.6877,-3.6999,-3.706,-3.7361,-3.7449,-3.7401,-3.7338,-3.7354,-3.7342,-3.7191,-3.7298,-3.748,-3.748,-3.748,-3.748,-3.748,-3.748,-3.748,-3.748,-3.748,-3.748,-3.748,-3.748,-3.748,-3.748,-3.748,-3.7421,-3.7076,-3.7015,-3.6938,-3.6616,-3.6554,-3.6554,-3.6554,-3.6554,-3.6554,-3.6492,-3.5845,-3.5369,-3.5414,-3.5394,-3.5075,-3.4445,-3.3508,-3.2655,-3.1944,-3.1055,-3.06,-3.0497,-3.0497,-3.0497,-3.0497,-3.0497,-2.9959,-2.899,-2.9675,-2.9404,-2.1295,0.0,-2.3023,-2.281,-2.3503,-2.3803,0.0,0.0,0.0,0.0,0.0,0.0,0.0,0.0,-2.0567,-2.2179,-2.2657,-2.3269,0.0,0.0,0.0,0.0,0.0,0.0,0.0,0.0,0.0,-3.7483,-3.7904,-3.77,-3.6831,-3.7467,-3.7374,-3.6522,-3.6708,-3.6708,-3.6492,-3.6492,-3.6554,-3.6662,-3.6554,-3.6554,-3.6662,-3.6554,-3.6492,-3.6492,-3.6492,-3.6492,-3.6492,-3.6492,-3.6492,-3.6492,-3.66,-3.6662,-3.6662,-3.7029,-3.7134,-3.721,-3.7405,-3.7058,-3.6389,-3.5638,-3.5826,-3.6338,-3.6279,-3.6877,-3.748,-3.748,-3.7405,-3.7254,-3.7254,-3.7254,-3.7254,-3.7254,-3.7405,-3.748,-3.748,-3.748,-3.748,-3.748,-3.748,-3.748,-3.7421,-3.7361,-3.7361,-3.7301,-3.7225,-3.7181,-3.6938,-3.6877,-3.6754,-3.6554,-3.5738,-3.5309,-3.5414,-3.4451,-3.3768,-3.3497,-3.2801,-3.1947,-3.1057,-3.078,-3.041,-2.9766,-2.9752,-2.9752,-2.9752,-2.9752,-2.9589,-2.9362,-2.9565,-2.9461,-2.0589,-2.1496,-2.2061,-2.1928,-2.2856,-2.3298,0.0,0.0,0.0,0.0,0.0,0.0,0.0,0.0,0.0,0.0,-2.3,0.0,0.0,0.0,0.0,0.0,0.0,0.0,0.0,0.0,-3.7044,-3.6862,-3.7219,-3.7188,-3.6631,-3.7157,-3.7188,-3.6754,-3.6754,-3.6677,-3.66,-3.6554,-3.6616,-3.6862,-3.6677,-3.6677,-3.6862,-3.6754,-3.6677,-3.66,-3.66,-3.6554,-3.6492,-3.6492,-3.6492,-3.6492,-3.66,-3.6662,-3.6723,-3.7029,-3.715,-3.7254,-3.7405,-3.6947,-3.6142,-3.5919,-3.5951,-3.6135,-3.6448,-3.6927,-3.7329,-3.7329,-3.7254,-3.7194,-3.7194,-3.7134,-3.715,-3.7329,-3.7329,-3.7405,-3.748,-3.748,-3.748,-3.748,-3.748,-3.748,-3.748,-3.748,-3.748,-3.748,-3.748,-3.7421,-3.7241,-3.7241,-3.7181,-3.6984,-3.596,-3.5295,-3.5279,-3.4079,-3.3454,-3.3744,-3.2959,-3.2159,-3.1268,-3.0839,-3.0278,-2.9525,-2.9525,-2.9525,-2.9525,-2.9525,-2.9415,-2.9192,-2.9192,-2.9147,-2.0384,-2.1114,-2.1807,-2.1882,-2.2555,-2.2801,0.0,0.0,0.0,0.0,0.0,0.0,0.0,0.0,0.0,0.0,0.0,0.0,0.0,0.0,0.0,0.0,0.0,0.0,0.0,-3.7068,-3.7013,-3.6769,-3.6862,-3.6877,-3.6723,-3.6938,-3.7015,-3.7015,-3.7015,-3.6938,-3.6785,-3.6662,-3.6693,-3.7015,-3.68,-3.6862,-3.706,-3.6999,-3.6938,-3.6723,-3.6723,0.0,-3.6554,-3.6554,-3.6554,-3.6538,-3.6446,-3.6585,-3.6785,-3.6874,-3.6995,-3.7238,-3.7279,-3.6715,-3.6095,-3.6676,-3.6472,-3.6126,-3.6817,-3.71,-3.7194,-3.7194,-3.7194,-3.7194,-3.7194,-3.7105,-3.7121,-3.7421,-3.7329,-3.727,-3.7464,-3.748,-3.748,-3.748,-3.748,-3.748,-3.748,-3.748,-3.748,-3.748,-3.748,-3.748,-3.748,-3.748,-3.748,-3.748,-3.6232,-3.5338,-3.5225,-3.4006,-3.3529,-3.4191,-3.3453,-3.2608,-3.1774,-3.0739,-2.9913,-2.9334,-2.9319,-2.9319,-2.9319,-2.9319,-2.9177,-2.8794,-2.8794,-2.8671,-1.9714,-2.0415,-2.1007,-2.1718,-2.2266,-2.2345,0.0,0.0,0.0,0.0,0.0,0.0,0.0,0.0,0.0,0.0,0.0,0.0,0.0,0.0,0.0,0.0,0.0,0.0,-3.5748,-3.6341,-3.6892,-3.7134,-3.6907,-3.68,-3.6938,-3.6999,-3.7015,-3.7015,-3.7015,-3.7044,-3.7134,-3.6984,-3.6938,-3.7015,-3.6938,-3.7044,-3.7134,-3.706,-3.6999,-3.6938,0.0,-3.6862,-3.6662,-3.6862,-3.68,-3.66,-3.624,-3.644,-3.6921,-3.6491,-3.6692,-3.71,-3.6578,-3.5801,-3.5138,-3.5232,-3.5201,-3.5248,-3.6111,-3.6723,-3.7194,-3.7044,-3.706,-3.706,-3.706,-3.7105,-3.7194,-3.7254,-3.7329,-3.7464,-3.748,-3.748,-3.748,-3.748,-3.748,-3.748,-3.748,-3.748,-3.748,-3.748,-3.748,-3.748,-3.748,-3.748,-3.748,-3.748,-3.6117,-3.5282,-3.5338,-3.4006,-3.3244,-3.3448,-3.33,-3.2551,-3.1047,-2.9504,-2.8664,-2.8572,-2.8556,-2.8556,-2.8556,-2.8556,-2.856,-2.8501,-2.8501,-2.8455,-1.9872,-2.0297,-2.0763,-2.1291,-2.1938,-2.2183,-2.1051,0.0,0.0,0.0,0.0,0.0,0.0,0.0,0.0,0.0,0.0,0.0,0.0,0.0,0.0,0.0,0.0,-3.6068,-3.6369,-3.6773,-3.7013,-3.7194,-3.715,-3.7105,-3.7089,-3.7225,-3.7068,-3.6557,-3.6541,-3.6354,-3.5845,-3.5861,-3.631,-3.7241,-3.7165,-3.6946,-3.6644,-3.6977,-3.6841,-3.6469,0.0,-3.6877,-3.6693,-3.6397,-3.6181,-3.5998,-3.5453,-3.5435,-3.5758,-3.6084,-3.642,-3.6641,-3.6326,-3.5645,-3.4893,-3.4893,-3.4893,-3.5091,-3.5954,-3.6601,-3.7105,-3.7015,-3.6938,-3.6862,-3.6938,-3.6923,-3.6907,-3.7134,-3.7089,-3.6984,-3.7029,-3.7165,-3.7241,-3.7241,-3.7285,-3.7389,-3.748,-3.7405,-3.7389,-3.748,-3.748,-3.748,-3.748,-3.748,-3.7338,-3.6959,-3.5938,-3.5124,-3.4619,-3.3731,-3.3203,-3.3203,-3.2856,-3.2248,-3.1384,-3.0301,-2.9503,-2.9049,-2.9033,-2.8814,-2.8411,-2.8411,-2.8411,-2.8411,-2.8411,-2.8411,-1.9969,-2.0174,-2.0494,-2.073,0.0,-2.189,-2.1298,0.0,0.0,0.0,0.0,0.0,0.0,0.0,0.0,0.0,0.0,0.0,0.0,0.0,-3.4486,-3.5425,-3.531,-3.5623,-3.6729,-3.6682,-3.6588,-3.6648,-3.6782,-3.6798,-3.6648,-3.6782,-3.6605,-3.5938,-3.5922,-3.5556,-3.4736,-3.4852,-3.5556,-3.6857,-3.6723,-3.6366,-3.5938,-3.6413,-3.6322,-3.5767,-3.6297,-3.638,-3.6197,-3.5729,-3.5409,-3.5243,-3.4549,-3.4403,-3.4581,-3.5556,-3.5922,-3.5922,-3.5922,-3.5352,-3.4634,-3.4847,-3.48,-3.4831,-3.5907,-3.6322,-3.6533,-3.6921,-3.6692,-3.6538,-3.6831,-3.6739,-3.6677,-3.7013,-3.6785,-3.6554,-3.6662,-3.68,-3.6877,-3.6938,-3.7044,-3.721,-3.7405,-3.7329,-3.7329,-3.748,-3.748,-3.748,-3.748,-3.748,-3.7212,-3.65,-3.5805,-3.492,-3.3834,-3.3448,-3.3203,-3.3112,-3.2453,-3.2008,-3.1888,-3.1009,-3.0223,-2.9611,-2.9391,-2.9018,-2.8411,-2.8411,-2.8411,-2.8411,-2.8411,-2.8411,-1.9457,-1.9639,-1.9833,-2.0025,0.0,0.0,-2.2751,0.0,0.0,0.0,0.0,0.0,0.0,0.0,0.0,0.0,0.0,0.0,0.0,0.0,-3.7093,-3.6904,-3.6297,-3.5879,-3.5823,-3.5161,-3.479,-3.5049,-3.4949,-3.4949,-3.5049,-3.5107,-3.5091,-3.4971,-3.4971,-3.4956,-3.4909,-3.4909,-3.4898,-3.4891,-3.4992,-3.5018,-3.4971,-3.5018,-3.5018,-3.4987,-3.5034,-3.4992,-3.4833,-3.4945,-3.4872,-3.4694,-3.4012,-3.3748,-3.3882,-3.4665,-3.4971,-3.4971,-3.4971,-3.4478,-3.3898,-3.4649,-3.4416,-3.4094,-3.5692,-3.5591,-3.5155,-3.658,-3.629,-3.5752,-3.6492,-3.6862,-3.6938,-3.6785,-3.6723,-3.6662,-3.6554,-3.6554,-3.6554,-3.6723,-3.6862,-3.706,-3.7194,-3.7329,-3.748,-3.748,-3.748,-3.748,-3.748,-3.748,-3.7212,-3.65,-3.5805,-3.4786,-3.33,-3.3128,-3.3096,-3.3096,-3.2453,-3.2076,-3.2076,-3.0522,-2.9642,-2.9596,-2.8894,-2.8458,-2.8411,-2.8411,-2.8411,-2.8411,-2.8411,-2.8411,-1.8847,-1.9416,-2.0028,-1.9562,0.0,0.0,0.0,0.0,0.0,0.0,0.0,0.0,0.0,0.0,0.0,0.0,0.0,0.0,0.0,-3.7572,-3.7568,-3.6832,-3.6564,-3.6059,-3.5171,-3.479,-3.4694,-3.4909,-3.4852,-3.4852,-3.4893,-3.4893,-3.4649,-3.4172,-3.4156,-3.3954,-3.3463,-3.3463,-3.3463,-3.3423,-3.4447,-3.4618,-3.4172,-3.4607,-3.4561,-3.4188,-3.4607,-3.4736,-3.4647,-3.4286,-3.4043,-3.3851,-3.3172,-3.2894,-3.2987,-3.3851,-3.4156,-3.4156,-3.4156,-3.3945,-3.364,-3.3454,-3.3516,-3.382,-3.4447,-3.467,-3.4802,-3.5388,-3.5533,-3.5706,-3.6476,-3.6677,-3.6677,-3.6723,-3.6476,-3.6226,-3.6163,-3.6289,-3.6352,-3.6538,-3.6816,-3.706,-3.7345,-3.7329,-3.7329,-3.748,-3.748,-3.748,-3.748,-3.7101,-3.6564,-3.5853,-3.4707,-3.3786,-3.325,-3.315,-3.3165,-3.3203,-3.3003,-3.262,-3.2143,-3.1522,-3.0666,-2.9611,-2.9299,-2.891,-2.8411,-2.8411,-2.8411,-2.8411,-2.8411,-2.8411,-1.8779,-1.9306,-1.9922,0.0,0.0,0.0,0.0,0.0,0.0,0.0,0.0,0.0,0.0,0.0,0.0,0.0,0.0,-3.6701,-3.6814,-3.7625,-3.7744,-3.6626,-3.666,-3.6204,-3.4898,-3.4763,-3.4695,-3.4566,-3.4363,-3.4182,-3.4027,-3.4027,-3.381,-3.3305,-3.3274,-3.3058,-3.2523,-3.2523,-3.2523,-3.2539,-3.3634,-3.3836,-3.3305,-3.3754,-3.3723,-3.3305,-3.3769,-3.397,-3.3939,-3.3475,-3.3218,-3.3044,-3.2567,-3.2398,-3.2444,-3.3048,-3.3274,-3.3274,-3.3274,-3.3274,-3.3197,-3.2607,-3.2777,-3.3321,-3.3609,-3.3841,-3.4063,-3.4554,-3.4747,-3.5089,-3.6044,-3.6384,-3.6492,-3.6616,-3.6183,-3.5841,-3.6117,-3.598,-3.6013,-3.6492,-3.6816,-3.706,-3.7345,-3.7329,-3.7329,-3.748,-3.748,-3.748,-3.748,-3.7054,-3.6406,-3.5489,-3.4038,-3.315,-3.3203,-3.315,-3.315,-3.3256,-3.3256,-3.2982,-3.2525,-3.1966,-3.1138,-2.9971,-2.9487,-2.9064,-2.8768,-2.8768,-2.8768,-2.8768,-2.8768,-2.8645,-1.9265,-1.9286,0.0,0.0,0.0,0.0,0.0,0.0,0.0,0.0,0.0,0.0,0.0,0.0,0.0,-3.0323,-3.3902,-3.6448,-3.6653,-3.7657,-3.789,-3.6411,-3.6717,-3.6526,-3.5023,-3.4809,-3.452,-3.3928,-3.3232,-3.2641,-3.2247,-3.2191,-3.2247,-3.2398,-3.2398,-3.2398,-3.2398,-3.2398,-3.2398,-3.2398,-3.2398,-3.2398,-3.2398,-3.2398,-3.2398,-3.2398,-3.2398,-3.2398,-3.2398,-3.2398,-3.2398,-3.2398,-3.2398,-3.2398,-3.2398,-3.2398,-3.2398,-3.2398,-3.2398,-3.2398,-3.2398,-3.2398,-3.2398,-3.2576,-3.3454,-3.3048,-3.273,-3.4275,-3.4052,-3.3721,-3.5106,-3.5968,-3.6476,-3.6476,-3.583,-3.5447,-3.626,-3.5815,-3.5539,-3.6523,-3.6862,-3.7044,-3.7194,-3.7389,-3.748,-3.748,-3.748,-3.748,-3.7464,-3.7464,-3.6927,-3.5537,-3.4038,-3.3096,-3.3096,-3.3096,-3.3096,-3.3096,-3.3096,-3.3134,-3.3277,-3.1695,-3.0791,-3.0775,-2.9221,-2.8784,-2.9596,-2.958,-2.958,-2.9596,-2.958,-2.9175,-1.8404,0.0,0.0,0.0,0.0,0.0,0.0,0.0,0.0,0.0,0.0,0.0,0.0,0.0,0.0,-3.048,-3.37,-3.643,-3.6937,-3.8035,-3.8543,-3.7719,-3.7143,-3.6344,-3.5086,-3.4308,-3.3805,-3.363,-3.3137,-3.2757,-3.2492,-3.2398,-3.2302,-3.2247,-3.2342,-3.2453,-3.2523,-3.2757,-3.2757,-3.2523,-3.2958,-3.2958,-3.2523,-3.2453,-3.2523,-3.2718,-3.2413,-3.2358,-3.2523,-3.2453,-3.2398,-3.2398,-3.2398,-3.2398,-3.2398,-3.2398,-3.2398,-3.2398,-3.2398,-3.2398,-3.2398,-3.2398,-3.2398,-3.2428,-3.2699,-3.2622,-3.2475,-3.2946,-3.3254,-3.3506,-3.3906,-3.4552,-3.5183,-3.566,-3.563,-3.5323,-3.4986,-3.5645,-3.6199,-3.6057,-3.664,-3.721,-3.7405,-3.7464,-3.748,-3.748,-3.748,-3.7291,-3.6801,-3.6253,-3.555,-3.462,-3.3576,-3.3005,-3.3096,-3.3096,-3.3096,-3.3096,-3.3203,-3.2762,-3.1601,-3.1529,-3.0736,-2.9159,-2.9206,-2.9345,-2.9596,-2.9018,-2.9033,-2.958,-2.9018,-2.8645,-1.8262,0.0,0.0,0.0,0.0,0.0,0.0,0.0,0.0,0.0,0.0,0.0,0.0,0.0,0.0,-3.1839,-3.4248,-3.6217,-3.6488,-3.7442,-3.7956,-3.7283,-3.6896,-3.6313,-3.5321,-3.4866,-3.4408,-3.3797,-3.3355,-3.2812,-3.2097,-3.2066,-3.217,-3.2214,-3.2222,-3.2541,-3.3087,-3.2847,-3.2704,-3.2678,-3.2704,-3.2685,-3.2498,-3.2563,-3.2648,-3.2648,-3.2358,-3.2302,-3.2413,-3.2358,-3.2342,-3.2398,-3.2453,-3.2453,-3.2523,-3.2578,-3.2523,-3.2398,-3.2398,-3.2342,-3.2287,-3.2247,-3.2247,-3.2247,-3.2287,-3.2342,-3.2342,-3.2398,-3.269,-3.3059,-3.3336,-3.3521,-3.3948,-3.4963,-3.4919,-3.4614,-3.4519,-3.5254,-3.5991,-3.5895,-3.6664,-3.7329,-3.748,-3.748,-3.737,-3.7026,-3.6699,-3.631,-3.5886,-3.5169,-3.4516,-3.4077,-3.3341,-3.2951,-3.3112,-3.3096,-3.3096,-3.315,-3.3203,-3.2735,-3.1615,-3.1773,-3.1362,-3.011,-2.9757,-2.9951,-3.0576,-2.9448,-2.9242,-2.9844,-2.9389,-2.895,-1.8535,0.0,0.0,0.0,0.0,0.0,0.0,0.0,0.0,0.0,0.0,0.0,0.0,-3.1966,-3.1421,-3.3761,-3.5103,-3.5795,-3.5646,-3.6322,-3.6554,-3.5811,-3.619,-3.622,-3.5597,-3.5889,-3.5557,-3.4235,-3.366,-3.28,-3.1389,-3.1582,-3.1855,-3.2159,-3.2127,-3.2577,-3.3625,-3.2657,-3.2331,-3.2724,-3.2047,-3.1967,-3.2358,-3.2688,-3.2664,-3.24,-3.2228,-3.2204,-3.2195,-3.221,-3.2296,-3.2398,-3.2578,-3.2594,-3.2594,-3.2773,-3.2648,-3.2398,-3.2398,-3.2287,-3.2135,-3.2038,-3.1996,-3.2053,-3.2135,-3.2191,-3.2247,-3.2342,-3.2398,-3.2536,-3.3152,-3.2859,-3.2761,-3.414,-3.3944,-3.3681,-3.4467,-3.4815,-3.5123,-3.5801,-3.6731,-3.737,-3.737,-3.7433,-3.7168,-3.6326,-3.5509,-3.4971,-3.4909,-3.4301,-3.388,-3.388,-3.3302,-3.2951,-3.3043,-3.3096,-3.3181,-3.3441,-3.3335,-3.3156,-3.2978,-3.2495,-3.2349,-3.2608,-3.0856,-3.0639,-3.2022,-3.0464,-2.9908,-3.0291,-3.0274,-2.9861,0.0,-1.8486,0.0,0.0,0.0,0.0,0.0,0.0,0.0,0.0,0.0,0.0,-3.2654,-3.2305,-3.2457,-3.4283,-3.4774,-3.5114,-3.5538,-3.6081,-3.6312,-3.6061,-3.5363,-3.4936,-3.5033,-3.4324,-3.3762,-3.35,-3.3034,-3.2521,-3.2099,-3.1976,-3.1963,-3.195,-3.201,-3.2169,-3.2445,-3.243,-3.2348,-3.2264,-3.255,-3.2367,-3.1774,-3.2174,-3.2424,-3.2501,-3.2075,-3.2006,-3.2206,-3.2181,-3.2298,-3.2453,-3.2718,-3.2648,-3.2453,-3.2523,-3.2413,-3.2247,-3.2342,-3.2247,-3.2053,-3.215,-3.2094,-3.1996,-3.2038,-3.2191,-3.2342,-3.2231,-3.2413,-3.2554,-3.2622,-3.2505,-3.2475,-3.2823,-3.3249,-3.3491,-3.3033,-3.396,-3.4784,-3.4338,-3.543,-3.6452,-3.6452,-3.7042,-3.7168,-3.6326,-3.6032,-3.5676,-3.4971,-3.4188,-3.3727,-3.3727,-3.3122,-3.2773,-3.2951,-3.3058,-3.3477,-3.4425,-3.4563,-3.4639,-3.4785,-3.3861,-3.2992,-3.219,-3.2353,-3.2128,-3.1534,-3.0908,-3.0525,-3.0275,-3.0009,-2.9806,0.0,0.0,0.0,0.0,0.0,0.0,0.0,0.0,0.0,0.0,0.0,0.0,-3.2272,-3.219,-3.2409,-3.3752,-3.3943,-3.408,-3.4523,-3.4773,-3.4945,-3.5059,-3.399,-3.3516,-3.4267,-3.3471,-3.2906,-3.2889,-3.2731,-3.2396,-3.1791,-3.18,-3.1822,-3.1907,-3.1898,-3.2176,-3.2773,-3.2345,-3.2177,-3.224,-3.2211,-3.2017,-3.1761,-3.1855,-3.1964,-3.2096,-3.1694,-3.1646,-3.1784,-3.1561,-3.1831,-3.2335,-3.2435,-3.2585,-3.2711,-3.2261,-3.2175,-3.2241,-3.2028,-3.1971,-3.2094,-3.2094,-3.1996,-3.1898,-3.1996,-3.2094,-3.2191,-3.2135,-3.2262,-3.2413,-3.2302,-3.2287,-3.2342,-3.2398,-3.273,-3.2956,-3.2475,-3.3382,-3.4203,-3.3789,-3.5044,-3.6216,-3.6216,-3.6263,-3.6095,-3.566,-3.4862,-3.4203,-3.3789,-3.3321,-3.3119,-3.3175,-3.3349,-3.3536,-3.3783,-3.4351,-3.5005,-3.5675,-3.576,-3.5967,-3.6272,-3.5381,-3.4431,-3.3508,-3.3128,-3.2739,-3.2377,-3.1368,-3.0875,-3.083,-3.0652,-3.0712,0.0,0.0,0.0,0.0,0.0,0.0,0.0,0.0,0.0,0.0,0.0,-2.9633,-3.1515,-3.1713,-3.1887,-3.2954,-3.3,-3.2934,-3.3066,-3.3049,-3.307,-3.3261,-3.227,-3.1985,-3.3111,-3.2633,-3.2269,-3.2293,-3.2381,-3.2055,-3.1155,-3.1158,-3.1287,-3.1486,-3.1414,-3.184,-3.2781,-3.1857,-3.1585,-3.1884,-3.1232,-3.1072,-3.1398,-3.1237,-3.1313,-3.154,-3.1178,-3.1117,-3.1198,-3.0907,-3.1247,-3.1994,-3.2049,-3.2343,-3.2635,-3.2238,-3.2035,-3.1982,-3.1643,-3.1636,-3.1814,-3.1825,-3.1773,-3.169,-3.191,-3.2038,-3.2038,-3.2038,-3.215,-3.2302,-3.2302,-3.2302,-3.2388,-3.2662,-3.2748,-3.2702,-3.2468,-3.2971,-3.3485,-3.3485,-3.4815,-3.6016,-3.62,-3.5629,-3.506,-3.4769,-3.3516,-3.2622,-3.2678,-3.2717,-3.2834,-3.3193,-3.4099,-3.4825,-3.5053,-3.5971,-3.6692,-3.6962,-3.6863,-3.7002,-3.7386,-3.6602,-3.5869,-3.5198,-3.3859,-3.3283,-3.3405,-3.2012,-3.1385,-3.1534,-3.155,-3.1819,0.0,0.0,0.0,0.0,0.0,0.0,0.0,0.0,0.0,0.0,-2.7858,-2.9274,-2.9911,-3.058,-3.1391,-3.2569,-3.234,-3.1834,-3.1466,-3.1404,-3.1125,-3.0352,-2.9989,-3.0213,-3.1167,-3.1095,-3.1248,-3.1942,-3.1334,-3.0919,-3.0762,-3.0055,-2.9746,-2.9814,-2.9746,-2.9833,-3.004,-2.9868,-2.9816,-2.9885,-2.95,-2.9319,-2.9384,-2.9357,-3.0099,-3.1376,-3.0656,-3.0366,-3.0461,-3.0941,-3.1149,-3.1262,-3.213,-3.1883,-3.1263,-3.274,-3.206,-3.063,-3.1581,-3.1232,-3.0411,-3.1082,-3.1226,-3.1238,-3.1814,-3.2135,-3.2342,-3.2191,-3.2499,-3.2788,-3.2594,-3.2664,-3.3037,-3.3904,-3.4155,-3.3818,-3.2631,-3.2475,-3.2592,-3.2592,-3.3913,-3.5279,-3.6048,-3.6079,-3.5551,-3.4094,-3.3655,-3.3628,-3.3858,-3.3952,-3.446,-3.5546,-3.5958,-3.6218,-3.6287,-3.6525,-3.7112,-3.8101,-3.7552,-3.7386,-3.781,-3.6764,-3.6011,-3.5549,-3.5283,-3.4618,-3.3545,-3.31,-3.2646,-3.2151,-3.2057,-3.2345,0.0,0.0,0.0,0.0,0.0,0.0,0.0,0.0,0.0,0.0,-2.5857,-2.7555,-2.8542,-2.9453,-3.0142,-3.0473,-3.0734,-3.0802,-3.056,-3.0438,-3.0332,-3.0214,-2.9504,-2.9363,-3.0143,-2.9747,-2.9748,-3.0508,-3.0196,-2.9954,-2.9954,-2.9556,-2.935,-2.9403,-2.9403,-2.942,-2.9438,-2.9472,-2.9506,-2.9506,-2.9351,-2.9281,-2.9264,-2.8853,-2.916,-3.004,-2.9641,-2.9509,-2.9566,-2.9599,-3.0159,-3.099,-3.1254,-3.1599,-3.1994,-3.2466,-3.2302,-3.1845,-3.226,-3.223,-3.2149,-3.2515,-3.2488,-3.2376,-3.24,-3.2711,-3.2873,-3.2547,-3.278,-3.3156,-3.3087,-3.3492,-3.407,-3.4617,-3.5091,-3.5321,-3.4717,-3.4438,-3.4439,-3.496,-3.5117,-3.5455,-3.6353,-3.5587,-3.4877,-3.4754,-3.4447,-3.4485,-3.523,-3.5369,-3.5658,-3.6279,-3.6987,-3.7494,-3.7546,-3.8184,-3.8824,-3.9312,-3.8639,-3.8351,-3.8514,-3.7239,-3.6464,-3.6282,-3.5538,-3.4768,-3.3968,-3.3835,-3.3612,-3.3264,-3.319,-3.3467,0.0,0.0,0.0,0.0,0.0,0.0,0.0,0.0,0.0,0.0,-2.4638,-2.6118,-2.7273,-2.8444,-2.9087,-2.8783,-2.934,-2.9739,-2.9553,-2.942,-2.9453,-2.9713,-2.8947,-2.8647,-2.9346,-2.8797,-2.8713,-2.942,-2.9265,-2.9128,-2.9094,-2.8853,-2.8733,-2.8733,-2.8802,-2.887,-2.8887,-2.8921,-2.8937,-2.8937,-2.8937,-2.8937,-2.892,-2.8368,-2.827,-2.8578,-2.8711,-2.8725,-2.8655,-2.8561,-2.9204,-3.0262,-3.0434,-3.1058,-3.1905,-3.2101,-3.2183,-3.2221,-3.2273,-3.2433,-3.2686,-3.3054,-3.3032,-3.2927,-3.3014,-3.323,-3.3403,-3.298,-3.3177,-3.3559,-3.3559,-3.421,-3.4981,-3.5416,-3.6157,-3.6665,-3.6365,-3.6104,-3.6152,-3.7074,-3.6509,-3.6111,-3.6725,-3.5705,-3.5007,-3.5616,-3.5326,-3.5444,-3.6564,-3.6767,-3.6954,-3.7324,-3.8131,-3.8721,-3.8824,-3.9598,-4.007,-4.007,-3.9394,-3.8903,-3.8717,-3.7466,-3.6705,-3.6455,-3.5512,-3.4851,-3.4555,-3.4287,-3.4168,-3.4259,-3.406,-3.4313,0.0,0.0,0.0,0.0,0.0,0.0,0.0,0.0,0.0,0.0,-2.5519,-2.5696,-2.6036,-2.7504,-2.8619,-2.8624,-2.8641,-2.8498,-2.8009,-2.8083,-2.798,-2.7439,-2.7508,-2.783,-2.8516,-2.8518,-2.8746,-2.9351,-2.8817,-2.8388,-2.8169,-2.7568,-2.7206,-2.7206,-2.727,-2.7351,-2.7402,-2.7402,-2.7402,-2.7402,-2.7402,-2.7402,-2.7402,-2.7368,-2.7368,-2.7422,-2.8111,-2.8203,-2.7838,-2.8581,-2.8732,-2.8649,-2.9906,-3.0055,-2.9724,-3.1891,-3.1527,-3.0097,-3.0884,-3.0526,-2.9964,-3.1262,-3.1694,-3.195,-3.3243,-3.3642,-3.3694,-3.3642,-3.3745,-3.3899,-3.3899,-3.4619,-3.5624,-3.6567,-3.7463,-3.7741,-3.6531,-3.6279,-3.649,-3.7313,-3.7335,-3.7226,-3.7274,-3.7209,-3.688,-3.6212,-3.6157,-3.6649,-3.7755,-3.8011,-3.85,-3.9596,-3.9902,-4.002,-4.002,-4.0054,-4.007,-4.007,-3.9394,-3.8684,-3.799,-3.7195,-3.6405,-3.5559,-3.5371,-3.5274,-3.5241,-3.4418,-3.428,-3.4833,-3.4247,-3.4313,0.0,0.0,0.0,0.0,0.0,0.0,0.0,0.0,-2.38,-2.4007,-2.4316,-2.461,-2.4712,-2.6407,-2.7681,-2.7197,-2.7186,-2.7157,-2.694,-2.6434,-2.6378,-2.7034,-2.6861,-2.6953,-2.7736,-2.776,-2.7831,-2.8042,-2.7751,-2.7547,-2.7482,-2.7192,-2.7023,-2.7023,-2.7103,-2.7135,-2.7184,-2.7184,-2.7184,-2.7184,-2.7184,-2.7233,-2.7299,-2.7299,-2.7299,-2.7299,-2.7575,-2.7614,-2.7549,-2.7872,-2.8234,-2.8631,-2.9108,-2.9742,-3.046,-3.1579,-3.178,-3.1541,-3.2121,-3.1984,-3.163,-3.2154,-3.2646,-3.3074,-3.3291,-3.3876,-3.4399,-3.4151,-3.43,-3.4546,-3.4546,-3.5218,-3.6307,-3.7786,-3.8372,-3.8623,-3.8705,-3.8687,-3.8667,-3.888,-3.8286,-3.7691,-3.7616,-3.7171,-3.6926,-3.7281,-3.7524,-3.8032,-3.921,-3.9412,-3.9581,-4.0003,-4.0087,-4.007,-4.007,-4.007,-4.007,-4.007,-3.9394,-3.8667,-3.7939,-3.7178,-3.6417,-3.5566,-3.5383,-3.5245,-3.5198,-3.4792,-3.4698,-3.4883,-3.4681,-3.4698,0.0,0.0,0.0,0.0,0.0,0.0,0.0,0.0,-2.3358,-2.3684,-2.3883,-2.4016,-2.4113,-2.5347,-2.6267,-2.5832,-2.5848,-2.5881,-2.5849,-2.5354,-2.5355,-2.6293,-2.6083,-2.6155,-2.6922,-2.6947,-2.702,-2.7215,-2.7184,-2.7152,-2.707,-2.7055,-2.7023,-2.7055,-2.712,-2.7184,-2.7215,-2.7184,-2.7304,-2.756,-2.7304,-2.7353,-2.7708,-2.7434,-2.7299,-2.7299,-2.7313,-2.7362,-2.7393,-2.7421,-2.7764,-2.83,-2.8511,-2.9206,-3.0161,-3.0623,-3.1117,-3.1619,-3.1825,-3.1907,-3.2,-3.2249,-3.2829,-3.3412,-3.3428,-3.4114,-3.4835,-3.4594,-3.4691,-3.4899,-3.4899,-3.5525,-3.6567,-3.8019,-3.8605,-3.8958,-3.9547,-3.98,-3.9935,-3.9833,-3.9207,-3.8615,-3.8526,-3.8008,-3.7895,-3.8531,-3.8822,-3.9244,-4.0003,-4.007,-4.007,-4.007,-4.007,-4.007,-4.007,-4.007,-4.007,-4.007,-3.9394,-3.8667,-3.7939,-3.7178,-3.6417,-3.5566,-3.5383,-3.5245,-3.5152,-3.4994,-3.4899,-3.4947,-3.5243,-3.5492,0.0,0.0,0.0,0.0,0.0,0.0,-2.3501,0.0,-2.2733,-2.4425,-2.4365,-2.4079,-2.4332,-2.436,-2.4421,-2.4607,-2.4671,-2.4688,-2.4688,-2.482,-2.4936,-2.4971,-2.5079,-2.5414,-2.6103,-2.6177,-2.6446,-2.7031,-2.7215,-2.7218,-2.7024,-2.7087,-2.7135,-2.7213,-2.7264,-2.733,-2.7376,-2.733,-2.7708,-2.8481,-2.7725,-2.7742,-2.8464,-2.7708,-2.7316,-2.7282,-2.7393,-2.7362,-2.7299,-2.7282,-2.7345,-2.7445,-2.8125,-2.8418,-2.8555,-2.9024,-2.9508,-2.9964,-2.9772,-3.0059,-3.06,-3.1312,-3.2067,-3.2796,-3.3524,-3.427,-3.4866,-3.4883,-3.4899,-3.4899,-3.4899,-3.5509,-3.6369,-3.7267,-3.8102,-3.8789,-3.8823,-3.9513,-4.007,-4.007,-3.9986,-3.9901,-3.9901,-3.9901,-3.9901,-3.9901,-4.0037,-4.007,-4.007,-4.007,-4.007,-4.007,-4.007,-4.007,-4.007,-4.007,-4.007,-4.0054,-3.9394,-3.865,-3.7905,-3.7161,-3.6388,-3.5508,-3.5371,-3.5308,-3.5291,-3.5041,-3.4963,-3.5155,-3.5902,-3.6684,-2.0794,0.0,0.0,0.0,0.0,0.0,0.0,0.0,0.0,-2.4166,-2.4003,-2.3723,-2.3828,-2.3454,-2.3196,-2.3251,-2.363,-2.3886,-2.3886,-2.3584,-2.3584,-2.4219,-2.4227,-2.4521,-2.534,-2.5824,-2.6195,0.0,-2.6954,-2.7299,-2.7218,-2.725,-2.7233,-2.7264,-2.7282,-2.7282,-2.7166,-2.7184,-2.7594,-2.8418,-2.8178,-2.8261,-2.8481,-2.8273,-2.7846,-2.7282,-2.7393,-2.7362,-2.733,-2.739,-2.7421,-2.7442,-2.7601,-2.7984,-2.8453,-2.856,-2.921,-2.9985,-2.9926,-3.0179,-3.0543,-3.0758,-3.1321,-3.205,-3.2779,-3.3508,-3.4203,-3.475,-3.4899,-3.4899,-3.4899,-3.5143,-3.5618,-3.6496,-3.7347,-3.8199,-3.8821,-3.9563,-4.007,-4.007,-4.0087,-4.0037,-3.9901,-3.9986,-3.9986,-3.9901,-4.0037,-4.007,-4.007,-4.007,-4.007,-4.007,-4.007,-4.007,-4.007,-4.007,-3.9851,-3.9326,-3.9106,-3.843,-3.7144,-3.6891,-3.6417,-3.5611,-3.592,-3.589,-3.5446,-3.5088,-3.5307,-3.6047,-3.6783,-3.7283,0.0,0.0,0.0,0.0,0.0,0.0,-2.3109,-2.3594,-2.4093,0.0,-2.4611,-2.427,-2.427,-2.365,-2.315,-2.315,-2.3199,-2.323,-2.323,-2.2907,-2.2884,-2.3413,-2.3394,-2.366,-2.4475,-2.4913,-2.5298,-2.5626,-2.6368,-2.6954,-2.7282,-2.7299,-2.7299,-2.7299,-2.7299,-2.725,-2.7184,-2.7508,-2.7937,-2.8403,-2.8107,-2.8172,-2.8464,-2.7823,-2.7476,-2.7407,-2.7421,-2.7421,-2.7407,-2.7465,-2.7483,-2.7421,-2.7407,-2.7653,-2.8016,-2.8001,-2.863,-2.9546,-2.9546,-2.9967,-3.0526,-3.0526,-3.0981,-3.1702,-3.216,-3.2851,-3.3599,-3.4392,-3.4825,-3.5041,-3.5041,-3.5135,-3.5298,-3.5827,-3.6592,-3.7475,-3.8282,-3.9057,-3.9715,-4.002,-4.007,-4.0087,-3.9986,-4.0037,-4.007,-3.9986,-4.0037,-4.007,-4.007,-4.007,-4.007,-4.007,-4.007,-4.007,-4.007,-4.007,-3.9901,-3.9478,-3.9157,-3.8599,-3.7736,-3.7415,-3.7043,-3.6586,-3.6774,-3.6496,-3.5807,-3.5507,-3.5723,-3.6444,-3.7549,-3.8085,0.0,0.0,0.0,0.0,-2.1617,0.0,-2.3779,-2.3896,-2.4132,0.0,-2.5582,-2.5209,-2.5209,-2.4445,-2.3815,-2.3815,-2.3195,-2.2712,-2.2712,-2.2712,-2.2712,-2.2712,-2.2712,-2.297,-2.3598,-2.3736,-2.4081,-2.4816,-2.5574,-2.6299,-2.7006,-2.7109,-2.7161,-2.7161,-2.7247,-2.7299,-2.7299,-2.793,-2.8259,-2.8265,-2.7702,-2.7716,-2.8187,-2.7022,-2.6792,-2.7344,-2.7461,-2.7496,-2.7465,-2.7465,-2.7496,-2.7496,-2.7421,-2.7452,-2.7483,-2.7494,-2.81,-2.8921,-2.8969,-2.9644,-3.0526,-3.0526,-3.0957,-3.152,-3.1732,-3.2274,-3.3017,-3.3941,-3.4672,-3.5191,-3.5274,-3.5291,-3.5291,-3.5291,-3.6001,-3.6835,-3.7528,-3.8383,-3.9208,-3.9935,-4.007,-4.007,-4.007,-4.007,-4.007,-4.007,-4.007,-4.0054,-3.9969,-3.9952,-3.9935,-3.9834,-3.9918,-3.9952,-3.9952,-4.002,-4.0054,-3.9969,-3.9343,-3.8954,-3.887,-3.8261,-3.7872,-3.7787,-3.7446,-3.695,-3.632,-3.6272,-3.627,-3.6444,-3.7999,-3.8754,0.0,0.0,0.0,0.0,-2.1969,0.0,-2.2379,-2.3061,-2.3699,0.0,-2.4694,-2.5209,-2.5209,-2.4517,-2.396,-2.396,-2.3265,-2.2712,-2.2712,-2.2712,-2.2712,-2.2712,-2.2712,-2.2763,-2.2892,-2.3443,-2.3857,-2.4012,-2.4781,-2.5281,-2.5436,-2.6023,-2.6333,-2.6333,-2.6954,-2.7299,-2.7299,-2.6799,-2.6899,-2.7503,-2.7473,-2.7143,-2.6526,-2.7757,-2.7583,-2.6424,-2.7217,-2.7417,-2.7198,-2.7355,-2.7434,-2.7496,-2.7496,-2.7452,-2.7476,-2.7872,-2.839,-2.8952,-2.9391,-2.9982,-3.0526,-3.0526,-3.0667,-3.0983,-3.1624,-3.1992,-3.2436,-3.3835,-3.4303,-3.4538,-3.514,-3.54,-3.5446,-3.5446,-3.6139,-3.6975,-3.7689,-3.8481,-3.9208,-3.9935,-4.007,-4.007,-4.007,-4.007,-4.007,-4.007,-4.007,-3.9868,-3.9276,-3.9208,-3.8988,-3.8396,-3.8853,-3.9208,-3.9208,-3.9732,-3.9834,-3.9242,-3.9073,-3.8717,-3.8142,-3.799,-3.7618,-3.7009,-3.6262,-3.634,-3.7234,-3.7446,-3.7175,-3.6602,-3.759,-3.806,0.0,0.0,0.0,-2.1928,-2.2073,0.0,0.0,-2.4018,-2.4583,-2.5049,-2.583,-2.6324,-2.5928,-2.5505,-2.5188,-2.5188,-2.449,-2.3915,-2.3942,-2.3248,-2.285,-2.33,-2.2962,-2.2712,-2.2712,-2.3013,-2.3392,-2.3753,-2.4149,-2.4591,-2.4988,-2.535,-2.5557,-2.5557,-2.6299,-2.6695,-2.6695,-2.674,-2.6709,-2.6585,-2.6342,-2.5932,-2.5407,-2.6044,-2.6021,-2.5616,-2.6591,-2.6831,-2.6602,-2.7155,-2.7341,-2.7261,-2.7324,-2.7261,-2.7154,-2.7532,-2.8117,-2.877,-2.9063,-2.9759,-3.0526,-3.0526,-3.0568,-3.0676,-3.1183,-3.1716,-3.2294,-3.3051,-3.3775,-3.4415,-3.4802,-3.5217,-3.5566,-3.5566,-3.5881,-3.6417,-3.7178,-3.7922,-3.8667,-3.9394,-3.9834,-4.007,-4.007,-4.007,-4.007,-4.007,-3.9766,-3.9411,-3.9039,-3.8667,-3.8311,-3.7939,-3.8565,-3.8988,-3.8988,-3.9665,-3.9918,-3.9546,-3.9529,-3.9208,-3.8481,-3.8447,-3.8229,-3.781,-3.7422,-3.7374,-3.7599,-3.781,-3.7283,-3.6064,-3.7334,-3.7702,0.0,0.0,0.0,0.0,-2.2304,-2.3027,0.0,0.0,0.0,-2.6493,-2.7098,0.0,0.0,0.0,0.0,0.0,0.0,0.0,0.0,-2.4039,0.0,-2.3935,-2.3396,-2.2867,-2.2729,-2.2712,-2.2953,-2.3529,-2.3581,-2.3857,-2.4522,-2.4695,-2.4781,-2.4781,-2.5505,-2.5902,-2.5902,-2.6411,-2.6281,-2.5466,-2.5011,-2.462,-2.4325,-2.4116,-2.4287,-2.4781,-2.5831,-2.6139,-2.5945,-2.6857,-2.707,-2.6825,-2.7053,-2.7021,-2.6825,-2.7127,-2.7724,-2.8461,-2.8519,-2.9276,-3.0137,-3.0137,-3.0236,-3.0434,-3.0654,-3.1375,-3.2104,-3.2239,-3.3152,-3.4134,-3.4421,-3.4945,-3.5436,-3.5588,-3.5622,-3.5825,-3.662,-3.7263,-3.7905,-3.8633,-3.9377,-3.9918,-4.0054,-3.9969,-3.9868,-3.9868,-3.9242,-3.8734,-3.8582,-3.8058,-3.7702,-3.7702,-3.821,-3.8616,-3.8768,-3.9326,-3.9665,-3.9665,-3.9783,-3.9597,-3.9005,-3.8988,-3.8956,-3.8857,-3.8619,-3.8164,-3.7477,-3.7438,-3.6764,-3.5525,-3.6861,-3.7144,0.0,0.0,-2.2377,-2.2552,-2.3031,-2.359,-2.4029,0.0,-2.6103,-2.6463,0.0,-2.6632,0.0,0.0,0.0,0.0,0.0,0.0,-2.5265,-2.5052,-2.4684,-2.4083,-2.3917,-2.3534,-2.2781,-2.2712,-2.272,-2.2832,-2.2806,-2.284,-2.297,-2.3591,-2.3926,-2.3926,-2.4712,-2.5126,-2.5126,-2.4522,-2.4104,-2.395,-2.4005,-2.3543,-2.2739,-2.4179,-2.4448,-2.3836,-2.5257,-2.5717,-2.5511,-2.6353,-2.6453,-2.6189,-2.6791,-2.6923,-2.6859,-2.7418,-2.7702,-2.7883,-2.8369,-2.8665,-2.882,-2.882,-2.9348,-2.9984,-3.015,-3.0734,-3.1444,-3.2104,-3.2432,-3.2831,-3.415,-3.4556,-3.4793,-3.5453,-3.5622,-3.5825,-3.662,-3.6857,-3.7127,-3.7889,-3.8535,-3.9194,-3.9969,-3.9546,-3.9106,-3.9106,-3.8497,-3.7787,-3.711,-3.6958,-3.6907,-3.6907,-3.6975,-3.7297,-3.7973,-3.8108,-3.8159,-3.8159,-3.8751,-3.9089,-3.8988,-3.8988,-3.8988,-3.8988,-3.759,-3.6835,-3.6703,-3.5954,-3.5551,-3.5508,-3.5734,-3.5797,0.0,-2.2203,-2.2405,-2.2515,-2.2801,-2.3227,-2.3856,-2.4472,-2.5045,-2.561,0.0,0.0,0.0,0.0,0.0,0.0,-2.612,0.0,0.0,0.0,-2.6341,-2.5551,0.0,0.0,-2.348,-2.2944,-2.2649,-2.2596,-2.2659,-2.2685,-2.2632,-2.2978,-2.315,-2.315,-2.3919,-2.454,-2.5005,-2.4212,-2.4001,-2.4391,-2.3543,-2.2887,-2.2477,-2.3192,-2.3448,-2.3439,-2.4581,-2.5105,-2.5196,-2.61,-2.626,-2.5954,-2.626,-2.64,-2.6485,-2.6908,-2.7224,-2.7498,-2.7761,-2.816,-2.8615,-2.9109,-2.9499,-2.9928,-3.0482,-3.0898,-3.1258,-3.1562,-3.1952,-3.2466,-3.3051,-3.3931,-3.466,-3.4895,-3.5345,-3.5813,-3.6045,-3.6468,-3.6874,-3.7195,-3.7807,-3.8366,-3.8768,-3.8871,-3.8771,-3.843,-3.7736,-3.7144,-3.6823,-3.6383,-3.6096,-3.6096,-3.6502,-3.6907,-3.7229,-3.7652,-3.7905,-3.7905,-3.8193,-3.8548,-3.8971,-3.8159,-3.7905,-3.8345,-3.7266,-3.6726,-3.6726,-3.6375,-3.5958,-3.5492,-3.552,-3.5566,-2.2113,-2.2287,-2.2487,-2.2487,-2.2777,-2.3214,-2.3865,-2.417,-2.4493,-2.5077,-2.5551,0.0,0.0,0.0,0.0,0.0,0.0,-2.7198,0.0,-2.6673,0.0,0.0,0.0,0.0,0.0,-2.3377,-2.2909,-2.2623,-2.2685,-2.2712,-2.2659,-2.2685,-2.2712,-2.2712,-2.3202,-2.3902,-2.466,-2.4081,-2.4052,-2.4574,-2.3419,-2.2757,-2.2542,-2.246,-2.2638,-2.3064,-2.4022,-2.4542,-2.4726,-2.5826,-2.6002,-2.5639,-2.5888,-2.5964,-2.5974,-2.6332,-2.6697,-2.7038,-2.7058,-2.7631,-2.8369,-2.8963,-2.9508,-3.0039,-3.0583,-3.0982,-3.123,-3.123,-3.1602,-3.2036,-3.2263,-3.3168,-3.4126,-3.449,-3.506,-3.5518,-3.5633,-3.6107,-3.6514,-3.6468,-3.703,-3.7469,-3.7313,-3.781,-3.813,-3.7669,-3.6958,-3.6468,-3.6468,-3.596,-3.569,-3.591,-3.6248,-3.6552,-3.6755,-3.7094,-3.7364,-3.7584,-3.7537,-3.7874,-3.8667,-3.7669,-3.7199,-3.7601,-3.706,-3.6641,-3.6422,-3.6422,-3.606,-3.5492,-3.5537,-3.5566,-2.2432,-2.2542,-2.2685,-2.2685,-2.3317,-2.3969,-2.3987,-2.4597,-2.5192,-2.5209,-2.4597,-2.4309,-2.506,0.0,0.0,0.0,0.0,0.0,0.0,0.0,0.0,0.0,0.0,0.0,0.0,-2.4023,-2.372,-2.2946,-2.2842,-2.279,-2.279,-2.2738,-2.2712,-2.2712,-2.2729,-2.3081,-2.3822,-2.3805,-2.3805,-2.3822,-2.3648,-2.3226,-2.2579,-2.2542,-2.2504,-2.2562,-2.3634,-2.408,-2.4149,-2.5398,-2.5543,-2.5022,-2.5851,-2.5808,-2.5312,-2.5834,-2.617,-2.6329,-2.6329,-2.6954,-2.7734,-2.7767,-2.8873,-3.017,-3.0241,-3.0734,-3.1295,-3.1295,-3.1269,-3.1393,-3.2087,-3.2364,-3.2754,-3.4338,-3.4695,-3.4916,-3.5664,-3.579,-3.5807,-3.5656,-3.6127,-3.635,-3.5763,-3.6332,-3.684,-3.6823,-3.6146,-3.5656,-3.5656,-3.5639,-3.591,-3.6671,-3.6096,-3.596,-3.6721,-3.6113,-3.6011,-3.6772,-3.6713,-3.705,-3.7905,-3.7793,-3.7438,-3.6823,-3.6679,-3.6279,-3.5525,-3.5434,-3.5417,-3.5492,-3.5549,-3.5549,-2.2893,-2.2902,-2.2927,-2.285,-2.3059,-2.325,-2.3144,-2.3352,-2.3717,-2.4292,-2.4187,-2.411,-2.4479,0.0,0.0,0.0,0.0,0.0,0.0,0.0,-2.5409,-2.5244,0.0,0.0,0.0,0.0,-2.2633,-2.2773,-2.2919,-2.2944,-2.2816,-2.279,-2.2764,-2.2764,-2.2712,-2.303,-2.3788,-2.3305,-2.3305,-2.3788,-2.3261,-2.2873,-2.2659,-2.2632,-2.2771,-2.305,-2.3405,-2.3961,-2.4627,-2.5053,-2.5363,-2.5573,-2.5872,-2.5931,-2.5891,-2.6068,-2.6168,-2.6324,-2.6933,-2.6985,-2.6971,-2.8068,-2.8404,-2.8535,-2.9677,-3.0188,-3.0475,-3.1077,-3.123,-3.1258,-3.1495,-3.1998,-3.2547,-3.2998,-3.4006,-3.4891,-3.5061,-3.546,-3.5773,-3.5728,-3.5825,-3.5819,-3.5628,-3.5842,-3.6011,-3.6011,-3.5791,-3.5622,-3.5622,-3.5622,-3.5723,-3.5994,-3.5774,-3.5723,-3.5994,-3.5774,-3.5915,-3.6629,-3.6726,-3.7064,-3.7728,-3.732,-3.6996,-3.6772,-3.6219,-3.5802,-3.5549,-3.5503,-3.5503,-3.5549,-3.5577,-3.5577,-2.3095,-2.3095,-2.3095,-2.2977,-2.297,-2.2944,-2.2816,-2.2764,-2.2929,-2.3493,-2.3588,-2.3701,-2.4199,0.0,0.0,0.0,0.0,0.0,0.0,-2.4901,-2.4945,-2.4388,-2.4677,0.0,0.0,-2.3074,-2.2743,-2.2902,-2.302,-2.302,-2.2893,-2.2842,-2.2816,-2.2816,-2.2738,-2.303,-2.3788,-2.3626,-2.3598,-2.3788,-2.3626,-2.3229,-2.2738,-2.2738,-2.3,-2.3435,-2.3613,-2.4056,-2.4646,-2.4842,-2.5055,-2.5285,-2.5513,-2.5719,-2.5909,-2.6068,-2.6151,-2.6324,-2.6914,-2.695,-2.6916,-2.7958,-2.833,-2.8548,-2.964,-3.0205,-3.0654,-3.1455,-3.1455,-3.132,-3.1591,-3.1868,-3.2089,-3.2303,-3.324,-3.4175,-3.4661,-3.5112,-3.5555,-3.581,-3.5756,-3.5667,-3.5667,-3.5622,-3.5622,-3.5622,-3.5622,-3.5622,-3.5622,-3.5622,-3.5622,-3.5622,-3.5622,-3.5622,-3.5622,-3.5622,-3.578,-3.6241,-3.6291,-3.651,-3.6919,-3.6544,-3.6455,-3.6772,-3.6011,-3.5757,-3.6028,-3.5757,-3.5622,-3.5622,-3.5622,-3.5622]}]]